<?xml version="1.0" encoding="utf-8"?>
<gpx xmlns:xsi="http://www.w3.org/2001/XMLSchema-instance" xmlns:xsd="http://www.w3.org/2001/XMLSchema" version="1.1" creator="Shapelink.com" xmlns="http://www.topografix.com/GPX/1/1" xmlns:gpxtpx="http://www.garmin.com/xmlschemas/TrackPointExtension/v1">
  <metadata>
    <name>Längdskidåkning - Klassisk 25.43 km, 2015-02-17</name>
    <desc></desc>
    <author><name>Alexander Engvall</name></author> 
    <time>2015-02-17T18:56:41Z</time>
  </metadata>
  <trk>
    <name>Längdskidåkning - Klassisk 25.43 km, 2015-02-17</name>
    <trkseg>
      <trkpt lat="59.192611930065" lon="17.901660191714">
        <ele>105.4</ele>
        <time>2015-02-17T18:56:41Z</time>
      </trkpt>
      <trkpt lat="59.192495756931" lon="17.901564386597">
        <ele>105.4</ele>
        <time>2015-02-17T18:56:46Z</time>
      </trkpt>
      <trkpt lat="59.192425265152" lon="17.901487943669">
        <ele>105.8</ele>
        <time>2015-02-17T18:56:50Z</time>
      </trkpt>
      <trkpt lat="59.192401209099" lon="17.901475370819">
        <ele>105.8</ele>
        <time>2015-02-17T18:56:51Z</time>
      </trkpt>
      <trkpt lat="59.192332058424" lon="17.901517280319">
        <ele>105.4</ele>
        <time>2015-02-17T18:56:54Z</time>
      </trkpt>
      <trkpt lat="59.192301632127" lon="17.901549634453">
        <ele>105.2</ele>
        <time>2015-02-17T18:56:55Z</time>
      </trkpt>
      <trkpt lat="59.192110440988" lon="17.901704196689">
        <ele>105.4</ele>
        <time>2015-02-17T18:57:00Z</time>
      </trkpt>
      <trkpt lat="59.192087558401" lon="17.901756499745">
        <ele>105.2</ele>
        <time>2015-02-17T18:57:01Z</time>
      </trkpt>
      <trkpt lat="59.19200801417" lon="17.901820453642">
        <ele>105</ele>
        <time>2015-02-17T18:57:03Z</time>
      </trkpt>
      <trkpt lat="59.191921261505" lon="17.901902009529">
        <ele>105</ele>
        <time>2015-02-17T18:57:05Z</time>
      </trkpt>
      <trkpt lat="59.1918462435" lon="17.901970405833">
        <ele>104.8</ele>
        <time>2015-02-17T18:57:07Z</time>
      </trkpt>
      <trkpt lat="59.191825624026" lon="17.901999239569">
        <ele>105</ele>
        <time>2015-02-17T18:57:08Z</time>
      </trkpt>
      <trkpt lat="59.191760161387" lon="17.902044166553">
        <ele>105</ele>
        <time>2015-02-17T18:57:10Z</time>
      </trkpt>
      <trkpt lat="59.191595121776" lon="17.902236782615">
        <ele>104.4</ele>
        <time>2015-02-17T18:57:15Z</time>
      </trkpt>
      <trkpt lat="59.191561929452" lon="17.902277686287">
        <ele>104</ele>
        <time>2015-02-17T18:57:16Z</time>
      </trkpt>
      <trkpt lat="59.191543405453" lon="17.902340047623">
        <ele>104</ele>
        <time>2015-02-17T18:57:17Z</time>
      </trkpt>
      <trkpt lat="59.191492192044" lon="17.902472230186">
        <ele>103.8</ele>
        <time>2015-02-17T18:57:19Z</time>
      </trkpt>
      <trkpt lat="59.191464112679" lon="17.902661409669">
        <ele>104.2</ele>
        <time>2015-02-17T18:57:21Z</time>
      </trkpt>
      <trkpt lat="59.191465789059" lon="17.902731817629">
        <ele>104</ele>
        <time>2015-02-17T18:57:22Z</time>
      </trkpt>
      <trkpt lat="59.19146235248" lon="17.902818318837">
        <ele>104</ele>
        <time>2015-02-17T18:57:23Z</time>
      </trkpt>
      <trkpt lat="59.191456401331" lon="17.902872214454">
        <ele>104</ele>
        <time>2015-02-17T18:57:24Z</time>
      </trkpt>
      <trkpt lat="59.191454473494" lon="17.903096011184">
        <ele>104.2</ele>
        <time>2015-02-17T18:57:27Z</time>
      </trkpt>
      <trkpt lat="59.191446929784" lon="17.903224505711">
        <ele>104.4</ele>
        <time>2015-02-17T18:57:29Z</time>
      </trkpt>
      <trkpt lat="59.191425388301" lon="17.903333302773">
        <ele>104.2</ele>
        <time>2015-02-17T18:57:31Z</time>
      </trkpt>
      <trkpt lat="59.191303683113" lon="17.903538659323">
        <ele>103.8</ele>
        <time>2015-02-17T18:57:36Z</time>
      </trkpt>
      <trkpt lat="59.1912259829" lon="17.903578221891">
        <ele>104.2</ele>
        <time>2015-02-17T18:57:39Z</time>
      </trkpt>
      <trkpt lat="59.191115258001" lon="17.903558943521">
        <ele>103.8</ele>
        <time>2015-02-17T18:57:43Z</time>
      </trkpt>
      <trkpt lat="59.190923899224" lon="17.903597164985">
        <ele>103.6</ele>
        <time>2015-02-17T18:57:48Z</time>
      </trkpt>
      <trkpt lat="59.190737821044" lon="17.903568331249">
        <ele>104.2</ele>
        <time>2015-02-17T18:57:52Z</time>
      </trkpt>
      <trkpt lat="59.190651403655" lon="17.90354980725">
        <ele>104</ele>
        <time>2015-02-17T18:57:54Z</time>
      </trkpt>
      <trkpt lat="59.190617121684" lon="17.90352214698">
        <ele>104</ele>
        <time>2015-02-17T18:57:55Z</time>
      </trkpt>
      <trkpt lat="59.190432719884" lon="17.903511837243">
        <ele>104</ele>
        <time>2015-02-17T18:57:59Z</time>
      </trkpt>
      <trkpt lat="59.190378237534" lon="17.903494989624">
        <ele>104.2</ele>
        <time>2015-02-17T18:58:00Z</time>
      </trkpt>
      <trkpt lat="59.190230380818" lon="17.903341517035">
        <ele>105</ele>
        <time>2015-02-17T18:58:04Z</time>
      </trkpt>
      <trkpt lat="59.190160811048" lon="17.903230624498">
        <ele>105.4</ele>
        <time>2015-02-17T18:58:06Z</time>
      </trkpt>
      <trkpt lat="59.190133066959" lon="17.903061896851">
        <ele>105.4</ele>
        <time>2015-02-17T18:58:08Z</time>
      </trkpt>
      <trkpt lat="59.190114459141" lon="17.902897779249">
        <ele>105.4</ele>
        <time>2015-02-17T18:58:10Z</time>
      </trkpt>
      <trkpt lat="59.190094091124" lon="17.902823683253">
        <ele>105.2</ele>
        <time>2015-02-17T18:58:11Z</time>
      </trkpt>
      <trkpt lat="59.190037513299" lon="17.902694099079">
        <ele>105.6</ele>
        <time>2015-02-17T18:58:13Z</time>
      </trkpt>
      <trkpt lat="59.189965093683" lon="17.902530484391">
        <ele>106</ele>
        <time>2015-02-17T18:58:16Z</time>
      </trkpt>
      <trkpt lat="59.189910695152" lon="17.902405510262">
        <ele>106.4</ele>
        <time>2015-02-17T18:58:18Z</time>
      </trkpt>
      <trkpt lat="59.189887225832" lon="17.902347675152">
        <ele>106.4</ele>
        <time>2015-02-17T18:58:19Z</time>
      </trkpt>
      <trkpt lat="59.18986224777" lon="17.902266119265">
        <ele>106.4</ele>
        <time>2015-02-17T18:58:20Z</time>
      </trkpt>
      <trkpt lat="59.189788822326" lon="17.902084818768">
        <ele>106.4</ele>
        <time>2015-02-17T18:58:23Z</time>
      </trkpt>
      <trkpt lat="59.189684300033" lon="17.901806539688">
        <ele>106.2</ele>
        <time>2015-02-17T18:58:27Z</time>
      </trkpt>
      <trkpt lat="59.189600313395" lon="17.901709644924">
        <ele>106.2</ele>
        <time>2015-02-17T18:58:29Z</time>
      </trkpt>
      <trkpt lat="59.189557649524" lon="17.901643008819">
        <ele>106.2</ele>
        <time>2015-02-17T18:58:30Z</time>
      </trkpt>
      <trkpt lat="59.189517919318" lon="17.901574780153">
        <ele>106.4</ele>
        <time>2015-02-17T18:58:31Z</time>
      </trkpt>
      <trkpt lat="59.189491600152" lon="17.901509904247">
        <ele>106.4</ele>
        <time>2015-02-17T18:58:32Z</time>
      </trkpt>
      <trkpt lat="59.189396968501" lon="17.901379314245">
        <ele>106.4</ele>
        <time>2015-02-17T18:58:35Z</time>
      </trkpt>
      <trkpt lat="59.189339803943" lon="17.901279234359">
        <ele>106.4</ele>
        <time>2015-02-17T18:58:37Z</time>
      </trkpt>
      <trkpt lat="59.18929563133" lon="17.901236486669">
        <ele>106.2</ele>
        <time>2015-02-17T18:58:38Z</time>
      </trkpt>
      <trkpt lat="59.189246094301" lon="17.901187117278">
        <ele>106.2</ele>
        <time>2015-02-17T18:58:39Z</time>
      </trkpt>
      <trkpt lat="59.18919672491" lon="17.90114504014">
        <ele>106.2</ele>
        <time>2015-02-17T18:58:40Z</time>
      </trkpt>
      <trkpt lat="59.189126987502" lon="17.900964158738">
        <ele>106</ele>
        <time>2015-02-17T18:58:43Z</time>
      </trkpt>
      <trkpt lat="59.189114079376" lon="17.900895510977">
        <ele>106</ele>
        <time>2015-02-17T18:58:44Z</time>
      </trkpt>
      <trkpt lat="59.189036379163" lon="17.900722760018">
        <ele>105.4</ele>
        <time>2015-02-17T18:58:47Z</time>
      </trkpt>
      <trkpt lat="59.18896538447" lon="17.900414641374">
        <ele>105</ele>
        <time>2015-02-17T18:58:51Z</time>
      </trkpt>
      <trkpt lat="59.188889863551" lon="17.900203836589">
        <ele>105</ele>
        <time>2015-02-17T18:58:54Z</time>
      </trkpt>
      <trkpt lat="59.188777210815" lon="17.900040976272">
        <ele>105.2</ele>
        <time>2015-02-17T18:58:57Z</time>
      </trkpt>
      <trkpt lat="59.188747035975" lon="17.899973501977">
        <ele>105.2</ele>
        <time>2015-02-17T18:58:58Z</time>
      </trkpt>
      <trkpt lat="59.188721722637" lon="17.899909799537">
        <ele>105.2</ele>
        <time>2015-02-17T18:58:59Z</time>
      </trkpt>
      <trkpt lat="59.188638741827" lon="17.899554406977">
        <ele>105.2</ele>
        <time>2015-02-17T18:59:03Z</time>
      </trkpt>
      <trkpt lat="59.188621810389" lon="17.899261794848">
        <ele>105</ele>
        <time>2015-02-17T18:59:06Z</time>
      </trkpt>
      <trkpt lat="59.188624073502" lon="17.898920651518">
        <ele>105.2</ele>
        <time>2015-02-17T18:59:10Z</time>
      </trkpt>
      <trkpt lat="59.188638909465" lon="17.898761143961">
        <ele>105.4</ele>
        <time>2015-02-17T18:59:12Z</time>
      </trkpt>
      <trkpt lat="59.188647626641" lon="17.898632062701">
        <ele>105.2</ele>
        <time>2015-02-17T18:59:14Z</time>
      </trkpt>
      <trkpt lat="59.18864351951" lon="17.898581603663">
        <ele>105.2</ele>
        <time>2015-02-17T18:59:15Z</time>
      </trkpt>
      <trkpt lat="59.188643016596" lon="17.898342719513">
        <ele>104.8</ele>
        <time>2015-02-17T18:59:18Z</time>
      </trkpt>
      <trkpt lat="59.18857311155" lon="17.898024542589">
        <ele>104.8</ele>
        <time>2015-02-17T18:59:23Z</time>
      </trkpt>
      <trkpt lat="59.188598592526" lon="17.89766906621">
        <ele>105.4</ele>
        <time>2015-02-17T18:59:28Z</time>
      </trkpt>
      <trkpt lat="59.188585097667" lon="17.89729858623">
        <ele>105.6</ele>
        <time>2015-02-17T18:59:33Z</time>
      </trkpt>
      <trkpt lat="59.188513767698" lon="17.89705215837">
        <ele>105.8</ele>
        <time>2015-02-17T18:59:37Z</time>
      </trkpt>
      <trkpt lat="59.188419219866" lon="17.896702968416">
        <ele>106.2</ele>
        <time>2015-02-17T18:59:42Z</time>
      </trkpt>
      <trkpt lat="59.188311009537" lon="17.896409350459">
        <ele>106.2</ele>
        <time>2015-02-17T18:59:47Z</time>
      </trkpt>
      <trkpt lat="59.188295503022" lon="17.896347659675">
        <ele>106.6</ele>
        <time>2015-02-17T18:59:48Z</time>
      </trkpt>
      <trkpt lat="59.188209588547" lon="17.896209525963">
        <ele>107</ele>
        <time>2015-02-17T18:59:51Z</time>
      </trkpt>
      <trkpt lat="59.188067347704" lon="17.896089413336">
        <ele>107.6</ele>
        <time>2015-02-17T18:59:55Z</time>
      </trkpt>
      <trkpt lat="59.188021917806" lon="17.896080947617">
        <ele>107.6</ele>
        <time>2015-02-17T18:59:57Z</time>
      </trkpt>
      <trkpt lat="59.187994425174" lon="17.896079438875">
        <ele>107.6</ele>
        <time>2015-02-17T18:59:58Z</time>
      </trkpt>
      <trkpt lat="59.187837935101" lon="17.896064351455">
        <ele>107.6</ele>
        <time>2015-02-17T19:00:02Z</time>
      </trkpt>
      <trkpt lat="59.187655209681" lon="17.896019089195">
        <ele>107.2</ele>
        <time>2015-02-17T19:00:07Z</time>
      </trkpt>
      <trkpt lat="59.187489499518" lon="17.896022106679">
        <ele>107</ele>
        <time>2015-02-17T19:00:11Z</time>
      </trkpt>
      <trkpt lat="59.187338206223" lon="17.896071727527">
        <ele>107.4</ele>
        <time>2015-02-17T19:00:15Z</time>
      </trkpt>
      <trkpt lat="59.187195211009" lon="17.896072398079">
        <ele>107.4</ele>
        <time>2015-02-17T19:00:19Z</time>
      </trkpt>
      <trkpt lat="59.187054143632" lon="17.896129646456">
        <ele>107</ele>
        <time>2015-02-17T19:00:23Z</time>
      </trkpt>
      <trkpt lat="59.18692020087" lon="17.896092263182">
        <ele>107.4</ele>
        <time>2015-02-17T19:00:26Z</time>
      </trkpt>
      <trkpt lat="59.186769242851" lon="17.895807110944">
        <ele>106.6</ele>
        <time>2015-02-17T19:00:30Z</time>
      </trkpt>
      <trkpt lat="59.186724232048" lon="17.895723962496">
        <ele>106.2</ele>
        <time>2015-02-17T19:00:31Z</time>
      </trkpt>
      <trkpt lat="59.186582577938" lon="17.895455322601">
        <ele>105.8</ele>
        <time>2015-02-17T19:00:35Z</time>
      </trkpt>
      <trkpt lat="59.186508733399" lon="17.895338646553">
        <ele>105.8</ele>
        <time>2015-02-17T19:00:37Z</time>
      </trkpt>
      <trkpt lat="59.186462716768" lon="17.895265640204">
        <ele>105.6</ele>
        <time>2015-02-17T19:00:38Z</time>
      </trkpt>
      <trkpt lat="59.186419969078" lon="17.895232028785">
        <ele>105.6</ele>
        <time>2015-02-17T19:00:39Z</time>
      </trkpt>
      <trkpt lat="59.186370683506" lon="17.895172182019">
        <ele>105.4</ele>
        <time>2015-02-17T19:00:40Z</time>
      </trkpt>
      <trkpt lat="59.186271022715" lon="17.895061960034">
        <ele>105.2</ele>
        <time>2015-02-17T19:00:42Z</time>
      </trkpt>
      <trkpt lat="59.186133391917" lon="17.894932292041">
        <ele>105.2</ele>
        <time>2015-02-17T19:00:45Z</time>
      </trkpt>
      <trkpt lat="59.186050578745" lon="17.894839588227">
        <ele>105</ele>
        <time>2015-02-17T19:00:47Z</time>
      </trkpt>
      <trkpt lat="59.186014620394" lon="17.894777143072">
        <ele>105.2</ele>
        <time>2015-02-17T19:00:48Z</time>
      </trkpt>
      <trkpt lat="59.185869781162" lon="17.894583353544">
        <ele>105.2</ele>
        <time>2015-02-17T19:00:52Z</time>
      </trkpt>
      <trkpt lat="59.185843378177" lon="17.894598189507">
        <ele>105.4</ele>
        <time>2015-02-17T19:00:53Z</time>
      </trkpt>
      <trkpt lat="59.185734413477" lon="17.894716458116">
        <ele>106</ele>
        <time>2015-02-17T19:00:57Z</time>
      </trkpt>
      <trkpt lat="59.18556400945" lon="17.894866913221">
        <ele>105.6</ele>
        <time>2015-02-17T19:01:02Z</time>
      </trkpt>
      <trkpt lat="59.185356725063" lon="17.894789213008">
        <ele>105.2</ele>
        <time>2015-02-17T19:01:06Z</time>
      </trkpt>
      <trkpt lat="59.185285478913" lon="17.894581341888">
        <ele>105.2</ele>
        <time>2015-02-17T19:01:09Z</time>
      </trkpt>
      <trkpt lat="59.185192188366" lon="17.894254112512">
        <ele>105</ele>
        <time>2015-02-17T19:01:13Z</time>
      </trkpt>
      <trkpt lat="59.185057575052" lon="17.894088905263">
        <ele>104.8</ele>
        <time>2015-02-17T19:01:17Z</time>
      </trkpt>
      <trkpt lat="59.184967637265" lon="17.894075829499">
        <ele>104.4</ele>
        <time>2015-02-17T19:01:19Z</time>
      </trkpt>
      <trkpt lat="59.18492111772" lon="17.894076667689">
        <ele>104.4</ele>
        <time>2015-02-17T19:01:20Z</time>
      </trkpt>
      <trkpt lat="59.184873005614" lon="17.894057724595">
        <ele>104.4</ele>
        <time>2015-02-17T19:01:21Z</time>
      </trkpt>
      <trkpt lat="59.184841154394" lon="17.894031489248">
        <ele>104.2</ele>
        <time>2015-02-17T19:01:22Z</time>
      </trkpt>
      <trkpt lat="59.184689693461" lon="17.893930319715">
        <ele>104</ele>
        <time>2015-02-17T19:01:26Z</time>
      </trkpt>
      <trkpt lat="59.184636636034" lon="17.893890086595">
        <ele>104.2</ele>
        <time>2015-02-17T19:01:27Z</time>
      </trkpt>
      <trkpt lat="59.184552984672" lon="17.893806938147">
        <ele>103.8</ele>
        <time>2015-02-17T19:01:29Z</time>
      </trkpt>
      <trkpt lat="59.1845036991" lon="17.893759245136">
        <ele>103.8</ele>
        <time>2015-02-17T19:01:30Z</time>
      </trkpt>
      <trkpt lat="59.184456006089" lon="17.893741978422">
        <ele>103.2</ele>
        <time>2015-02-17T19:01:31Z</time>
      </trkpt>
      <trkpt lat="59.184353076357" lon="17.8936717381">
        <ele>103</ele>
        <time>2015-02-17T19:01:33Z</time>
      </trkpt>
      <trkpt lat="59.18429079884" lon="17.893648687875">
        <ele>102.8</ele>
        <time>2015-02-17T19:01:34Z</time>
      </trkpt>
      <trkpt lat="59.184177307914" lon="17.893500495883">
        <ele>102.4</ele>
        <time>2015-02-17T19:01:37Z</time>
      </trkpt>
      <trkpt lat="59.184133386758" lon="17.893479960228">
        <ele>102.6</ele>
        <time>2015-02-17T19:01:38Z</time>
      </trkpt>
      <trkpt lat="59.184071528336" lon="17.893381305265">
        <ele>102.2</ele>
        <time>2015-02-17T19:01:40Z</time>
      </trkpt>
      <trkpt lat="59.183962815093" lon="17.893353561176">
        <ele>102.4</ele>
        <time>2015-02-17T19:01:42Z</time>
      </trkpt>
      <trkpt lat="59.183906404906" lon="17.893343921991">
        <ele>102.2</ele>
        <time>2015-02-17T19:01:43Z</time>
      </trkpt>
      <trkpt lat="59.183767013909" lon="17.893300671387">
        <ele>102.4</ele>
        <time>2015-02-17T19:01:46Z</time>
      </trkpt>
      <trkpt lat="59.183721248735" lon="17.893247278684">
        <ele>102.6</ele>
        <time>2015-02-17T19:01:47Z</time>
      </trkpt>
      <trkpt lat="59.183671292611" lon="17.89308668148">
        <ele>102.4</ele>
        <time>2015-02-17T19:01:49Z</time>
      </trkpt>
      <trkpt lat="59.183648493843" lon="17.89275727281">
        <ele>102.2</ele>
        <time>2015-02-17T19:01:53Z</time>
      </trkpt>
      <trkpt lat="59.183657462476" lon="17.892395007092">
        <ele>102.4</ele>
        <time>2015-02-17T19:01:57Z</time>
      </trkpt>
      <trkpt lat="59.183650505499" lon="17.892301968002">
        <ele>102.4</ele>
        <time>2015-02-17T19:01:58Z</time>
      </trkpt>
      <trkpt lat="59.18364455435" lon="17.891977923748">
        <ele>102.4</ele>
        <time>2015-02-17T19:02:02Z</time>
      </trkpt>
      <trkpt lat="59.18364706892" lon="17.891886225762">
        <ele>102</ele>
        <time>2015-02-17T19:02:03Z</time>
      </trkpt>
      <trkpt lat="59.18363701064" lon="17.891790588283">
        <ele>102.2</ele>
        <time>2015-02-17T19:02:04Z</time>
      </trkpt>
      <trkpt lat="59.183625108342" lon="17.89152848627">
        <ele>102.2</ele>
        <time>2015-02-17T19:02:07Z</time>
      </trkpt>
      <trkpt lat="59.183600214099" lon="17.891276358718">
        <ele>102</ele>
        <time>2015-02-17T19:02:10Z</time>
      </trkpt>
      <trkpt lat="59.183592502751" lon="17.891120958292">
        <ele>101.8</ele>
        <time>2015-02-17T19:02:12Z</time>
      </trkpt>
      <trkpt lat="59.183602561031" lon="17.890917613398">
        <ele>102</ele>
        <time>2015-02-17T19:02:15Z</time>
      </trkpt>
      <trkpt lat="59.183608679818" lon="17.890827507973">
        <ele>102.4</ele>
        <time>2015-02-17T19:02:17Z</time>
      </trkpt>
      <trkpt lat="59.183623180505" lon="17.890718459454">
        <ele>103.2</ele>
        <time>2015-02-17T19:02:19Z</time>
      </trkpt>
      <trkpt lat="59.183645727816" lon="17.890527603591">
        <ele>104.8</ele>
        <time>2015-02-17T19:02:22Z</time>
      </trkpt>
      <trkpt lat="59.183653942078" lon="17.890477982743">
        <ele>105</ele>
        <time>2015-02-17T19:02:23Z</time>
      </trkpt>
      <trkpt lat="59.18366131815" lon="17.890281511007">
        <ele>106</ele>
        <time>2015-02-17T19:02:26Z</time>
      </trkpt>
      <trkpt lat="59.183682775814" lon="17.890140024535">
        <ele>106.6</ele>
        <time>2015-02-17T19:02:28Z</time>
      </trkpt>
      <trkpt lat="59.183682021443" lon="17.889974565829">
        <ele>107</ele>
        <time>2015-02-17T19:02:31Z</time>
      </trkpt>
      <trkpt lat="59.183683865461" lon="17.889855542849">
        <ele>107.2</ele>
        <time>2015-02-17T19:02:33Z</time>
      </trkpt>
      <trkpt lat="59.18364287797" lon="17.889692682532">
        <ele>108</ele>
        <time>2015-02-17T19:02:37Z</time>
      </trkpt>
      <trkpt lat="59.183631059491" lon="17.889637948725">
        <ele>108.2</ele>
        <time>2015-02-17T19:02:38Z</time>
      </trkpt>
      <trkpt lat="59.183571715639" lon="17.889446087034">
        <ele>108.6</ele>
        <time>2015-02-17T19:02:42Z</time>
      </trkpt>
      <trkpt lat="59.18351128214" lon="17.889259757397">
        <ele>109.2</ele>
        <time>2015-02-17T19:02:46Z</time>
      </trkpt>
      <trkpt lat="59.183467444803" lon="17.889080720013">
        <ele>109.8</ele>
        <time>2015-02-17T19:02:50Z</time>
      </trkpt>
      <trkpt lat="59.183440119809" lon="17.888987345647">
        <ele>110.4</ele>
        <time>2015-02-17T19:02:52Z</time>
      </trkpt>
      <trkpt lat="59.18340315563" lon="17.888784587486">
        <ele>111.6</ele>
        <time>2015-02-17T19:02:56Z</time>
      </trkpt>
      <trkpt lat="59.183392678255" lon="17.888543356404">
        <ele>112.4</ele>
        <time>2015-02-17T19:03:01Z</time>
      </trkpt>
      <trkpt lat="59.183394522273" lon="17.888488119683">
        <ele>112.6</ele>
        <time>2015-02-17T19:03:02Z</time>
      </trkpt>
      <trkpt lat="59.183407095123" lon="17.888399942095">
        <ele>112.8</ele>
        <time>2015-02-17T19:03:05Z</time>
      </trkpt>
      <trkpt lat="59.183406424571" lon="17.888385609046">
        <ele>112.6</ele>
        <time>2015-02-17T19:03:06Z</time>
      </trkpt>
      <trkpt lat="59.183408352408" lon="17.888367420323">
        <ele>113</ele>
        <time>2015-02-17T19:03:10Z</time>
      </trkpt>
      <trkpt lat="59.183439113981" lon="17.887778843305">
        <ele>112.2</ele>
        <time>2015-02-17T19:04:26Z</time>
      </trkpt>
      <trkpt lat="59.183358312465" lon="17.887497295284">
        <ele>111.6</ele>
        <time>2015-02-17T19:04:30Z</time>
      </trkpt>
      <trkpt lat="59.183300644993" lon="17.887267212129">
        <ele>110.4</ele>
        <time>2015-02-17T19:04:33Z</time>
      </trkpt>
      <trkpt lat="59.183264770461" lon="17.887103429803">
        <ele>109.2</ele>
        <time>2015-02-17T19:04:34Z</time>
      </trkpt>
      <trkpt lat="59.183232751603" lon="17.886940904762">
        <ele>107.6</ele>
        <time>2015-02-17T19:04:35Z</time>
      </trkpt>
      <trkpt lat="59.183206097161" lon="17.886792209856">
        <ele>106</ele>
        <time>2015-02-17T19:04:36Z</time>
      </trkpt>
      <trkpt lat="59.1831793589" lon="17.886643682588">
        <ele>104.4</ele>
        <time>2015-02-17T19:04:37Z</time>
      </trkpt>
      <trkpt lat="59.183151195716" lon="17.886499681546">
        <ele>103.2</ele>
        <time>2015-02-17T19:04:38Z</time>
      </trkpt>
      <trkpt lat="59.183116327012" lon="17.886342520921">
        <ele>102</ele>
        <time>2015-02-17T19:04:39Z</time>
      </trkpt>
      <trkpt lat="59.183081206851" lon="17.886191395264">
        <ele>101.8</ele>
        <time>2015-02-17T19:04:40Z</time>
      </trkpt>
      <trkpt lat="59.18300166262" lon="17.885793674109">
        <ele>101.2</ele>
        <time>2015-02-17T19:04:43Z</time>
      </trkpt>
      <trkpt lat="59.182975762549" lon="17.885650008343">
        <ele>101.2</ele>
        <time>2015-02-17T19:04:44Z</time>
      </trkpt>
      <trkpt lat="59.182957070912" lon="17.885526291499">
        <ele>100.8</ele>
        <time>2015-02-17T19:04:45Z</time>
      </trkpt>
      <trkpt lat="59.182948605193" lon="17.885168552007">
        <ele>100.6</ele>
        <time>2015-02-17T19:04:48Z</time>
      </trkpt>
      <trkpt lat="59.182953131419" lon="17.885044164611">
        <ele>100.8</ele>
        <time>2015-02-17T19:04:49Z</time>
      </trkpt>
      <trkpt lat="59.18296645864" lon="17.88485481749">
        <ele>101</ele>
        <time>2015-02-17T19:04:51Z</time>
      </trkpt>
      <trkpt lat="59.182965452812" lon="17.884762281314">
        <ele>101</ele>
        <time>2015-02-17T19:04:52Z</time>
      </trkpt>
      <trkpt lat="59.183012056176" lon="17.884398925949">
        <ele>101.2</ele>
        <time>2015-02-17T19:04:56Z</time>
      </trkpt>
      <trkpt lat="59.18303519022" lon="17.884320471365">
        <ele>100.8</ele>
        <time>2015-02-17T19:04:57Z</time>
      </trkpt>
      <trkpt lat="59.183118087211" lon="17.884086867812">
        <ele>100.2</ele>
        <time>2015-02-17T19:05:00Z</time>
      </trkpt>
      <trkpt lat="59.183145328386" lon="17.884022997734">
        <ele>100</ele>
        <time>2015-02-17T19:05:01Z</time>
      </trkpt>
      <trkpt lat="59.183212132129" lon="17.883854773001">
        <ele>100.4</ele>
        <time>2015-02-17T19:05:04Z</time>
      </trkpt>
      <trkpt lat="59.183296202586" lon="17.883651260469">
        <ele>100.4</ele>
        <time>2015-02-17T19:05:07Z</time>
      </trkpt>
      <trkpt lat="59.183377590835" lon="17.883487645781">
        <ele>100.4</ele>
        <time>2015-02-17T19:05:10Z</time>
      </trkpt>
      <trkpt lat="59.183407933313" lon="17.883429223938">
        <ele>100.2</ele>
        <time>2015-02-17T19:05:11Z</time>
      </trkpt>
      <trkpt lat="59.18360180666" lon="17.88299487388">
        <ele>100.6</ele>
        <time>2015-02-17T19:05:17Z</time>
      </trkpt>
      <trkpt lat="59.183676070294" lon="17.882843329128">
        <ele>100.8</ele>
        <time>2015-02-17T19:05:19Z</time>
      </trkpt>
      <trkpt lat="59.183816634757" lon="17.88257661707">
        <ele>100.6</ele>
        <time>2015-02-17T19:05:23Z</time>
      </trkpt>
      <trkpt lat="59.183855694411" lon="17.882497324296">
        <ele>100.6</ele>
        <time>2015-02-17T19:05:24Z</time>
      </trkpt>
      <trkpt lat="59.183907410734" lon="17.882215189542">
        <ele>100.4</ele>
        <time>2015-02-17T19:05:27Z</time>
      </trkpt>
      <trkpt lat="59.183915876453" lon="17.882038163814">
        <ele>100.2</ele>
        <time>2015-02-17T19:05:29Z</time>
      </trkpt>
      <trkpt lat="59.183872961125" lon="17.881826772296">
        <ele>100</ele>
        <time>2015-02-17T19:05:32Z</time>
      </trkpt>
      <trkpt lat="59.183818143499" lon="17.881712275542">
        <ele>99.8</ele>
        <time>2015-02-17T19:05:34Z</time>
      </trkpt>
      <trkpt lat="59.183749914833" lon="17.88158000916">
        <ele>99.4</ele>
        <time>2015-02-17T19:05:36Z</time>
      </trkpt>
      <trkpt lat="59.183709765532" lon="17.881497195988">
        <ele>99.4</ele>
        <time>2015-02-17T19:05:37Z</time>
      </trkpt>
      <trkpt lat="59.183628796378" lon="17.881307765048">
        <ele>98</ele>
        <time>2015-02-17T19:05:39Z</time>
      </trkpt>
      <trkpt lat="59.183554616563" lon="17.881119423755">
        <ele>96</ele>
        <time>2015-02-17T19:05:41Z</time>
      </trkpt>
      <trkpt lat="59.183520586049" lon="17.881025043561">
        <ele>95</ele>
        <time>2015-02-17T19:05:42Z</time>
      </trkpt>
      <trkpt lat="59.183487645182" lon="17.880925298951">
        <ele>94.4</ele>
        <time>2015-02-17T19:05:43Z</time>
      </trkpt>
      <trkpt lat="59.183452776478" lon="17.880803677582">
        <ele>94.2</ele>
        <time>2015-02-17T19:05:44Z</time>
      </trkpt>
      <trkpt lat="59.183395109006" lon="17.880598237213">
        <ele>93.6</ele>
        <time>2015-02-17T19:05:46Z</time>
      </trkpt>
      <trkpt lat="59.183359485931" lon="17.880512658014">
        <ele>93.4</ele>
        <time>2015-02-17T19:05:47Z</time>
      </trkpt>
      <trkpt lat="59.183229398843" lon="17.880353569552">
        <ele>92.8</ele>
        <time>2015-02-17T19:05:50Z</time>
      </trkpt>
      <trkpt lat="59.183086655086" lon="17.880254495494">
        <ele>93</ele>
        <time>2015-02-17T19:05:53Z</time>
      </trkpt>
      <trkpt lat="59.182995376195" lon="17.880183919896">
        <ele>93.4</ele>
        <time>2015-02-17T19:05:55Z</time>
      </trkpt>
      <trkpt lat="59.18291029991" lon="17.880125078958">
        <ele>93.6</ele>
        <time>2015-02-17T19:05:57Z</time>
      </trkpt>
      <trkpt lat="59.182815835897" lon="17.88002013757">
        <ele>93.6</ele>
        <time>2015-02-17T19:05:59Z</time>
      </trkpt>
      <trkpt lat="59.182763784298" lon="17.879964565573">
        <ele>93.4</ele>
        <time>2015-02-17T19:06:00Z</time>
      </trkpt>
      <trkpt lat="59.182569240399" lon="17.879722244844">
        <ele>92.6</ele>
        <time>2015-02-17T19:06:04Z</time>
      </trkpt>
      <trkpt lat="59.182524481053" lon="17.879653932359">
        <ele>92.8</ele>
        <time>2015-02-17T19:06:05Z</time>
      </trkpt>
      <trkpt lat="59.182493384204" lon="17.879567682608">
        <ele>92.2</ele>
        <time>2015-02-17T19:06:06Z</time>
      </trkpt>
      <trkpt lat="59.182432447791" lon="17.879387220301">
        <ele>92</ele>
        <time>2015-02-17T19:06:08Z</time>
      </trkpt>
      <trkpt lat="59.182397579087" lon="17.879207512365">
        <ele>91.4</ele>
        <time>2015-02-17T19:06:10Z</time>
      </trkpt>
      <trkpt lat="59.182386012065" lon="17.879107097203">
        <ele>91</ele>
        <time>2015-02-17T19:06:11Z</time>
      </trkpt>
      <trkpt lat="59.182375786147" lon="17.87901430957">
        <ele>91</ele>
        <time>2015-02-17T19:06:12Z</time>
      </trkpt>
      <trkpt lat="59.182346617135" lon="17.878825549182">
        <ele>91.2</ele>
        <time>2015-02-17T19:06:14Z</time>
      </trkpt>
      <trkpt lat="59.182317783399" lon="17.878641147382">
        <ele>90.8</ele>
        <time>2015-02-17T19:06:16Z</time>
      </trkpt>
      <trkpt lat="59.182307725119" lon="17.878545593722">
        <ele>90.8</ele>
        <time>2015-02-17T19:06:17Z</time>
      </trkpt>
      <trkpt lat="59.182273024053" lon="17.878180394339">
        <ele>91.4</ele>
        <time>2015-02-17T19:06:21Z</time>
      </trkpt>
      <trkpt lat="59.18224812981" lon="17.877922399457">
        <ele>91.8</ele>
        <time>2015-02-17T19:06:24Z</time>
      </trkpt>
      <trkpt lat="59.182233629123" lon="17.877760712606">
        <ele>92.4</ele>
        <time>2015-02-17T19:06:26Z</time>
      </trkpt>
      <trkpt lat="59.182215272762" lon="17.877520152076">
        <ele>92.4</ele>
        <time>2015-02-17T19:06:29Z</time>
      </trkpt>
      <trkpt lat="59.182203538102" lon="17.877353436085">
        <ele>92.4</ele>
        <time>2015-02-17T19:06:31Z</time>
      </trkpt>
      <trkpt lat="59.182176464565" lon="17.877103823103">
        <ele>92</ele>
        <time>2015-02-17T19:06:34Z</time>
      </trkpt>
      <trkpt lat="59.182156515643" lon="17.876845995859">
        <ele>92</ele>
        <time>2015-02-17T19:06:37Z</time>
      </trkpt>
      <trkpt lat="59.182144780983" lon="17.876662599887">
        <ele>91.8</ele>
        <time>2015-02-17T19:06:39Z</time>
      </trkpt>
      <trkpt lat="59.182121646939" lon="17.876491022394">
        <ele>91.8</ele>
        <time>2015-02-17T19:06:41Z</time>
      </trkpt>
      <trkpt lat="59.182071020263" lon="17.876123643717">
        <ele>91.4</ele>
        <time>2015-02-17T19:06:45Z</time>
      </trkpt>
      <trkpt lat="59.182062973639" lon="17.876033370654">
        <ele>91.4</ele>
        <time>2015-02-17T19:06:46Z</time>
      </trkpt>
      <trkpt lat="59.182047886219" lon="17.875741261439">
        <ele>91.2</ele>
        <time>2015-02-17T19:06:49Z</time>
      </trkpt>
      <trkpt lat="59.18206624258" lon="17.875446386197">
        <ele>90.8</ele>
        <time>2015-02-17T19:06:52Z</time>
      </trkpt>
      <trkpt lat="59.182132794866" lon="17.875087976153">
        <ele>90.4</ele>
        <time>2015-02-17T19:06:56Z</time>
      </trkpt>
      <trkpt lat="59.182163556439" lon="17.874916063384">
        <ele>90.4</ele>
        <time>2015-02-17T19:06:58Z</time>
      </trkpt>
      <trkpt lat="59.182166741561" lon="17.874803410648">
        <ele>90</ele>
        <time>2015-02-17T19:06:59Z</time>
      </trkpt>
      <trkpt lat="59.182210746536" lon="17.874509205958">
        <ele>89.8</ele>
        <time>2015-02-17T19:07:02Z</time>
      </trkpt>
      <trkpt lat="59.182229857268" lon="17.874321954312">
        <ele>89</ele>
        <time>2015-02-17T19:07:04Z</time>
      </trkpt>
      <trkpt lat="59.182247710715" lon="17.873965639743">
        <ele>88</ele>
        <time>2015-02-17T19:07:07Z</time>
      </trkpt>
      <trkpt lat="59.182241843385" lon="17.873848712238">
        <ele>87.6</ele>
        <time>2015-02-17T19:07:08Z</time>
      </trkpt>
      <trkpt lat="59.182227594155" lon="17.873721642634">
        <ele>87.4</ele>
        <time>2015-02-17T19:07:09Z</time>
      </trkpt>
      <trkpt lat="59.18221460221" lon="17.873584263293">
        <ele>86.8</ele>
        <time>2015-02-17T19:07:10Z</time>
      </trkpt>
      <trkpt lat="59.182189540329" lon="17.873286873481">
        <ele>85.2</ele>
        <time>2015-02-17T19:07:12Z</time>
      </trkpt>
      <trkpt lat="59.182166154828" lon="17.872991746782">
        <ele>84</ele>
        <time>2015-02-17T19:07:14Z</time>
      </trkpt>
      <trkpt lat="59.182140170938" lon="17.87271028258">
        <ele>82.4</ele>
        <time>2015-02-17T19:07:16Z</time>
      </trkpt>
      <trkpt lat="59.182116953075" lon="17.872451365689">
        <ele>81.2</ele>
        <time>2015-02-17T19:07:18Z</time>
      </trkpt>
      <trkpt lat="59.182086610597" lon="17.872213738824">
        <ele>80.4</ele>
        <time>2015-02-17T19:07:20Z</time>
      </trkpt>
      <trkpt lat="59.182040342509" lon="17.872027325368">
        <ele>80</ele>
        <time>2015-02-17T19:07:22Z</time>
      </trkpt>
      <trkpt lat="59.181972030024" lon="17.87187293077">
        <ele>80</ele>
        <time>2015-02-17T19:07:24Z</time>
      </trkpt>
      <trkpt lat="59.181911345068" lon="17.871722308027">
        <ele>80.2</ele>
        <time>2015-02-17T19:07:26Z</time>
      </trkpt>
      <trkpt lat="59.181831297923" lon="17.87149239251">
        <ele>80.4</ele>
        <time>2015-02-17T19:07:29Z</time>
      </trkpt>
      <trkpt lat="59.181749322941" lon="17.871301620466">
        <ele>80.4</ele>
        <time>2015-02-17T19:07:32Z</time>
      </trkpt>
      <trkpt lat="59.181719315739" lon="17.871230122859">
        <ele>80.4</ele>
        <time>2015-02-17T19:07:33Z</time>
      </trkpt>
      <trkpt lat="59.181613787618" lon="17.870924015871">
        <ele>80.8</ele>
        <time>2015-02-17T19:07:37Z</time>
      </trkpt>
      <trkpt lat="59.181549666083" lon="17.870776159155">
        <ele>80.8</ele>
        <time>2015-02-17T19:07:39Z</time>
      </trkpt>
      <trkpt lat="59.181520916166" lon="17.870693429802">
        <ele>80.4</ele>
        <time>2015-02-17T19:07:40Z</time>
      </trkpt>
      <trkpt lat="59.181400300625" lon="17.870339294527">
        <ele>79.8</ele>
        <time>2015-02-17T19:07:44Z</time>
      </trkpt>
      <trkpt lat="59.181337687832" lon="17.870178026771">
        <ele>79.8</ele>
        <time>2015-02-17T19:07:46Z</time>
      </trkpt>
      <trkpt lat="59.181250432253" lon="17.869913494007">
        <ele>79</ele>
        <time>2015-02-17T19:07:49Z</time>
      </trkpt>
      <trkpt lat="59.181219167766" lon="17.869814671406">
        <ele>78.8</ele>
        <time>2015-02-17T19:07:50Z</time>
      </trkpt>
      <trkpt lat="59.181091595248" lon="17.869437737363">
        <ele>78.2</ele>
        <time>2015-02-17T19:07:54Z</time>
      </trkpt>
      <trkpt lat="59.18105957639" lon="17.869358612227">
        <ele>78</ele>
        <time>2015-02-17T19:07:55Z</time>
      </trkpt>
      <trkpt lat="59.181023366582" lon="17.869299603651">
        <ele>78.2</ele>
        <time>2015-02-17T19:07:56Z</time>
      </trkpt>
      <trkpt lat="59.180937284469" lon="17.86922676494">
        <ele>78</ele>
        <time>2015-02-17T19:07:58Z</time>
      </trkpt>
      <trkpt lat="59.180900068833" lon="17.869254509029">
        <ele>78.2</ele>
        <time>2015-02-17T19:07:59Z</time>
      </trkpt>
      <trkpt lat="59.180807784114" lon="17.869335981097">
        <ele>78.2</ele>
        <time>2015-02-17T19:08:01Z</time>
      </trkpt>
      <trkpt lat="59.180688593496" lon="17.869464978538">
        <ele>78.4</ele>
        <time>2015-02-17T19:08:04Z</time>
      </trkpt>
      <trkpt lat="59.180651545498" lon="17.869496326844">
        <ele>78.2</ele>
        <time>2015-02-17T19:08:05Z</time>
      </trkpt>
      <trkpt lat="59.180513160329" lon="17.869624234638">
        <ele>78.2</ele>
        <time>2015-02-17T19:08:09Z</time>
      </trkpt>
      <trkpt lat="59.18049631271" lon="17.869645524664">
        <ele>78</ele>
        <time>2015-02-17T19:08:10Z</time>
      </trkpt>
      <trkpt lat="59.180441495084" lon="17.86969698953">
        <ele>78</ele>
        <time>2015-02-17T19:08:12Z</time>
      </trkpt>
      <trkpt lat="59.180355077695" lon="17.869776366123">
        <ele>78.4</ele>
        <time>2015-02-17T19:08:15Z</time>
      </trkpt>
      <trkpt lat="59.180319789896" lon="17.869801847099">
        <ele>78.4</ele>
        <time>2015-02-17T19:08:16Z</time>
      </trkpt>
      <trkpt lat="59.180184086935" lon="17.86990150789">
        <ele>78.6</ele>
        <time>2015-02-17T19:08:20Z</time>
      </trkpt>
      <trkpt lat="59.180031368717" lon="17.870000581948">
        <ele>78.4</ele>
        <time>2015-02-17T19:08:24Z</time>
      </trkpt>
      <trkpt lat="59.179987279923" lon="17.870024805639">
        <ele>78.2</ele>
        <time>2015-02-17T19:08:25Z</time>
      </trkpt>
      <trkpt lat="59.179841770139" lon="17.870087502251">
        <ele>79</ele>
        <time>2015-02-17T19:08:29Z</time>
      </trkpt>
      <trkpt lat="59.179688465188" lon="17.870052801185">
        <ele>79</ele>
        <time>2015-02-17T19:08:33Z</time>
      </trkpt>
      <trkpt lat="59.179656697787" lon="17.870014160626">
        <ele>79.2</ele>
        <time>2015-02-17T19:08:34Z</time>
      </trkpt>
      <trkpt lat="59.179557288453" lon="17.869943920304">
        <ele>79.8</ele>
        <time>2015-02-17T19:08:37Z</time>
      </trkpt>
      <trkpt lat="59.179529963459" lon="17.869921875907">
        <ele>79.8</ele>
        <time>2015-02-17T19:08:38Z</time>
      </trkpt>
      <trkpt lat="59.179433403971" lon="17.869883486805">
        <ele>81</ele>
        <time>2015-02-17T19:08:41Z</time>
      </trkpt>
      <trkpt lat="59.179261910297" lon="17.86988306771">
        <ele>81.2</ele>
        <time>2015-02-17T19:08:45Z</time>
      </trkpt>
      <trkpt lat="59.179108521527" lon="17.869766140205">
        <ele>81.6</ele>
        <time>2015-02-17T19:08:49Z</time>
      </trkpt>
      <trkpt lat="59.178990336737" lon="17.869710819665">
        <ele>81.6</ele>
        <time>2015-02-17T19:08:52Z</time>
      </trkpt>
      <trkpt lat="59.178946247943" lon="17.869695564607">
        <ele>81.8</ele>
        <time>2015-02-17T19:08:53Z</time>
      </trkpt>
      <trkpt lat="59.178896291819" lon="17.869685757784">
        <ele>82.2</ele>
        <time>2015-02-17T19:08:54Z</time>
      </trkpt>
      <trkpt lat="59.178707866707" lon="17.869652733098">
        <ele>82.6</ele>
        <time>2015-02-17T19:08:58Z</time>
      </trkpt>
      <trkpt lat="59.178650199235" lon="17.869551815022">
        <ele>82.6</ele>
        <time>2015-02-17T19:09:00Z</time>
      </trkpt>
      <trkpt lat="59.178572582841" lon="17.869442934141">
        <ele>82.6</ele>
        <time>2015-02-17T19:09:03Z</time>
      </trkpt>
      <trkpt lat="59.178472251498" lon="17.869275631417">
        <ele>83.2</ele>
        <time>2015-02-17T19:09:07Z</time>
      </trkpt>
      <trkpt lat="59.178468228186" lon="17.869210084959">
        <ele>83.4</ele>
        <time>2015-02-17T19:09:08Z</time>
      </trkpt>
      <trkpt lat="59.178445345599" lon="17.869116626774">
        <ele>83.8</ele>
        <time>2015-02-17T19:09:10Z</time>
      </trkpt>
      <trkpt lat="59.178353647613" lon="17.868955945751">
        <ele>83.6</ele>
        <time>2015-02-17T19:09:15Z</time>
      </trkpt>
      <trkpt lat="59.178286508594" lon="17.868876569158">
        <ele>83.8</ele>
        <time>2015-02-17T19:09:17Z</time>
      </trkpt>
      <trkpt lat="59.178174274953" lon="17.868783027154">
        <ele>84.2</ele>
        <time>2015-02-17T19:09:21Z</time>
      </trkpt>
      <trkpt lat="59.178145776493" lon="17.868763916422">
        <ele>84.4</ele>
        <time>2015-02-17T19:09:22Z</time>
      </trkpt>
      <trkpt lat="59.178127923046" lon="17.868736675247">
        <ele>84.4</ele>
        <time>2015-02-17T19:09:23Z</time>
      </trkpt>
      <trkpt lat="59.178077966922" lon="17.868659729405">
        <ele>84.8</ele>
        <time>2015-02-17T19:09:26Z</time>
      </trkpt>
      <trkpt lat="59.177986101298" lon="17.868601810476">
        <ele>85.4</ele>
        <time>2015-02-17T19:09:29Z</time>
      </trkpt>
      <trkpt lat="59.17790043828" lon="17.868545735565">
        <ele>86</ele>
        <time>2015-02-17T19:09:32Z</time>
      </trkpt>
      <trkpt lat="59.177833047804" lon="17.868461748927">
        <ele>86.6</ele>
        <time>2015-02-17T19:09:35Z</time>
      </trkpt>
      <trkpt lat="59.17781326652" lon="17.86844389548">
        <ele>86.6</ele>
        <time>2015-02-17T19:09:36Z</time>
      </trkpt>
      <trkpt lat="59.177789881019" lon="17.868425539119">
        <ele>86.8</ele>
        <time>2015-02-17T19:09:37Z</time>
      </trkpt>
      <trkpt lat="59.177702793078" lon="17.868404668188">
        <ele>87.4</ele>
        <time>2015-02-17T19:09:41Z</time>
      </trkpt>
      <trkpt lat="59.177681838328" lon="17.868417995409">
        <ele>87.6</ele>
        <time>2015-02-17T19:09:42Z</time>
      </trkpt>
      <trkpt lat="59.177564827004" lon="17.868506592092">
        <ele>87.8</ele>
        <time>2015-02-17T19:09:46Z</time>
      </trkpt>
      <trkpt lat="59.177514954699" lon="17.868506172997">
        <ele>88.2</ele>
        <time>2015-02-17T19:09:50Z</time>
      </trkpt>
      <trkpt lat="59.177475308312" lon="17.868511956508">
        <ele>88.8</ele>
        <time>2015-02-17T19:09:52Z</time>
      </trkpt>
      <trkpt lat="59.177389561475" lon="17.868549339782">
        <ele>89.4</ele>
        <time>2015-02-17T19:09:55Z</time>
      </trkpt>
      <trkpt lat="59.177307418855" lon="17.86867439773">
        <ele>89.6</ele>
        <time>2015-02-17T19:09:58Z</time>
      </trkpt>
      <trkpt lat="59.17721815162" lon="17.868744218957">
        <ele>89.2</ele>
        <time>2015-02-17T19:10:00Z</time>
      </trkpt>
      <trkpt lat="59.177106504712" lon="17.868852848381">
        <ele>88.4</ele>
        <time>2015-02-17T19:10:04Z</time>
      </trkpt>
      <trkpt lat="59.176979686565" lon="17.868963489461">
        <ele>88</ele>
        <time>2015-02-17T19:10:08Z</time>
      </trkpt>
      <trkpt lat="59.176858987205" lon="17.869117716421">
        <ele>88.2</ele>
        <time>2015-02-17T19:10:12Z</time>
      </trkpt>
      <trkpt lat="59.176737617293" lon="17.8692720272">
        <ele>89.8</ele>
        <time>2015-02-17T19:10:17Z</time>
      </trkpt>
      <trkpt lat="59.176711633403" lon="17.869299352194">
        <ele>90</ele>
        <time>2015-02-17T19:10:18Z</time>
      </trkpt>
      <trkpt lat="59.176633597914" lon="17.8693390824">
        <ele>91</ele>
        <time>2015-02-17T19:10:21Z</time>
      </trkpt>
      <trkpt lat="59.176604345083" lon="17.869335562002">
        <ele>91.2</ele>
        <time>2015-02-17T19:10:22Z</time>
      </trkpt>
      <trkpt lat="59.17647886804" lon="17.869322402419">
        <ele>91.6</ele>
        <time>2015-02-17T19:10:26Z</time>
      </trkpt>
      <trkpt lat="59.176420110921" lon="17.869324162618">
        <ele>91.6</ele>
        <time>2015-02-17T19:10:28Z</time>
      </trkpt>
      <trkpt lat="59.176300752665" lon="17.869353163992">
        <ele>91.6</ele>
        <time>2015-02-17T19:10:31Z</time>
      </trkpt>
      <trkpt lat="59.17607486046" lon="17.869323659704">
        <ele>91.2</ele>
        <time>2015-02-17T19:10:36Z</time>
      </trkpt>
      <trkpt lat="59.176029933476" lon="17.869311841225">
        <ele>91.2</ele>
        <time>2015-02-17T19:10:37Z</time>
      </trkpt>
      <trkpt lat="59.175947707037" lon="17.86926699806">
        <ele>91.4</ele>
        <time>2015-02-17T19:10:39Z</time>
      </trkpt>
      <trkpt lat="59.175840083441" lon="17.869181251223">
        <ele>91.8</ele>
        <time>2015-02-17T19:10:42Z</time>
      </trkpt>
      <trkpt lat="59.175767160911" lon="17.869127104149">
        <ele>91.4</ele>
        <time>2015-02-17T19:10:44Z</time>
      </trkpt>
      <trkpt lat="59.175652496519" lon="17.869031299032">
        <ele>91.6</ele>
        <time>2015-02-17T19:10:47Z</time>
      </trkpt>
      <trkpt lat="59.175533473539" lon="17.868905151437">
        <ele>91.4</ele>
        <time>2015-02-17T19:10:50Z</time>
      </trkpt>
      <trkpt lat="59.175478739732" lon="17.868859889177">
        <ele>91.8</ele>
        <time>2015-02-17T19:10:51Z</time>
      </trkpt>
      <trkpt lat="59.175326775885" lon="17.868723096569">
        <ele>90.8</ele>
        <time>2015-02-17T19:10:55Z</time>
      </trkpt>
      <trkpt lat="59.175163328835" lon="17.868678085766">
        <ele>91.4</ele>
        <time>2015-02-17T19:10:59Z</time>
      </trkpt>
      <trkpt lat="59.175053023031" lon="17.868687222037">
        <ele>91.8</ele>
        <time>2015-02-17T19:11:02Z</time>
      </trkpt>
      <trkpt lat="59.175016058852" lon="17.868704237294">
        <ele>91.8</ele>
        <time>2015-02-17T19:11:03Z</time>
      </trkpt>
      <trkpt lat="59.174846744472" lon="17.868714127936">
        <ele>91.4</ele>
        <time>2015-02-17T19:11:08Z</time>
      </trkpt>
      <trkpt lat="59.174808942103" lon="17.868694933385">
        <ele>91.8</ele>
        <time>2015-02-17T19:11:09Z</time>
      </trkpt>
      <trkpt lat="59.174728643501" lon="17.868691915901">
        <ele>91.8</ele>
        <time>2015-02-17T19:11:12Z</time>
      </trkpt>
      <trkpt lat="59.174703246344" lon="17.868697950869">
        <ele>91.8</ele>
        <time>2015-02-17T19:11:13Z</time>
      </trkpt>
      <trkpt lat="59.174628228339" lon="17.86870541076">
        <ele>92.4</ele>
        <time>2015-02-17T19:11:16Z</time>
      </trkpt>
      <trkpt lat="59.174609201426" lon="17.868700046344">
        <ele>92.6</ele>
        <time>2015-02-17T19:11:17Z</time>
      </trkpt>
      <trkpt lat="59.174470313343" lon="17.868769448476">
        <ele>92.8</ele>
        <time>2015-02-17T19:11:22Z</time>
      </trkpt>
      <trkpt lat="59.174301753334" lon="17.868874473683">
        <ele>93.4</ele>
        <time>2015-02-17T19:11:27Z</time>
      </trkpt>
      <trkpt lat="59.174215503583" lon="17.86890406179">
        <ele>93.4</ele>
        <time>2015-02-17T19:11:30Z</time>
      </trkpt>
      <trkpt lat="59.174091619101" lon="17.868943372901">
        <ele>93.6</ele>
        <time>2015-02-17T19:11:34Z</time>
      </trkpt>
      <trkpt lat="59.173896991383" lon="17.869077148025">
        <ele>93.6</ele>
        <time>2015-02-17T19:11:39Z</time>
      </trkpt>
      <trkpt lat="59.173722983139" lon="17.869249647527">
        <ele>94.4</ele>
        <time>2015-02-17T19:11:44Z</time>
      </trkpt>
      <trkpt lat="59.173699010905" lon="17.869262220377">
        <ele>94.4</ele>
        <time>2015-02-17T19:11:45Z</time>
      </trkpt>
      <trkpt lat="59.173608318747" lon="17.869305973895">
        <ele>94.4</ele>
        <time>2015-02-17T19:11:48Z</time>
      </trkpt>
      <trkpt lat="59.173422575843" lon="17.869393732388">
        <ele>94.4</ele>
        <time>2015-02-17T19:11:53Z</time>
      </trkpt>
      <trkpt lat="59.173365076009" lon="17.869417453165">
        <ele>94.2</ele>
        <time>2015-02-17T19:11:54Z</time>
      </trkpt>
      <trkpt lat="59.173284358312" lon="17.869500936889">
        <ele>93.4</ele>
        <time>2015-02-17T19:11:56Z</time>
      </trkpt>
      <trkpt lat="59.173250579255" lon="17.869591126133">
        <ele>93.2</ele>
        <time>2015-02-17T19:11:58Z</time>
      </trkpt>
      <trkpt lat="59.173152678663" lon="17.869777539589">
        <ele>93.6</ele>
        <time>2015-02-17T19:12:02Z</time>
      </trkpt>
      <trkpt lat="59.173061483591" lon="17.869925563943">
        <ele>94.6</ele>
        <time>2015-02-17T19:12:06Z</time>
      </trkpt>
      <trkpt lat="59.17300876144" lon="17.869994379342">
        <ele>95</ele>
        <time>2015-02-17T19:12:08Z</time>
      </trkpt>
      <trkpt lat="59.172932318512" lon="17.870099236911">
        <ele>95.6</ele>
        <time>2015-02-17T19:12:11Z</time>
      </trkpt>
      <trkpt lat="59.172855791765" lon="17.870194455295">
        <ele>96.2</ele>
        <time>2015-02-17T19:12:15Z</time>
      </trkpt>
      <trkpt lat="59.172840369069" lon="17.870220690642">
        <ele>96.4</ele>
        <time>2015-02-17T19:12:17Z</time>
      </trkpt>
      <trkpt lat="59.172789658574" lon="17.870296043923">
        <ele>97.4</ele>
        <time>2015-02-17T19:12:19Z</time>
      </trkpt>
      <trkpt lat="59.172739953907" lon="17.870347257332">
        <ele>98.6</ele>
        <time>2015-02-17T19:12:21Z</time>
      </trkpt>
      <trkpt lat="59.172642304772" lon="17.870498885903">
        <ele>99.6</ele>
        <time>2015-02-17T19:12:24Z</time>
      </trkpt>
      <trkpt lat="59.172537866298" lon="17.870620842548">
        <ele>100.4</ele>
        <time>2015-02-17T19:12:27Z</time>
      </trkpt>
      <trkpt lat="59.172494448056" lon="17.87063911509">
        <ele>100.4</ele>
        <time>2015-02-17T19:12:28Z</time>
      </trkpt>
      <trkpt lat="59.172325804228" lon="17.870785379245">
        <ele>98.8</ele>
        <time>2015-02-17T19:12:31Z</time>
      </trkpt>
      <trkpt lat="59.172224467057" lon="17.870921249844">
        <ele>97.2</ele>
        <time>2015-02-17T19:12:33Z</time>
      </trkpt>
      <trkpt lat="59.172176187313" lon="17.871000794075">
        <ele>96.6</ele>
        <time>2015-02-17T19:12:34Z</time>
      </trkpt>
      <trkpt lat="59.172125560637" lon="17.871107495662">
        <ele>96</ele>
        <time>2015-02-17T19:12:35Z</time>
      </trkpt>
      <trkpt lat="59.172069569545" lon="17.871220902769">
        <ele>95.4</ele>
        <time>2015-02-17T19:12:36Z</time>
      </trkpt>
      <trkpt lat="59.171987343106" lon="17.871416368677">
        <ele>95.2</ele>
        <time>2015-02-17T19:12:38Z</time>
      </trkpt>
      <trkpt lat="59.171883407546" lon="17.871687858418">
        <ele>95.2</ele>
        <time>2015-02-17T19:12:41Z</time>
      </trkpt>
      <trkpt lat="59.171808976274" lon="17.871806546122">
        <ele>95.2</ele>
        <time>2015-02-17T19:12:43Z</time>
      </trkpt>
      <trkpt lat="59.171710824225" lon="17.871963203833">
        <ele>96</ele>
        <time>2015-02-17T19:12:45Z</time>
      </trkpt>
      <trkpt lat="59.171600686059" lon="17.872224719113">
        <ele>95.6</ele>
        <time>2015-02-17T19:12:48Z</time>
      </trkpt>
      <trkpt lat="59.171502198734" lon="17.872403840316">
        <ele>94.4</ele>
        <time>2015-02-17T19:12:50Z</time>
      </trkpt>
      <trkpt lat="59.171385438867" lon="17.87257617218">
        <ele>93.4</ele>
        <time>2015-02-17T19:12:52Z</time>
      </trkpt>
      <trkpt lat="59.171346546851" lon="17.872642724466">
        <ele>93.2</ele>
        <time>2015-02-17T19:12:53Z</time>
      </trkpt>
      <trkpt lat="59.171221907998" lon="17.872809859552">
        <ele>93.6</ele>
        <time>2015-02-17T19:12:56Z</time>
      </trkpt>
      <trkpt lat="59.171180501412" lon="17.872867191748">
        <ele>94.2</ele>
        <time>2015-02-17T19:12:57Z</time>
      </trkpt>
      <trkpt lat="59.171065585563" lon="17.873048827521">
        <ele>94.4</ele>
        <time>2015-02-17T19:13:00Z</time>
      </trkpt>
      <trkpt lat="59.171030800678" lon="17.873109680115">
        <ele>94.4</ele>
        <time>2015-02-17T19:13:01Z</time>
      </trkpt>
      <trkpt lat="59.17093424119" lon="17.873261560143">
        <ele>93.6</ele>
        <time>2015-02-17T19:13:04Z</time>
      </trkpt>
      <trkpt lat="59.170907922024" lon="17.873298272865">
        <ele>93.4</ele>
        <time>2015-02-17T19:13:05Z</time>
      </trkpt>
      <trkpt lat="59.17079510165" lon="17.873436322758">
        <ele>94.6</ele>
        <time>2015-02-17T19:13:10Z</time>
      </trkpt>
      <trkpt lat="59.17074229568" lon="17.873547550571">
        <ele>95.4</ele>
        <time>2015-02-17T19:13:13Z</time>
      </trkpt>
      <trkpt lat="59.170696781963" lon="17.873653078692">
        <ele>95.6</ele>
        <time>2015-02-17T19:13:15Z</time>
      </trkpt>
      <trkpt lat="59.170584967417" lon="17.873716194399">
        <ele>95.4</ele>
        <time>2015-02-17T19:13:18Z</time>
      </trkpt>
      <trkpt lat="59.170518247493" lon="17.873689539957">
        <ele>95.2</ele>
        <time>2015-02-17T19:13:20Z</time>
      </trkpt>
      <trkpt lat="59.170473991061" lon="17.873635979616">
        <ele>95.2</ele>
        <time>2015-02-17T19:13:22Z</time>
      </trkpt>
      <trkpt lat="59.170356225366" lon="17.873553836996">
        <ele>96</ele>
        <time>2015-02-17T19:13:27Z</time>
      </trkpt>
      <trkpt lat="59.170331917856" lon="17.873529110391">
        <ele>96.4</ele>
        <time>2015-02-17T19:13:28Z</time>
      </trkpt>
      <trkpt lat="59.170200657302" lon="17.873446967771">
        <ele>96.4</ele>
        <time>2015-02-17T19:13:32Z</time>
      </trkpt>
      <trkpt lat="59.170056572441" lon="17.873368848463">
        <ele>96</ele>
        <time>2015-02-17T19:13:36Z</time>
      </trkpt>
      <trkpt lat="59.169908548087" lon="17.873258542659">
        <ele>97.2</ele>
        <time>2015-02-17T19:13:41Z</time>
      </trkpt>
      <trkpt lat="59.169730348893" lon="17.873147314846">
        <ele>97</ele>
        <time>2015-02-17T19:13:46Z</time>
      </trkpt>
      <trkpt lat="59.169539912125" lon="17.873029130056">
        <ele>96.6</ele>
        <time>2015-02-17T19:13:51Z</time>
      </trkpt>
      <trkpt lat="59.169403203336" lon="17.872855373269">
        <ele>97</ele>
        <time>2015-02-17T19:13:55Z</time>
      </trkpt>
      <trkpt lat="59.169364814234" lon="17.872823354411">
        <ele>97</ele>
        <time>2015-02-17T19:13:56Z</time>
      </trkpt>
      <trkpt lat="59.169258783199" lon="17.872778678884">
        <ele>97.2</ele>
        <time>2015-02-17T19:13:59Z</time>
      </trkpt>
      <trkpt lat="59.16919751151" lon="17.872744564551">
        <ele>97.6</ele>
        <time>2015-02-17T19:14:02Z</time>
      </trkpt>
      <trkpt lat="59.169181166805" lon="17.872748168768">
        <ele>98</ele>
        <time>2015-02-17T19:14:03Z</time>
      </trkpt>
      <trkpt lat="59.169161636978" lon="17.872757891772">
        <ele>98.4</ele>
        <time>2015-02-17T19:14:04Z</time>
      </trkpt>
      <trkpt lat="59.169141017504" lon="17.872761831265">
        <ele>99</ele>
        <time>2015-02-17T19:14:05Z</time>
      </trkpt>
      <trkpt lat="59.169103047497" lon="17.87277230864">
        <ele>100.2</ele>
        <time>2015-02-17T19:14:07Z</time>
      </trkpt>
      <trkpt lat="59.169084439679" lon="17.872778511246">
        <ele>100.4</ele>
        <time>2015-02-17T19:14:08Z</time>
      </trkpt>
      <trkpt lat="59.169061976187" lon="17.872785132947">
        <ele>100.8</ele>
        <time>2015-02-17T19:14:09Z</time>
      </trkpt>
      <trkpt lat="59.169033142451" lon="17.872796532331">
        <ele>101.2</ele>
        <time>2015-02-17T19:14:10Z</time>
      </trkpt>
      <trkpt lat="59.168964159414" lon="17.872818241452">
        <ele>101.8</ele>
        <time>2015-02-17T19:14:13Z</time>
      </trkpt>
      <trkpt lat="59.16884714809" lon="17.87280499805">
        <ele>102.2</ele>
        <time>2015-02-17T19:14:18Z</time>
      </trkpt>
      <trkpt lat="59.16882535515" lon="17.872805920059">
        <ele>102.4</ele>
        <time>2015-02-17T19:14:19Z</time>
      </trkpt>
      <trkpt lat="59.168803813667" lon="17.872791251734">
        <ele>102.6</ele>
        <time>2015-02-17T19:14:20Z</time>
      </trkpt>
      <trkpt lat="59.168737848114" lon="17.872710617856">
        <ele>103.6</ele>
        <time>2015-02-17T19:14:23Z</time>
      </trkpt>
      <trkpt lat="59.168630140699" lon="17.872558318733">
        <ele>104</ele>
        <time>2015-02-17T19:14:27Z</time>
      </trkpt>
      <trkpt lat="59.16857976548" lon="17.872477684855">
        <ele>103.8</ele>
        <time>2015-02-17T19:14:29Z</time>
      </trkpt>
      <trkpt lat="59.16849678467" lon="17.87242110703">
        <ele>103.6</ele>
        <time>2015-02-17T19:14:32Z</time>
      </trkpt>
      <trkpt lat="59.168294361785" lon="17.872309795398">
        <ele>102.8</ele>
        <time>2015-02-17T19:14:38Z</time>
      </trkpt>
      <trkpt lat="59.168193611347" lon="17.87221826505">
        <ele>103</ele>
        <time>2015-02-17T19:14:41Z</time>
      </trkpt>
      <trkpt lat="59.168168381828" lon="17.872187168201">
        <ele>103.2</ele>
        <time>2015-02-17T19:14:42Z</time>
      </trkpt>
      <trkpt lat="59.168047347192" lon="17.872003604591">
        <ele>103.8</ele>
        <time>2015-02-17T19:14:47Z</time>
      </trkpt>
      <trkpt lat="59.167923211253" lon="17.871947948775">
        <ele>104.2</ele>
        <time>2015-02-17T19:14:51Z</time>
      </trkpt>
      <trkpt lat="59.167866884885" lon="17.871917271021">
        <ele>104.6</ele>
        <time>2015-02-17T19:14:53Z</time>
      </trkpt>
      <trkpt lat="59.167816509666" lon="17.871893466425">
        <ele>104.8</ele>
        <time>2015-02-17T19:14:55Z</time>
      </trkpt>
      <trkpt lat="59.167796644563" lon="17.871879049557">
        <ele>105</ele>
        <time>2015-02-17T19:14:56Z</time>
      </trkpt>
      <trkpt lat="59.167764625705" lon="17.871843677939">
        <ele>105.2</ele>
        <time>2015-02-17T19:14:59Z</time>
      </trkpt>
      <trkpt lat="59.167743000403" lon="17.871841331007">
        <ele>105</ele>
        <time>2015-02-17T19:15:00Z</time>
      </trkpt>
      <trkpt lat="59.167688098958" lon="17.871811407624">
        <ele>105.4</ele>
        <time>2015-02-17T19:15:03Z</time>
      </trkpt>
      <trkpt lat="59.16767032933" lon="17.871808893054">
        <ele>105.8</ele>
        <time>2015-02-17T19:15:04Z</time>
      </trkpt>
      <trkpt lat="59.167621965767" lon="17.871825489216">
        <ele>107</ele>
        <time>2015-02-17T19:15:07Z</time>
      </trkpt>
      <trkpt lat="59.167578296068" lon="17.87184778507">
        <ele>107.8</ele>
        <time>2015-02-17T19:15:09Z</time>
      </trkpt>
      <trkpt lat="59.167551390169" lon="17.871865806155">
        <ele>108.2</ele>
        <time>2015-02-17T19:15:10Z</time>
      </trkpt>
      <trkpt lat="59.167506211728" lon="17.871918779763">
        <ele>108.8</ele>
        <time>2015-02-17T19:15:12Z</time>
      </trkpt>
      <trkpt lat="59.167471343024" lon="17.871976614873">
        <ele>109.4</ele>
        <time>2015-02-17T19:15:14Z</time>
      </trkpt>
      <trkpt lat="59.167369754396" lon="17.872061020606">
        <ele>110.2</ele>
        <time>2015-02-17T19:15:18Z</time>
      </trkpt>
      <trkpt lat="59.167341255936" lon="17.872080047519">
        <ele>110.6</ele>
        <time>2015-02-17T19:15:19Z</time>
      </trkpt>
      <trkpt lat="59.167242684792" lon="17.87208080189">
        <ele>111</ele>
        <time>2015-02-17T19:15:22Z</time>
      </trkpt>
      <trkpt lat="59.167121901613" lon="17.872050710869">
        <ele>111.8</ele>
        <time>2015-02-17T19:15:26Z</time>
      </trkpt>
      <trkpt lat="59.16706515615" lon="17.872037551286">
        <ele>112.6</ele>
        <time>2015-02-17T19:15:28Z</time>
      </trkpt>
      <trkpt lat="59.167034226939" lon="17.872029420843">
        <ele>113</ele>
        <time>2015-02-17T19:15:29Z</time>
      </trkpt>
      <trkpt lat="59.166946803722" lon="17.872023888789">
        <ele>113.6</ele>
        <time>2015-02-17T19:15:32Z</time>
      </trkpt>
      <trkpt lat="59.166822248688" lon="17.87193663321">
        <ele>113.6</ele>
        <time>2015-02-17T19:15:36Z</time>
      </trkpt>
      <trkpt lat="59.166714038359" lon="17.871930179147">
        <ele>114.2</ele>
        <time>2015-02-17T19:15:40Z</time>
      </trkpt>
      <trkpt lat="59.166688557383" lon="17.871943674006">
        <ele>114.4</ele>
        <time>2015-02-17T19:15:41Z</time>
      </trkpt>
      <trkpt lat="59.166599625424" lon="17.872040987865">
        <ele>115.2</ele>
        <time>2015-02-17T19:15:45Z</time>
      </trkpt>
      <trkpt lat="59.166575150276" lon="17.872062948443">
        <ele>115.6</ele>
        <time>2015-02-17T19:15:46Z</time>
      </trkpt>
      <trkpt lat="59.166485463946" lon="17.872169147116">
        <ele>116.6</ele>
        <time>2015-02-17T19:15:49Z</time>
      </trkpt>
      <trkpt lat="59.166455372925" lon="17.872218684145">
        <ele>117</ele>
        <time>2015-02-17T19:15:50Z</time>
      </trkpt>
      <trkpt lat="59.166295613911" lon="17.872381544462">
        <ele>117.4</ele>
        <time>2015-02-17T19:15:54Z</time>
      </trkpt>
      <trkpt lat="59.166244735778" lon="17.872405935791">
        <ele>117.4</ele>
        <time>2015-02-17T19:15:55Z</time>
      </trkpt>
      <trkpt lat="59.166195617844" lon="17.872436362088">
        <ele>117.6</ele>
        <time>2015-02-17T19:15:56Z</time>
      </trkpt>
      <trkpt lat="59.166112385577" lon="17.872477014303">
        <ele>118.4</ele>
        <time>2015-02-17T19:15:58Z</time>
      </trkpt>
      <trkpt lat="59.166043737816" lon="17.872489754791">
        <ele>118.6</ele>
        <time>2015-02-17T19:16:00Z</time>
      </trkpt>
      <trkpt lat="59.166008869112" lon="17.872494616293">
        <ele>118.8</ele>
        <time>2015-02-17T19:16:01Z</time>
      </trkpt>
      <trkpt lat="59.165978610453" lon="17.872497801415">
        <ele>119</ele>
        <time>2015-02-17T19:16:02Z</time>
      </trkpt>
      <trkpt lat="59.165956733694" lon="17.872502998193">
        <ele>119</ele>
        <time>2015-02-17T19:16:03Z</time>
      </trkpt>
      <trkpt lat="59.165896467833" lon="17.872522192744">
        <ele>119.4</ele>
        <time>2015-02-17T19:16:05Z</time>
      </trkpt>
      <trkpt lat="59.16582798771" lon="17.872512134464">
        <ele>120.2</ele>
        <time>2015-02-17T19:16:07Z</time>
      </trkpt>
      <trkpt lat="59.165769984962" lon="17.872551277937">
        <ele>121.2</ele>
        <time>2015-02-17T19:16:09Z</time>
      </trkpt>
      <trkpt lat="59.165738888113" lon="17.872572567963">
        <ele>121.6</ele>
        <time>2015-02-17T19:16:10Z</time>
      </trkpt>
      <trkpt lat="59.165713658594" lon="17.872592349247">
        <ele>121.8</ele>
        <time>2015-02-17T19:16:11Z</time>
      </trkpt>
      <trkpt lat="59.165631264517" lon="17.872646663959">
        <ele>122</ele>
        <time>2015-02-17T19:16:14Z</time>
      </trkpt>
      <trkpt lat="59.165485922371" lon="17.87268513688">
        <ele>122.8</ele>
        <time>2015-02-17T19:16:18Z</time>
      </trkpt>
      <trkpt lat="59.16544242031" lon="17.872694692246">
        <ele>123</ele>
        <time>2015-02-17T19:16:19Z</time>
      </trkpt>
      <trkpt lat="59.165271513369" lon="17.87271866448">
        <ele>123.6</ele>
        <time>2015-02-17T19:16:24Z</time>
      </trkpt>
      <trkpt lat="59.165187359093" lon="17.872740122144">
        <ele>124</ele>
        <time>2015-02-17T19:16:26Z</time>
      </trkpt>
      <trkpt lat="59.165057858738" lon="17.87274967751">
        <ele>124.2</ele>
        <time>2015-02-17T19:16:29Z</time>
      </trkpt>
      <trkpt lat="59.164881922657" lon="17.872679940102">
        <ele>123.4</ele>
        <time>2015-02-17T19:16:32Z</time>
      </trkpt>
      <trkpt lat="59.164824087547" lon="17.872655548773">
        <ele>122.6</ele>
        <time>2015-02-17T19:16:33Z</time>
      </trkpt>
      <trkpt lat="59.164752254664" lon="17.872642808285">
        <ele>121.8</ele>
        <time>2015-02-17T19:16:34Z</time>
      </trkpt>
      <trkpt lat="59.16469056388" lon="17.872652112194">
        <ele>121.4</ele>
        <time>2015-02-17T19:16:35Z</time>
      </trkpt>
      <trkpt lat="59.164633650779" lon="17.872664265949">
        <ele>121.2</ele>
        <time>2015-02-17T19:16:36Z</time>
      </trkpt>
      <trkpt lat="59.164580174257" lon="17.872682538491">
        <ele>120.8</ele>
        <time>2015-02-17T19:16:37Z</time>
      </trkpt>
      <trkpt lat="59.164433071912" lon="17.872812457941">
        <ele>121.2</ele>
        <time>2015-02-17T19:16:40Z</time>
      </trkpt>
      <trkpt lat="59.164317317873" lon="17.873046145313">
        <ele>120.8</ele>
        <time>2015-02-17T19:16:43Z</time>
      </trkpt>
      <trkpt lat="59.164255291813" lon="17.873206910155">
        <ele>120.8</ele>
        <time>2015-02-17T19:16:45Z</time>
      </trkpt>
      <trkpt lat="59.164189577717" lon="17.873350073007">
        <ele>120.6</ele>
        <time>2015-02-17T19:16:47Z</time>
      </trkpt>
      <trkpt lat="59.16415160771" lon="17.873421319157">
        <ele>120</ele>
        <time>2015-02-17T19:16:48Z</time>
      </trkpt>
      <trkpt lat="59.164017832586" lon="17.87373371257">
        <ele>119.6</ele>
        <time>2015-02-17T19:16:51Z</time>
      </trkpt>
      <trkpt lat="59.163982460968" lon="17.873860698355">
        <ele>119.4</ele>
        <time>2015-02-17T19:16:52Z</time>
      </trkpt>
      <trkpt lat="59.163895792122" lon="17.874109137871">
        <ele>118.8</ele>
        <time>2015-02-17T19:16:54Z</time>
      </trkpt>
      <trkpt lat="59.16381465533" lon="17.874347100012">
        <ele>117.2</ele>
        <time>2015-02-17T19:16:56Z</time>
      </trkpt>
      <trkpt lat="59.163730584873" lon="17.874580033013">
        <ele>115.2</ele>
        <time>2015-02-17T19:16:58Z</time>
      </trkpt>
      <trkpt lat="59.16367803036" lon="17.874709952463">
        <ele>114</ele>
        <time>2015-02-17T19:16:59Z</time>
      </trkpt>
      <trkpt lat="59.163621201078" lon="17.874873818608">
        <ele>112.8</ele>
        <time>2015-02-17T19:17:00Z</time>
      </trkpt>
      <trkpt lat="59.163568143651" lon="17.875047240119">
        <ele>111.6</ele>
        <time>2015-02-17T19:17:01Z</time>
      </trkpt>
      <trkpt lat="59.163530928015" lon="17.875210016617">
        <ele>110.6</ele>
        <time>2015-02-17T19:17:02Z</time>
      </trkpt>
      <trkpt lat="59.163509135075" lon="17.875347982691">
        <ele>110.2</ele>
        <time>2015-02-17T19:17:03Z</time>
      </trkpt>
      <trkpt lat="59.163487006859" lon="17.875486535498">
        <ele>109.6</ele>
        <time>2015-02-17T19:17:04Z</time>
      </trkpt>
      <trkpt lat="59.163478457321" lon="17.875604468831">
        <ele>109.4</ele>
        <time>2015-02-17T19:17:05Z</time>
      </trkpt>
      <trkpt lat="59.163481726262" lon="17.875977631019">
        <ele>109.8</ele>
        <time>2015-02-17T19:17:08Z</time>
      </trkpt>
      <trkpt lat="59.163482815909" lon="17.876080812208">
        <ele>110.2</ele>
        <time>2015-02-17T19:17:09Z</time>
      </trkpt>
      <trkpt lat="59.163492706551" lon="17.876193381125">
        <ele>110.8</ele>
        <time>2015-02-17T19:17:10Z</time>
      </trkpt>
      <trkpt lat="59.163507123419" lon="17.876477443716">
        <ele>111.2</ele>
        <time>2015-02-17T19:17:13Z</time>
      </trkpt>
      <trkpt lat="59.163499831166" lon="17.876589844995">
        <ele>111.2</ele>
        <time>2015-02-17T19:17:14Z</time>
      </trkpt>
      <trkpt lat="59.163450210318" lon="17.876798302848">
        <ele>111.2</ele>
        <time>2015-02-17T19:17:16Z</time>
      </trkpt>
      <trkpt lat="59.163340910342" lon="17.876900226752">
        <ele>110.6</ele>
        <time>2015-02-17T19:17:18Z</time>
      </trkpt>
      <trkpt lat="59.163281398852" lon="17.876886564255">
        <ele>110</ele>
        <time>2015-02-17T19:17:19Z</time>
      </trkpt>
      <trkpt lat="59.163187856848" lon="17.876817916494">
        <ele>108.8</ele>
        <time>2015-02-17T19:17:21Z</time>
      </trkpt>
      <trkpt lat="59.163105043676" lon="17.876628401735">
        <ele>110</ele>
        <time>2015-02-17T19:17:25Z</time>
      </trkpt>
      <trkpt lat="59.163089453342" lon="17.876573584109">
        <ele>110.6</ele>
        <time>2015-02-17T19:17:26Z</time>
      </trkpt>
      <trkpt lat="59.163082244908" lon="17.876526226374">
        <ele>111</ele>
        <time>2015-02-17T19:17:27Z</time>
      </trkpt>
      <trkpt lat="59.163077802501" lon="17.876464116495">
        <ele>111.2</ele>
        <time>2015-02-17T19:17:28Z</time>
      </trkpt>
      <trkpt lat="59.16307704813" lon="17.876388511757">
        <ele>111.6</ele>
        <time>2015-02-17T19:17:29Z</time>
      </trkpt>
      <trkpt lat="59.163106971513" lon="17.876131522703">
        <ele>112</ele>
        <time>2015-02-17T19:17:32Z</time>
      </trkpt>
      <trkpt lat="59.163108228798" lon="17.875902277738">
        <ele>111.8</ele>
        <time>2015-02-17T19:17:35Z</time>
      </trkpt>
      <trkpt lat="59.163090878265" lon="17.875670853479">
        <ele>111.6</ele>
        <time>2015-02-17T19:17:38Z</time>
      </trkpt>
      <trkpt lat="59.163031366775" lon="17.875267264994">
        <ele>110.8</ele>
        <time>2015-02-17T19:17:42Z</time>
      </trkpt>
      <trkpt lat="59.163007059265" lon="17.875103398849">
        <ele>110.6</ele>
        <time>2015-02-17T19:17:44Z</time>
      </trkpt>
      <trkpt lat="59.162987194162" lon="17.874927798044">
        <ele>111</ele>
        <time>2015-02-17T19:17:46Z</time>
      </trkpt>
      <trkpt lat="59.162979063719" lon="17.874745324081">
        <ele>111.2</ele>
        <time>2015-02-17T19:17:48Z</time>
      </trkpt>
      <trkpt lat="59.16297981809" lon="17.874658739054">
        <ele>111.2</ele>
        <time>2015-02-17T19:17:49Z</time>
      </trkpt>
      <trkpt lat="59.162987277981" lon="17.874572656941">
        <ele>111.4</ele>
        <time>2015-02-17T19:17:50Z</time>
      </trkpt>
      <trkpt lat="59.16300915474" lon="17.874253977103">
        <ele>111</ele>
        <time>2015-02-17T19:17:53Z</time>
      </trkpt>
      <trkpt lat="59.163005382885" lon="17.874164290773">
        <ele>111</ele>
        <time>2015-02-17T19:17:54Z</time>
      </trkpt>
      <trkpt lat="59.162999347917" lon="17.874080890868">
        <ele>111</ele>
        <time>2015-02-17T19:17:55Z</time>
      </trkpt>
      <trkpt lat="59.16297478895" lon="17.87386614659">
        <ele>111</ele>
        <time>2015-02-17T19:17:58Z</time>
      </trkpt>
      <trkpt lat="59.16295551058" lon="17.873802192693">
        <ele>111.4</ele>
        <time>2015-02-17T19:17:59Z</time>
      </trkpt>
      <trkpt lat="59.162886108448" lon="17.873534474807">
        <ele>112.2</ele>
        <time>2015-02-17T19:18:03Z</time>
      </trkpt>
      <trkpt lat="59.162877810367" lon="17.873475298593">
        <ele>112.2</ele>
        <time>2015-02-17T19:18:04Z</time>
      </trkpt>
      <trkpt lat="59.16289935185" lon="17.873176651496">
        <ele>112.8</ele>
        <time>2015-02-17T19:18:08Z</time>
      </trkpt>
      <trkpt lat="59.162928520862" lon="17.872841794591">
        <ele>112.4</ele>
        <time>2015-02-17T19:18:12Z</time>
      </trkpt>
      <trkpt lat="59.162936735124" lon="17.872485480022">
        <ele>111.8</ele>
        <time>2015-02-17T19:18:17Z</time>
      </trkpt>
      <trkpt lat="59.162947715413" lon="17.872400571375">
        <ele>111.8</ele>
        <time>2015-02-17T19:18:18Z</time>
      </trkpt>
      <trkpt lat="59.162976632968" lon="17.872210553702">
        <ele>111.8</ele>
        <time>2015-02-17T19:18:20Z</time>
      </trkpt>
      <trkpt lat="59.16302256578" lon="17.872041574598">
        <ele>112</ele>
        <time>2015-02-17T19:18:22Z</time>
      </trkpt>
      <trkpt lat="59.163072102809" lon="17.871789195589">
        <ele>111.4</ele>
        <time>2015-02-17T19:18:25Z</time>
      </trkpt>
      <trkpt lat="59.163090375351" lon="17.87162817929">
        <ele>111.4</ele>
        <time>2015-02-17T19:18:27Z</time>
      </trkpt>
      <trkpt lat="59.16309297374" lon="17.871569422171">
        <ele>111.2</ele>
        <time>2015-02-17T19:18:28Z</time>
      </trkpt>
      <trkpt lat="59.163101858554" lon="17.871416284858">
        <ele>111.6</ele>
        <time>2015-02-17T19:18:30Z</time>
      </trkpt>
      <trkpt lat="59.16311728125" lon="17.87134487107">
        <ele>111.8</ele>
        <time>2015-02-17T19:18:31Z</time>
      </trkpt>
      <trkpt lat="59.163219288973" lon="17.871152171189">
        <ele>112.2</ele>
        <time>2015-02-17T19:18:35Z</time>
      </trkpt>
      <trkpt lat="59.163304616715" lon="17.871016468228">
        <ele>112.4</ele>
        <time>2015-02-17T19:18:38Z</time>
      </trkpt>
      <trkpt lat="59.16332012323" lon="17.870951257046">
        <ele>112.4</ele>
        <time>2015-02-17T19:18:39Z</time>
      </trkpt>
      <trkpt lat="59.163312411882" lon="17.870657890546">
        <ele>113</ele>
        <time>2015-02-17T19:18:43Z</time>
      </trkpt>
      <trkpt lat="59.163291457132" lon="17.870496455152">
        <ele>113.2</ele>
        <time>2015-02-17T19:18:45Z</time>
      </trkpt>
      <trkpt lat="59.163248960899" lon="17.870208453068">
        <ele>113</ele>
        <time>2015-02-17T19:18:48Z</time>
      </trkpt>
      <trkpt lat="59.163242842112" lon="17.869977280266">
        <ele>112.8</ele>
        <time>2015-02-17T19:18:51Z</time>
      </trkpt>
      <trkpt lat="59.163259522093" lon="17.869607470838">
        <ele>112.6</ele>
        <time>2015-02-17T19:18:55Z</time>
      </trkpt>
      <trkpt lat="59.163268490726" lon="17.869525831132">
        <ele>112.4</ele>
        <time>2015-02-17T19:18:56Z</time>
      </trkpt>
      <trkpt lat="59.163281482671" lon="17.869270518458">
        <ele>112.6</ele>
        <time>2015-02-17T19:18:59Z</time>
      </trkpt>
      <trkpt lat="59.16328240468" lon="17.869101120259">
        <ele>112.6</ele>
        <time>2015-02-17T19:19:01Z</time>
      </trkpt>
      <trkpt lat="59.163288020553" lon="17.868823427912">
        <ele>112.6</ele>
        <time>2015-02-17T19:19:04Z</time>
      </trkpt>
      <trkpt lat="59.163311070778" lon="17.86854699285">
        <ele>112.4</ele>
        <time>2015-02-17T19:19:07Z</time>
      </trkpt>
      <trkpt lat="59.163313333891" lon="17.868449595172">
        <ele>112.4</ele>
        <time>2015-02-17T19:19:08Z</time>
      </trkpt>
      <trkpt lat="59.163298078833" lon="17.868124042176">
        <ele>112.6</ele>
        <time>2015-02-17T19:19:11Z</time>
      </trkpt>
      <trkpt lat="59.163288355829" lon="17.868030081077">
        <ele>112.8</ele>
        <time>2015-02-17T19:19:12Z</time>
      </trkpt>
      <trkpt lat="59.16329916848" lon="17.867717520026">
        <ele>113.2</ele>
        <time>2015-02-17T19:19:15Z</time>
      </trkpt>
      <trkpt lat="59.163328086035" lon="17.867515767693">
        <ele>113.6</ele>
        <time>2015-02-17T19:19:18Z</time>
      </trkpt>
      <trkpt lat="59.163344849835" lon="17.867456004746">
        <ele>114</ele>
        <time>2015-02-17T19:19:19Z</time>
      </trkpt>
      <trkpt lat="59.163374354123" lon="17.867335556843">
        <ele>114.4</ele>
        <time>2015-02-17T19:19:21Z</time>
      </trkpt>
      <trkpt lat="59.163389609181" lon="17.867278140828">
        <ele>114.8</ele>
        <time>2015-02-17T19:19:22Z</time>
      </trkpt>
      <trkpt lat="59.163412743225" lon="17.86721343256">
        <ele>115.4</ele>
        <time>2015-02-17T19:19:23Z</time>
      </trkpt>
      <trkpt lat="59.163470243059" lon="17.867122572764">
        <ele>116.2</ele>
        <time>2015-02-17T19:19:25Z</time>
      </trkpt>
      <trkpt lat="59.163528748721" lon="17.86703657447">
        <ele>117.2</ele>
        <time>2015-02-17T19:19:27Z</time>
      </trkpt>
      <trkpt lat="59.163556828086" lon="17.866997011902">
        <ele>117.6</ele>
        <time>2015-02-17T19:19:28Z</time>
      </trkpt>
      <trkpt lat="59.163695464712" lon="17.866775478285">
        <ele>118.6</ele>
        <time>2015-02-17T19:19:33Z</time>
      </trkpt>
      <trkpt lat="59.163732093615" lon="17.866725438342">
        <ele>118.8</ele>
        <time>2015-02-17T19:19:34Z</time>
      </trkpt>
      <trkpt lat="59.163879698874" lon="17.86653366047">
        <ele>119</ele>
        <time>2015-02-17T19:19:38Z</time>
      </trkpt>
      <trkpt lat="59.163981706597" lon="17.866357305294">
        <ele>119.4</ele>
        <time>2015-02-17T19:19:41Z</time>
      </trkpt>
      <trkpt lat="59.164012132894" lon="17.86630315822">
        <ele>119.8</ele>
        <time>2015-02-17T19:19:42Z</time>
      </trkpt>
      <trkpt lat="59.164040296078" lon="17.86624867587">
        <ele>119.8</ele>
        <time>2015-02-17T19:19:43Z</time>
      </trkpt>
      <trkpt lat="59.164164096741" lon="17.866035021239">
        <ele>120.2</ele>
        <time>2015-02-17T19:19:46Z</time>
      </trkpt>
      <trkpt lat="59.164218830548" lon="17.865955057913">
        <ele>120.4</ele>
        <time>2015-02-17T19:19:47Z</time>
      </trkpt>
      <trkpt lat="59.164254369804" lon="17.865881883926">
        <ele>120.4</ele>
        <time>2015-02-17T19:19:48Z</time>
      </trkpt>
      <trkpt lat="59.164363418323" lon="17.865712821003">
        <ele>120</ele>
        <time>2015-02-17T19:19:51Z</time>
      </trkpt>
      <trkpt lat="59.164396107733" lon="17.865647442183">
        <ele>120</ele>
        <time>2015-02-17T19:19:52Z</time>
      </trkpt>
      <trkpt lat="59.164511861772" lon="17.865502519132">
        <ele>120</ele>
        <time>2015-02-17T19:19:55Z</time>
      </trkpt>
      <trkpt lat="59.164622754309" lon="17.865371845311">
        <ele>119.6</ele>
        <time>2015-02-17T19:19:58Z</time>
      </trkpt>
      <trkpt lat="59.164706824766" lon="17.86524787701">
        <ele>119.6</ele>
        <time>2015-02-17T19:20:00Z</time>
      </trkpt>
      <trkpt lat="59.164782513323" lon="17.865128770211">
        <ele>119</ele>
        <time>2015-02-17T19:20:02Z</time>
      </trkpt>
      <trkpt lat="59.164824422823" lon="17.865056685871">
        <ele>118.6</ele>
        <time>2015-02-17T19:20:03Z</time>
      </trkpt>
      <trkpt lat="59.164923748338" lon="17.864895753391">
        <ele>117.8</ele>
        <time>2015-02-17T19:20:05Z</time>
      </trkpt>
      <trkpt lat="59.165075125452" lon="17.86469802437">
        <ele>117.4</ele>
        <time>2015-02-17T19:20:08Z</time>
      </trkpt>
      <trkpt lat="59.165120890626" lon="17.864624347469">
        <ele>117.4</ele>
        <time>2015-02-17T19:20:09Z</time>
      </trkpt>
      <trkpt lat="59.165161961936" lon="17.86455637026">
        <ele>117.4</ele>
        <time>2015-02-17T19:20:10Z</time>
      </trkpt>
      <trkpt lat="59.165331527773" lon="17.864245234132">
        <ele>117.8</ele>
        <time>2015-02-17T19:20:14Z</time>
      </trkpt>
      <trkpt lat="59.165376957671" lon="17.864150183386">
        <ele>117.8</ele>
        <time>2015-02-17T19:20:15Z</time>
      </trkpt>
      <trkpt lat="59.165411155823" lon="17.864091007172">
        <ele>117.6</ele>
        <time>2015-02-17T19:20:16Z</time>
      </trkpt>
      <trkpt lat="59.165519952885" lon="17.863849440814">
        <ele>117</ele>
        <time>2015-02-17T19:20:19Z</time>
      </trkpt>
      <trkpt lat="59.165556078874" lon="17.863775596275">
        <ele>116.8</ele>
        <time>2015-02-17T19:20:20Z</time>
      </trkpt>
      <trkpt lat="59.165592372501" lon="17.863700326813">
        <ele>116.6</ele>
        <time>2015-02-17T19:20:21Z</time>
      </trkpt>
      <trkpt lat="59.165746096547" lon="17.863394052187">
        <ele>116.8</ele>
        <time>2015-02-17T19:20:25Z</time>
      </trkpt>
      <trkpt lat="59.165808541702" lon="17.863232281517">
        <ele>117</ele>
        <time>2015-02-17T19:20:27Z</time>
      </trkpt>
      <trkpt lat="59.165960254092" lon="17.862909997462">
        <ele>116.6</ele>
        <time>2015-02-17T19:20:31Z</time>
      </trkpt>
      <trkpt lat="59.166000487212" lon="17.862862472089">
        <ele>116.2</ele>
        <time>2015-02-17T19:20:32Z</time>
      </trkpt>
      <trkpt lat="59.16609034118" lon="17.862742024186">
        <ele>116</ele>
        <time>2015-02-17T19:20:34Z</time>
      </trkpt>
      <trkpt lat="59.166178937863" lon="17.862610344537">
        <ele>115.6</ele>
        <time>2015-02-17T19:20:36Z</time>
      </trkpt>
      <trkpt lat="59.166292931703" lon="17.862414543353">
        <ele>115.6</ele>
        <time>2015-02-17T19:20:39Z</time>
      </trkpt>
      <trkpt lat="59.166360657455" lon="17.862240032195">
        <ele>115.4</ele>
        <time>2015-02-17T19:20:41Z</time>
      </trkpt>
      <trkpt lat="59.166400890575" lon="17.862176581212">
        <ele>115.2</ele>
        <time>2015-02-17T19:20:42Z</time>
      </trkpt>
      <trkpt lat="59.16644154279" lon="17.86211723736">
        <ele>115.2</ele>
        <time>2015-02-17T19:20:43Z</time>
      </trkpt>
      <trkpt lat="59.166490744543" lon="17.862079183534">
        <ele>114.8</ele>
        <time>2015-02-17T19:20:44Z</time>
      </trkpt>
      <trkpt lat="59.166582274891" lon="17.861997795285">
        <ele>114.4</ele>
        <time>2015-02-17T19:20:46Z</time>
      </trkpt>
      <trkpt lat="59.166623513839" lon="17.861952700663">
        <ele>114</ele>
        <time>2015-02-17T19:20:47Z</time>
      </trkpt>
      <trkpt lat="59.166662657312" lon="17.861902241625">
        <ele>113.8</ele>
        <time>2015-02-17T19:20:48Z</time>
      </trkpt>
      <trkpt lat="59.166716133834" lon="17.861853542786">
        <ele>114</ele>
        <time>2015-02-17T19:20:49Z</time>
      </trkpt>
      <trkpt lat="59.166759049162" lon="17.861683390216">
        <ele>114.2</ele>
        <time>2015-02-17T19:20:51Z</time>
      </trkpt>
      <trkpt lat="59.166777237885" lon="17.861356496116">
        <ele>114.2</ele>
        <time>2015-02-17T19:20:55Z</time>
      </trkpt>
      <trkpt lat="59.166754271479" lon="17.861198162025">
        <ele>114</ele>
        <time>2015-02-17T19:20:57Z</time>
      </trkpt>
      <trkpt lat="59.166730215426" lon="17.861048880386">
        <ele>113.8</ele>
        <time>2015-02-17T19:20:59Z</time>
      </trkpt>
      <trkpt lat="59.166648324263" lon="17.860653422344">
        <ele>112.8</ele>
        <time>2015-02-17T19:21:03Z</time>
      </trkpt>
      <trkpt lat="59.166637176336" lon="17.860526855654">
        <ele>112.6</ele>
        <time>2015-02-17T19:21:04Z</time>
      </trkpt>
      <trkpt lat="59.16663181192" lon="17.860290569893">
        <ele>111.6</ele>
        <time>2015-02-17T19:21:06Z</time>
      </trkpt>
      <trkpt lat="59.166621166907" lon="17.85985244798">
        <ele>110.6</ele>
        <time>2015-02-17T19:21:10Z</time>
      </trkpt>
      <trkpt lat="59.166608258781" lon="17.859700065038">
        <ele>110.4</ele>
        <time>2015-02-17T19:21:12Z</time>
      </trkpt>
      <trkpt lat="59.166589986239" lon="17.859512729573">
        <ele>110</ele>
        <time>2015-02-17T19:21:14Z</time>
      </trkpt>
      <trkpt lat="59.166573641534" lon="17.859405860348">
        <ele>110.2</ele>
        <time>2015-02-17T19:21:15Z</time>
      </trkpt>
      <trkpt lat="59.166542377047" lon="17.859175274279">
        <ele>109.8</ele>
        <time>2015-02-17T19:21:17Z</time>
      </trkpt>
      <trkpt lat="59.166533073138" lon="17.859058598231">
        <ele>109.2</ele>
        <time>2015-02-17T19:21:18Z</time>
      </trkpt>
      <trkpt lat="59.166574395905" lon="17.858669510433">
        <ele>107.6</ele>
        <time>2015-02-17T19:21:21Z</time>
      </trkpt>
      <trkpt lat="59.16667455961" lon="17.858302047937">
        <ele>106</ele>
        <time>2015-02-17T19:21:24Z</time>
      </trkpt>
      <trkpt lat="59.166715044187" lon="17.858194256703">
        <ele>105.4</ele>
        <time>2015-02-17T19:21:25Z</time>
      </trkpt>
      <trkpt lat="59.166737591498" lon="17.858087890392">
        <ele>105</ele>
        <time>2015-02-17T19:21:26Z</time>
      </trkpt>
      <trkpt lat="59.166784111043" lon="17.857888401172">
        <ele>103.8</ele>
        <time>2015-02-17T19:21:28Z</time>
      </trkpt>
      <trkpt lat="59.166802635042" lon="17.857775999893">
        <ele>103.6</ele>
        <time>2015-02-17T19:21:29Z</time>
      </trkpt>
      <trkpt lat="59.166816716634" lon="17.857419685324">
        <ele>103</ele>
        <time>2015-02-17T19:21:32Z</time>
      </trkpt>
      <trkpt lat="59.166824427982" lon="17.857312480823">
        <ele>102.8</ele>
        <time>2015-02-17T19:21:33Z</time>
      </trkpt>
      <trkpt lat="59.166857955582" lon="17.856969409656">
        <ele>103.2</ele>
        <time>2015-02-17T19:21:36Z</time>
      </trkpt>
      <trkpt lat="59.166883604196" lon="17.856833036143">
        <ele>103.2</ele>
        <time>2015-02-17T19:21:37Z</time>
      </trkpt>
      <trkpt lat="59.166950910853" lon="17.856466830932">
        <ele>102.4</ele>
        <time>2015-02-17T19:21:40Z</time>
      </trkpt>
      <trkpt lat="59.166975553639" lon="17.856359207336">
        <ele>101.8</ele>
        <time>2015-02-17T19:21:41Z</time>
      </trkpt>
      <trkpt lat="59.167001034615" lon="17.856255104138">
        <ele>101.6</ele>
        <time>2015-02-17T19:21:42Z</time>
      </trkpt>
      <trkpt lat="59.167020899718" lon="17.856138679547">
        <ele>101.2</ele>
        <time>2015-02-17T19:21:43Z</time>
      </trkpt>
      <trkpt lat="59.167060546105" lon="17.855929467323">
        <ele>100.8</ele>
        <time>2015-02-17T19:21:45Z</time>
      </trkpt>
      <trkpt lat="59.167096252999" lon="17.855841792649">
        <ele>100.6</ele>
        <time>2015-02-17T19:21:46Z</time>
      </trkpt>
      <trkpt lat="59.167125086735" lon="17.8557771682">
        <ele>100.8</ele>
        <time>2015-02-17T19:21:47Z</time>
      </trkpt>
      <trkpt lat="59.16719423741" lon="17.855685302576">
        <ele>101</ele>
        <time>2015-02-17T19:21:49Z</time>
      </trkpt>
      <trkpt lat="59.167232458874" lon="17.855646913474">
        <ele>101</ele>
        <time>2015-02-17T19:21:50Z</time>
      </trkpt>
      <trkpt lat="59.167268249587" lon="17.855601567395">
        <ele>101.2</ele>
        <time>2015-02-17T19:21:51Z</time>
      </trkpt>
      <trkpt lat="59.167327928715" lon="17.855531997625">
        <ele>101.4</ele>
        <time>2015-02-17T19:21:53Z</time>
      </trkpt>
      <trkpt lat="59.167344021963" lon="17.855483550243">
        <ele>101.6</ele>
        <time>2015-02-17T19:21:54Z</time>
      </trkpt>
      <trkpt lat="59.167323067213" lon="17.855301411556">
        <ele>102.2</ele>
        <time>2015-02-17T19:21:58Z</time>
      </trkpt>
      <trkpt lat="59.167269506872" lon="17.855175515418">
        <ele>102.2</ele>
        <time>2015-02-17T19:22:00Z</time>
      </trkpt>
      <trkpt lat="59.167229525209" lon="17.855046182701">
        <ele>101.8</ele>
        <time>2015-02-17T19:22:02Z</time>
      </trkpt>
      <trkpt lat="59.167158614335" lon="17.854767316888">
        <ele>101.4</ele>
        <time>2015-02-17T19:22:06Z</time>
      </trkpt>
      <trkpt lat="59.167071777851" lon="17.854474537121">
        <ele>100.6</ele>
        <time>2015-02-17T19:22:10Z</time>
      </trkpt>
      <trkpt lat="59.167058115354" lon="17.854385102248">
        <ele>100.6</ele>
        <time>2015-02-17T19:22:11Z</time>
      </trkpt>
      <trkpt lat="59.167053170033" lon="17.854296170289">
        <ele>100.6</ele>
        <time>2015-02-17T19:22:12Z</time>
      </trkpt>
      <trkpt lat="59.167049984911" lon="17.854140686044">
        <ele>101</ele>
        <time>2015-02-17T19:22:14Z</time>
      </trkpt>
      <trkpt lat="59.167036825328" lon="17.854012359155">
        <ele>101</ele>
        <time>2015-02-17T19:22:16Z</time>
      </trkpt>
      <trkpt lat="59.167022073184" lon="17.853957960624">
        <ele>101</ele>
        <time>2015-02-17T19:22:17Z</time>
      </trkpt>
      <trkpt lat="59.167014445655" lon="17.85390213717">
        <ele>100.8</ele>
        <time>2015-02-17T19:22:18Z</time>
      </trkpt>
      <trkpt lat="59.16696624973" lon="17.853559820374">
        <ele>101.4</ele>
        <time>2015-02-17T19:22:23Z</time>
      </trkpt>
      <trkpt lat="59.166954934165" lon="17.853512714096">
        <ele>101.4</ele>
        <time>2015-02-17T19:22:24Z</time>
      </trkpt>
      <trkpt lat="59.166919897823" lon="17.853341807155">
        <ele>101.6</ele>
        <time>2015-02-17T19:22:27Z</time>
      </trkpt>
      <trkpt lat="59.166912773208" lon="17.853231166075">
        <ele>102</ele>
        <time>2015-02-17T19:22:29Z</time>
      </trkpt>
      <trkpt lat="59.166905229498" lon="17.853121698461">
        <ele>102.6</ele>
        <time>2015-02-17T19:22:31Z</time>
      </trkpt>
      <trkpt lat="59.166901206186" lon="17.852998652169">
        <ele>103.8</ele>
        <time>2015-02-17T19:22:34Z</time>
      </trkpt>
      <trkpt lat="59.16692601661" lon="17.852821039708">
        <ele>105</ele>
        <time>2015-02-17T19:22:37Z</time>
      </trkpt>
      <trkpt lat="59.166933979415" lon="17.852764629521">
        <ele>105.2</ele>
        <time>2015-02-17T19:22:38Z</time>
      </trkpt>
      <trkpt lat="59.166961807323" lon="17.852530606873">
        <ele>106</ele>
        <time>2015-02-17T19:22:42Z</time>
      </trkpt>
      <trkpt lat="59.166966920282" lon="17.852475453971">
        <ele>106.2</ele>
        <time>2015-02-17T19:22:43Z</time>
      </trkpt>
      <trkpt lat="59.167004974108" lon="17.852291471266">
        <ele>107.2</ele>
        <time>2015-02-17T19:22:47Z</time>
      </trkpt>
      <trkpt lat="59.167010589981" lon="17.852249645585">
        <ele>107.4</ele>
        <time>2015-02-17T19:22:48Z</time>
      </trkpt>
      <trkpt lat="59.16703079036" lon="17.85203213528">
        <ele>108.4</ele>
        <time>2015-02-17T19:22:52Z</time>
      </trkpt>
      <trkpt lat="59.167062306304" lon="17.851906658237">
        <ele>108.8</ele>
        <time>2015-02-17T19:22:54Z</time>
      </trkpt>
      <trkpt lat="59.16710706565" lon="17.851756454589">
        <ele>109.4</ele>
        <time>2015-02-17T19:22:57Z</time>
      </trkpt>
      <trkpt lat="59.167138246318" lon="17.851614297565">
        <ele>109.8</ele>
        <time>2015-02-17T19:22:59Z</time>
      </trkpt>
      <trkpt lat="59.167151070625" lon="17.85153257404">
        <ele>110</ele>
        <time>2015-02-17T19:23:00Z</time>
      </trkpt>
      <trkpt lat="59.167234302892" lon="17.85119394528">
        <ele>109.4</ele>
        <time>2015-02-17T19:23:04Z</time>
      </trkpt>
      <trkpt lat="59.167328096353" lon="17.851099397448">
        <ele>108.8</ele>
        <time>2015-02-17T19:23:06Z</time>
      </trkpt>
      <trkpt lat="59.16738031559" lon="17.851095122679">
        <ele>108.4</ele>
        <time>2015-02-17T19:23:07Z</time>
      </trkpt>
      <trkpt lat="59.167477377992" lon="17.851081041087">
        <ele>108</ele>
        <time>2015-02-17T19:23:09Z</time>
      </trkpt>
      <trkpt lat="59.167608973822" lon="17.851047597306">
        <ele>107.4</ele>
        <time>2015-02-17T19:23:11Z</time>
      </trkpt>
      <trkpt lat="59.167735959607" lon="17.851112892307">
        <ele>106.4</ele>
        <time>2015-02-17T19:23:13Z</time>
      </trkpt>
      <trkpt lat="59.167796644563" lon="17.851153795979">
        <ele>105.4</ele>
        <time>2015-02-17T19:23:14Z</time>
      </trkpt>
      <trkpt lat="59.167844505212" lon="17.851214145659">
        <ele>104.4</ele>
        <time>2015-02-17T19:23:15Z</time>
      </trkpt>
      <trkpt lat="59.167913069154" lon="17.851306598016">
        <ele>103.2</ele>
        <time>2015-02-17T19:23:17Z</time>
      </trkpt>
      <trkpt lat="59.167965120753" lon="17.851377005976">
        <ele>103.6</ele>
        <time>2015-02-17T19:23:19Z</time>
      </trkpt>
      <trkpt lat="59.167983393295" lon="17.851409611567">
        <ele>104.2</ele>
        <time>2015-02-17T19:23:20Z</time>
      </trkpt>
      <trkpt lat="59.168078611679" lon="17.851532909316">
        <ele>105.4</ele>
        <time>2015-02-17T19:23:24Z</time>
      </trkpt>
      <trkpt lat="59.168175841719" lon="17.851681688041">
        <ele>105.4</ele>
        <time>2015-02-17T19:23:27Z</time>
      </trkpt>
      <trkpt lat="59.168306264083" lon="17.851960637673">
        <ele>104.8</ele>
        <time>2015-02-17T19:23:31Z</time>
      </trkpt>
      <trkpt lat="59.168328224661" lon="17.852036577687">
        <ele>104.6</ele>
        <time>2015-02-17T19:23:32Z</time>
      </trkpt>
      <trkpt lat="59.168378432242" lon="17.852164820757">
        <ele>104.2</ele>
        <time>2015-02-17T19:23:34Z</time>
      </trkpt>
      <trkpt lat="59.168443056691" lon="17.852285101022">
        <ele>104.2</ele>
        <time>2015-02-17T19:23:36Z</time>
      </trkpt>
      <trkpt lat="59.168566605897" lon="17.852521805878">
        <ele>104</ele>
        <time>2015-02-17T19:23:40Z</time>
      </trkpt>
      <trkpt lat="59.168596361642" lon="17.852586346508">
        <ele>103.8</ele>
        <time>2015-02-17T19:23:41Z</time>
      </trkpt>
      <trkpt lat="59.168626871758" lon="17.852638901021">
        <ele>103.8</ele>
        <time>2015-02-17T19:23:42Z</time>
      </trkpt>
      <trkpt lat="59.168745475643" lon="17.852794636723">
        <ele>103.6</ele>
        <time>2015-02-17T19:23:45Z</time>
      </trkpt>
      <trkpt lat="59.168828288815" lon="17.852899745749">
        <ele>103.4</ele>
        <time>2015-02-17T19:23:47Z</time>
      </trkpt>
      <trkpt lat="59.168886459201" lon="17.853033604692">
        <ele>103.4</ele>
        <time>2015-02-17T19:23:49Z</time>
      </trkpt>
      <trkpt lat="59.168920657353" lon="17.85321817413">
        <ele>103.2</ele>
        <time>2015-02-17T19:23:51Z</time>
      </trkpt>
      <trkpt lat="59.168949742546" lon="17.853369467425">
        <ele>103</ele>
        <time>2015-02-17T19:23:53Z</time>
      </trkpt>
      <trkpt lat="59.168966422527" lon="17.85343275077">
        <ele>103</ele>
        <time>2015-02-17T19:23:54Z</time>
      </trkpt>
      <trkpt lat="59.169058623427" lon="17.853613632172">
        <ele>102.4</ele>
        <time>2015-02-17T19:23:57Z</time>
      </trkpt>
      <trkpt lat="59.169113860148" lon="17.853743886898">
        <ele>102</ele>
        <time>2015-02-17T19:23:59Z</time>
      </trkpt>
      <trkpt lat="59.169171359982" lon="17.853860730584">
        <ele>101.8</ele>
        <time>2015-02-17T19:24:01Z</time>
      </trkpt>
      <trkpt lat="59.169190051619" lon="17.853913201278">
        <ele>101.6</ele>
        <time>2015-02-17T19:24:02Z</time>
      </trkpt>
      <trkpt lat="59.169313936101" lon="17.854187373227">
        <ele>101.8</ele>
        <time>2015-02-17T19:24:07Z</time>
      </trkpt>
      <trkpt lat="59.169403622431" lon="17.854350149725">
        <ele>102.6</ele>
        <time>2015-02-17T19:24:11Z</time>
      </trkpt>
      <trkpt lat="59.169447124492" lon="17.854439249322">
        <ele>103.4</ele>
        <time>2015-02-17T19:24:14Z</time>
      </trkpt>
      <trkpt lat="59.169494566046" lon="17.854502867943">
        <ele>104.6</ele>
        <time>2015-02-17T19:24:17Z</time>
      </trkpt>
      <trkpt lat="59.16954536036" lon="17.854591799902">
        <ele>106</ele>
        <time>2015-02-17T19:24:20Z</time>
      </trkpt>
      <trkpt lat="59.169566147472" lon="17.854621220371">
        <ele>106.4</ele>
        <time>2015-02-17T19:24:21Z</time>
      </trkpt>
      <trkpt lat="59.169614511035" lon="17.854766478698">
        <ele>107</ele>
        <time>2015-02-17T19:24:24Z</time>
      </trkpt>
      <trkpt lat="59.169634376138" lon="17.854818781754">
        <ele>107</ele>
        <time>2015-02-17T19:24:25Z</time>
      </trkpt>
      <trkpt lat="59.169718698052" lon="17.855116003928">
        <ele>107.2</ele>
        <time>2015-02-17T19:24:30Z</time>
      </trkpt>
      <trkpt lat="59.169789860383" lon="17.855381291063">
        <ele>107.2</ele>
        <time>2015-02-17T19:24:34Z</time>
      </trkpt>
      <trkpt lat="59.16990745844" lon="17.855650517691">
        <ele>107.2</ele>
        <time>2015-02-17T19:24:38Z</time>
      </trkpt>
      <trkpt lat="59.16993930966" lon="17.855715393597">
        <ele>107.2</ele>
        <time>2015-02-17T19:24:39Z</time>
      </trkpt>
      <trkpt lat="59.169959258582" lon="17.855780185684">
        <ele>107.2</ele>
        <time>2015-02-17T19:24:40Z</time>
      </trkpt>
      <trkpt lat="59.170027654886" lon="17.855972550289">
        <ele>106.8</ele>
        <time>2015-02-17T19:24:43Z</time>
      </trkpt>
      <trkpt lat="59.170054644604" lon="17.856058548583">
        <ele>106.6</ele>
        <time>2015-02-17T19:24:44Z</time>
      </trkpt>
      <trkpt lat="59.170108875497" lon="17.856204812738">
        <ele>106.6</ele>
        <time>2015-02-17T19:24:46Z</time>
      </trkpt>
      <trkpt lat="59.17014047526" lon="17.856270610653">
        <ele>106.2</ele>
        <time>2015-02-17T19:24:47Z</time>
      </trkpt>
      <trkpt lat="59.170221360595" lon="17.85646616038">
        <ele>106</ele>
        <time>2015-02-17T19:24:50Z</time>
      </trkpt>
      <trkpt lat="59.170249356141" lon="17.856525001318">
        <ele>106</ele>
        <time>2015-02-17T19:24:51Z</time>
      </trkpt>
      <trkpt lat="59.170363182343" lon="17.856811829936">
        <ele>105.8</ele>
        <time>2015-02-17T19:24:55Z</time>
      </trkpt>
      <trkpt lat="59.170396374667" lon="17.856879974783">
        <ele>105.8</ele>
        <time>2015-02-17T19:24:56Z</time>
      </trkpt>
      <trkpt lat="59.170431494828" lon="17.856930769097">
        <ele>105.8</ele>
        <time>2015-02-17T19:24:57Z</time>
      </trkpt>
      <trkpt lat="59.170514140362" lon="17.857065382411">
        <ele>105.2</ele>
        <time>2015-02-17T19:24:59Z</time>
      </trkpt>
      <trkpt lat="59.170590499471" lon="17.857213490584">
        <ele>104.8</ele>
        <time>2015-02-17T19:25:01Z</time>
      </trkpt>
      <trkpt lat="59.170638611577" lon="17.85736805282">
        <ele>104.4</ele>
        <time>2015-02-17T19:25:03Z</time>
      </trkpt>
      <trkpt lat="59.170705918234" lon="17.857735515316">
        <ele>103.8</ele>
        <time>2015-02-17T19:25:08Z</time>
      </trkpt>
      <trkpt lat="59.170720335102" lon="17.857810114226">
        <ele>104</ele>
        <time>2015-02-17T19:25:09Z</time>
      </trkpt>
      <trkpt lat="59.17073726654" lon="17.857874487218">
        <ele>104</ele>
        <time>2015-02-17T19:25:10Z</time>
      </trkpt>
      <trkpt lat="59.170786468293" lon="17.858151592832">
        <ele>104.8</ele>
        <time>2015-02-17T19:25:14Z</time>
      </trkpt>
      <trkpt lat="59.170868527094" lon="17.858503548813">
        <ele>105</ele>
        <time>2015-02-17T19:25:18Z</time>
      </trkpt>
      <trkpt lat="59.17088897893" lon="17.858591391125">
        <ele>104.8</ele>
        <time>2015-02-17T19:25:19Z</time>
      </trkpt>
      <trkpt lat="59.170940527615" lon="17.858731955588">
        <ele>103.8</ele>
        <time>2015-02-17T19:25:21Z</time>
      </trkpt>
      <trkpt lat="59.17099123811" lon="17.85879549039">
        <ele>103</ele>
        <time>2015-02-17T19:25:22Z</time>
      </trkpt>
      <trkpt lat="59.171040188406" lon="17.85885416369">
        <ele>102</ele>
        <time>2015-02-17T19:25:23Z</time>
      </trkpt>
      <trkpt lat="59.171136077342" lon="17.858970504462">
        <ele>101</ele>
        <time>2015-02-17T19:25:25Z</time>
      </trkpt>
      <trkpt lat="59.171202378171" lon="17.859072679823">
        <ele>100.6</ele>
        <time>2015-02-17T19:25:27Z</time>
      </trkpt>
      <trkpt lat="59.1713860256" lon="17.859293123793">
        <ele>100.4</ele>
        <time>2015-02-17T19:25:31Z</time>
      </trkpt>
      <trkpt lat="59.171488871513" lon="17.85940904547">
        <ele>99.8</ele>
        <time>2015-02-17T19:25:33Z</time>
      </trkpt>
      <trkpt lat="59.171562464595" lon="17.859481213629">
        <ele>99</ele>
        <time>2015-02-17T19:25:35Z</time>
      </trkpt>
      <trkpt lat="59.171601524249" lon="17.859522787853">
        <ele>98.8</ele>
        <time>2015-02-17T19:25:36Z</time>
      </trkpt>
      <trkpt lat="59.171643433749" lon="17.859565451724">
        <ele>98.6</ele>
        <time>2015-02-17T19:25:37Z</time>
      </trkpt>
      <trkpt lat="59.171689282742" lon="17.859631501096">
        <ele>98.6</ele>
        <time>2015-02-17T19:25:38Z</time>
      </trkpt>
      <trkpt lat="59.171733790631" lon="17.859712637888">
        <ele>98.8</ele>
        <time>2015-02-17T19:25:39Z</time>
      </trkpt>
      <trkpt lat="59.171847533014" lon="17.859994269728">
        <ele>99</ele>
        <time>2015-02-17T19:25:42Z</time>
      </trkpt>
      <trkpt lat="59.171864967366" lon="17.86009971403">
        <ele>99</ele>
        <time>2015-02-17T19:25:43Z</time>
      </trkpt>
      <trkpt lat="59.171812915767" lon="17.860362151319">
        <ele>97.6</ele>
        <time>2015-02-17T19:25:46Z</time>
      </trkpt>
      <trkpt lat="59.171763462557" lon="17.860474804055">
        <ele>96.2</ele>
        <time>2015-02-17T19:25:48Z</time>
      </trkpt>
      <trkpt lat="59.171733287717" lon="17.860597515071">
        <ele>95.6</ele>
        <time>2015-02-17T19:25:50Z</time>
      </trkpt>
      <trkpt lat="59.171753907191" lon="17.860913009787">
        <ele>95.6</ele>
        <time>2015-02-17T19:25:54Z</time>
      </trkpt>
      <trkpt lat="59.171772934104" lon="17.861002696117">
        <ele>95.6</ele>
        <time>2015-02-17T19:25:55Z</time>
      </trkpt>
      <trkpt lat="59.171785926049" lon="17.861101853994">
        <ele>95.4</ele>
        <time>2015-02-17T19:25:56Z</time>
      </trkpt>
      <trkpt lat="59.171822974047" lon="17.861373595192">
        <ele>95.4</ele>
        <time>2015-02-17T19:25:59Z</time>
      </trkpt>
      <trkpt lat="59.171837977648" lon="17.861545256504">
        <ele>95</ele>
        <time>2015-02-17T19:26:01Z</time>
      </trkpt>
      <trkpt lat="59.171854406172" lon="17.86178866688">
        <ele>94.6</ele>
        <time>2015-02-17T19:26:04Z</time>
      </trkpt>
      <trkpt lat="59.171883156089" lon="17.862158560127">
        <ele>94.8</ele>
        <time>2015-02-17T19:26:09Z</time>
      </trkpt>
      <trkpt lat="59.171895058387" lon="17.86223458396">
        <ele>94.8</ele>
        <time>2015-02-17T19:26:10Z</time>
      </trkpt>
      <trkpt lat="59.171903440287" lon="17.862325695213">
        <ele>94.6</ele>
        <time>2015-02-17T19:26:11Z</time>
      </trkpt>
      <trkpt lat="59.171926741969" lon="17.862551587418">
        <ele>94.6</ele>
        <time>2015-02-17T19:26:14Z</time>
      </trkpt>
      <trkpt lat="59.171934788593" lon="17.862645883793">
        <ele>94.6</ele>
        <time>2015-02-17T19:26:15Z</time>
      </trkpt>
      <trkpt lat="59.171952809678" lon="17.862927683271">
        <ele>94.4</ele>
        <time>2015-02-17T19:26:18Z</time>
      </trkpt>
      <trkpt lat="59.171962951777" lon="17.863284416935">
        <ele>94.4</ele>
        <time>2015-02-17T19:26:22Z</time>
      </trkpt>
      <trkpt lat="59.171976362817" lon="17.863355495447">
        <ele>94.2</ele>
        <time>2015-02-17T19:26:23Z</time>
      </trkpt>
      <trkpt lat="59.171980218491" lon="17.863437302791">
        <ele>94</ele>
        <time>2015-02-17T19:26:24Z</time>
      </trkpt>
      <trkpt lat="59.171989857676" lon="17.863684904117">
        <ele>93.4</ele>
        <time>2015-02-17T19:26:27Z</time>
      </trkpt>
      <trkpt lat="59.172000335051" lon="17.863858577085">
        <ele>93.4</ele>
        <time>2015-02-17T19:26:29Z</time>
      </trkpt>
      <trkpt lat="59.172017434127" lon="17.864037111555">
        <ele>93.6</ele>
        <time>2015-02-17T19:26:31Z</time>
      </trkpt>
      <trkpt lat="59.172033862651" lon="17.864120343822">
        <ele>93.6</ele>
        <time>2015-02-17T19:26:32Z</time>
      </trkpt>
      <trkpt lat="59.172021541258" lon="17.864444723352">
        <ele>93.4</ele>
        <time>2015-02-17T19:26:36Z</time>
      </trkpt>
      <trkpt lat="59.17201131534" lon="17.864513371113">
        <ele>93.4</ele>
        <time>2015-02-17T19:26:37Z</time>
      </trkpt>
      <trkpt lat="59.171998407214" lon="17.864594759362">
        <ele>93.6</ele>
        <time>2015-02-17T19:26:38Z</time>
      </trkpt>
      <trkpt lat="59.171985834364" lon="17.864731803427">
        <ele>93.8</ele>
        <time>2015-02-17T19:26:40Z</time>
      </trkpt>
      <trkpt lat="59.171984241803" lon="17.864912014277">
        <ele>94</ele>
        <time>2015-02-17T19:26:42Z</time>
      </trkpt>
      <trkpt lat="59.17198449326" lon="17.864986194092">
        <ele>94.2</ele>
        <time>2015-02-17T19:26:43Z</time>
      </trkpt>
      <trkpt lat="59.172000921784" lon="17.865151988074">
        <ele>94</ele>
        <time>2015-02-17T19:26:45Z</time>
      </trkpt>
      <trkpt lat="59.172013410815" lon="17.865256510367">
        <ele>94.2</ele>
        <time>2015-02-17T19:26:46Z</time>
      </trkpt>
      <trkpt lat="59.172072251753" lon="17.865499501648">
        <ele>94</ele>
        <time>2015-02-17T19:26:49Z</time>
      </trkpt>
      <trkpt lat="59.172089015553" lon="17.865580051707">
        <ele>94</ele>
        <time>2015-02-17T19:26:50Z</time>
      </trkpt>
      <trkpt lat="59.172150119604" lon="17.8659192672">
        <ele>93.6</ele>
        <time>2015-02-17T19:26:54Z</time>
      </trkpt>
      <trkpt lat="59.172172164001" lon="17.865990680988">
        <ele>93.8</ele>
        <time>2015-02-17T19:26:55Z</time>
      </trkpt>
      <trkpt lat="59.172235028251" lon="17.866187236543">
        <ele>93.6</ele>
        <time>2015-02-17T19:26:58Z</time>
      </trkpt>
      <trkpt lat="59.172290684067" lon="17.866308606455">
        <ele>93.8</ele>
        <time>2015-02-17T19:27:00Z</time>
      </trkpt>
      <trkpt lat="59.172348938272" lon="17.866435759878">
        <ele>94</ele>
        <time>2015-02-17T19:27:02Z</time>
      </trkpt>
      <trkpt lat="59.172425884114" lon="17.866614797262">
        <ele>93.8</ele>
        <time>2015-02-17T19:27:05Z</time>
      </trkpt>
      <trkpt lat="59.172495956798" lon="17.866876228723">
        <ele>93.2</ele>
        <time>2015-02-17T19:27:09Z</time>
      </trkpt>
      <trkpt lat="59.172514732254" lon="17.866937919507">
        <ele>93.4</ele>
        <time>2015-02-17T19:27:10Z</time>
      </trkpt>
      <trkpt lat="59.172594276485" lon="17.867174540544">
        <ele>93.4</ele>
        <time>2015-02-17T19:27:14Z</time>
      </trkpt>
      <trkpt lat="59.172654542346" lon="17.867497327513">
        <ele>93.4</ele>
        <time>2015-02-17T19:27:18Z</time>
      </trkpt>
      <trkpt lat="59.172689159593" lon="17.867761441182">
        <ele>93.4</ele>
        <time>2015-02-17T19:27:22Z</time>
      </trkpt>
      <trkpt lat="59.172694859285" lon="17.867797231895">
        <ele>93.6</ele>
        <time>2015-02-17T19:27:23Z</time>
      </trkpt>
      <trkpt lat="59.172728722161" lon="17.867877362859">
        <ele>94</ele>
        <time>2015-02-17T19:27:25Z</time>
      </trkpt>
      <trkpt lat="59.172772056584" lon="17.868017340589">
        <ele>94.4</ele>
        <time>2015-02-17T19:27:28Z</time>
      </trkpt>
      <trkpt lat="59.172812541161" lon="17.868125467099">
        <ele>94.6</ele>
        <time>2015-02-17T19:27:30Z</time>
      </trkpt>
      <trkpt lat="59.172884038768" lon="17.868345743431">
        <ele>94.8</ele>
        <time>2015-02-17T19:27:34Z</time>
      </trkpt>
      <trkpt lat="59.17291907511" lon="17.868478009813">
        <ele>94.8</ele>
        <time>2015-02-17T19:27:36Z</time>
      </trkpt>
      <trkpt lat="59.172957380393" lon="17.868613042222">
        <ele>94.6</ele>
        <time>2015-02-17T19:27:38Z</time>
      </trkpt>
      <trkpt lat="59.173025692878" lon="17.868871875294">
        <ele>94.6</ele>
        <time>2015-02-17T19:27:42Z</time>
      </trkpt>
      <trkpt lat="59.173060393944" lon="17.869093073635">
        <ele>95</ele>
        <time>2015-02-17T19:27:46Z</time>
      </trkpt>
      <trkpt lat="59.173071122776" lon="17.869140515189">
        <ele>95</ele>
        <time>2015-02-17T19:27:47Z</time>
      </trkpt>
      <trkpt lat="59.173074894631" lon="17.869205894009">
        <ele>95.2</ele>
        <time>2015-02-17T19:27:48Z</time>
      </trkpt>
      <trkpt lat="59.173079756133" lon="17.869269680268">
        <ele>95.2</ele>
        <time>2015-02-17T19:27:49Z</time>
      </trkpt>
      <trkpt lat="59.173081348694" lon="17.869492890265">
        <ele>95.2</ele>
        <time>2015-02-17T19:27:53Z</time>
      </trkpt>
      <trkpt lat="59.173075565183" lon="17.869537817249">
        <ele>95.2</ele>
        <time>2015-02-17T19:27:54Z</time>
      </trkpt>
      <trkpt lat="59.173054442795" lon="17.869663210473">
        <ele>96</ele>
        <time>2015-02-17T19:27:59Z</time>
      </trkpt>
      <trkpt lat="59.173046815266" lon="17.869692295666">
        <ele>96.2</ele>
        <time>2015-02-17T19:28:00Z</time>
      </trkpt>
      <trkpt lat="59.17298445393" lon="17.869854736888">
        <ele>96.6</ele>
        <time>2015-02-17T19:28:05Z</time>
      </trkpt>
      <trkpt lat="59.172959811144" lon="17.869934364938">
        <ele>97</ele>
        <time>2015-02-17T19:28:08Z</time>
      </trkpt>
      <trkpt lat="59.172949836683" lon="17.869964288321">
        <ele>97.2</ele>
        <time>2015-02-17T19:28:09Z</time>
      </trkpt>
      <trkpt lat="59.172927792286" lon="17.870026146743">
        <ele>97.2</ele>
        <time>2015-02-17T19:28:11Z</time>
      </trkpt>
      <trkpt lat="59.17289979674" lon="17.870091274106">
        <ele>97.6</ele>
        <time>2015-02-17T19:28:13Z</time>
      </trkpt>
      <trkpt lat="59.172839363241" lon="17.870202166643">
        <ele>97.8</ele>
        <time>2015-02-17T19:28:16Z</time>
      </trkpt>
      <trkpt lat="59.172770212566" lon="17.870308784411">
        <ele>98.4</ele>
        <time>2015-02-17T19:28:19Z</time>
      </trkpt>
      <trkpt lat="59.172695948932" lon="17.870430489599">
        <ele>99.4</ele>
        <time>2015-02-17T19:28:22Z</time>
      </trkpt>
      <trkpt lat="59.172670635594" lon="17.87047231528">
        <ele>99.6</ele>
        <time>2015-02-17T19:28:23Z</time>
      </trkpt>
      <trkpt lat="59.17258715187" lon="17.870596032124">
        <ele>100.6</ele>
        <time>2015-02-17T19:28:26Z</time>
      </trkpt>
      <trkpt lat="59.172548092216" lon="17.870651604121">
        <ele>101</ele>
        <time>2015-02-17T19:28:28Z</time>
      </trkpt>
      <trkpt lat="59.172496375893" lon="17.870725951574">
        <ele>101.6</ele>
        <time>2015-02-17T19:28:31Z</time>
      </trkpt>
      <trkpt lat="59.17248237812" lon="17.870751097274">
        <ele>101.8</ele>
        <time>2015-02-17T19:28:32Z</time>
      </trkpt>
      <trkpt lat="59.172467961252" lon="17.870766352332">
        <ele>101.8</ele>
        <time>2015-02-17T19:28:33Z</time>
      </trkpt>
      <trkpt lat="59.172369893022" lon="17.870795605163">
        <ele>101.8</ele>
        <time>2015-02-17T19:28:36Z</time>
      </trkpt>
      <trkpt lat="59.172300826166" lon="17.870824522718">
        <ele>100.2</ele>
        <time>2015-02-17T19:28:38Z</time>
      </trkpt>
      <trkpt lat="59.172265119272" lon="17.870861989811">
        <ele>99.2</ele>
        <time>2015-02-17T19:28:39Z</time>
      </trkpt>
      <trkpt lat="59.172231172577" lon="17.870918651455">
        <ele>98</ele>
        <time>2015-02-17T19:28:40Z</time>
      </trkpt>
      <trkpt lat="59.172070072459" lon="17.871297764792">
        <ele>97</ele>
        <time>2015-02-17T19:28:44Z</time>
      </trkpt>
      <trkpt lat="59.171959263741" lon="17.871583839039">
        <ele>97.4</ele>
        <time>2015-02-17T19:28:47Z</time>
      </trkpt>
      <trkpt lat="59.171881060614" lon="17.87174049675">
        <ele>97.6</ele>
        <time>2015-02-17T19:28:49Z</time>
      </trkpt>
      <trkpt lat="59.171721217781" lon="17.872052806344">
        <ele>97.6</ele>
        <time>2015-02-17T19:28:53Z</time>
      </trkpt>
      <trkpt lat="59.171566487907" lon="17.872361679359">
        <ele>96.6</ele>
        <time>2015-02-17T19:28:56Z</time>
      </trkpt>
      <trkpt lat="59.17152684152" lon="17.872443821979">
        <ele>96.2</ele>
        <time>2015-02-17T19:28:57Z</time>
      </trkpt>
      <trkpt lat="59.17141620044" lon="17.872634174928">
        <ele>95.4</ele>
        <time>2015-02-17T19:28:59Z</time>
      </trkpt>
      <trkpt lat="59.171362640099" lon="17.872711707503">
        <ele>95</ele>
        <time>2015-02-17T19:29:00Z</time>
      </trkpt>
      <trkpt lat="59.171204389827" lon="17.872927709066">
        <ele>95.2</ele>
        <time>2015-02-17T19:29:04Z</time>
      </trkpt>
      <trkpt lat="59.171126941071" lon="17.87303298573">
        <ele>95.4</ele>
        <time>2015-02-17T19:29:06Z</time>
      </trkpt>
      <trkpt lat="59.171043708804" lon="17.873159300963">
        <ele>95.8</ele>
        <time>2015-02-17T19:29:08Z</time>
      </trkpt>
      <trkpt lat="59.170966511505" lon="17.873298859598">
        <ele>95.8</ele>
        <time>2015-02-17T19:29:10Z</time>
      </trkpt>
      <trkpt lat="59.170891074405" lon="17.873400699683">
        <ele>95.8</ele>
        <time>2015-02-17T19:29:12Z</time>
      </trkpt>
      <trkpt lat="59.170839106625" lon="17.873445794305">
        <ele>95.8</ele>
        <time>2015-02-17T19:29:14Z</time>
      </trkpt>
      <trkpt lat="59.170815637305" lon="17.873472532566">
        <ele>95.8</ele>
        <time>2015-02-17T19:29:15Z</time>
      </trkpt>
      <trkpt lat="59.170767609018" lon="17.873548556399">
        <ele>96</ele>
        <time>2015-02-17T19:29:17Z</time>
      </trkpt>
      <trkpt lat="59.170740786938" lon="17.87362642425">
        <ele>96.6</ele>
        <time>2015-02-17T19:29:19Z</time>
      </trkpt>
      <trkpt lat="59.170713629582" lon="17.87373035981">
        <ele>97</ele>
        <time>2015-02-17T19:29:21Z</time>
      </trkpt>
      <trkpt lat="59.170687310416" lon="17.873795570992">
        <ele>97</ele>
        <time>2015-02-17T19:29:23Z</time>
      </trkpt>
      <trkpt lat="59.170642802527" lon="17.873779477744">
        <ele>96.8</ele>
        <time>2015-02-17T19:29:24Z</time>
      </trkpt>
      <trkpt lat="59.170610532212" lon="17.873751901293">
        <ele>96.8</ele>
        <time>2015-02-17T19:29:25Z</time>
      </trkpt>
      <trkpt lat="59.170504501177" lon="17.873685768102">
        <ele>96.4</ele>
        <time>2015-02-17T19:29:29Z</time>
      </trkpt>
      <trkpt lat="59.170383634179" lon="17.873612258839">
        <ele>97.2</ele>
        <time>2015-02-17T19:29:34Z</time>
      </trkpt>
      <trkpt lat="59.170306520699" lon="17.873600105084">
        <ele>98</ele>
        <time>2015-02-17T19:29:36Z</time>
      </trkpt>
      <trkpt lat="59.17017735562" lon="17.873513855333">
        <ele>97.6</ele>
        <time>2015-02-17T19:29:40Z</time>
      </trkpt>
      <trkpt lat="59.170114575189" lon="17.873490218375">
        <ele>96.8</ele>
        <time>2015-02-17T19:29:42Z</time>
      </trkpt>
      <trkpt lat="59.170040395374" lon="17.873434730197">
        <ele>96.8</ele>
        <time>2015-02-17T19:29:45Z</time>
      </trkpt>
      <trkpt lat="59.169963952446" lon="17.873367088264">
        <ele>98.2</ele>
        <time>2015-02-17T19:29:48Z</time>
      </trkpt>
      <trkpt lat="59.169937800918" lon="17.873351078835">
        <ele>98.4</ele>
        <time>2015-02-17T19:29:49Z</time>
      </trkpt>
      <trkpt lat="59.169777203714" lon="17.873268684758">
        <ele>98.4</ele>
        <time>2015-02-17T19:29:54Z</time>
      </trkpt>
      <trkpt lat="59.169644937332" lon="17.873214453865">
        <ele>98.6</ele>
        <time>2015-02-17T19:29:58Z</time>
      </trkpt>
      <trkpt lat="59.1696090628" lon="17.873179333704">
        <ele>98.4</ele>
        <time>2015-02-17T19:29:59Z</time>
      </trkpt>
      <trkpt lat="59.169529015655" lon="17.873068944081">
        <ele>98.6</ele>
        <time>2015-02-17T19:30:02Z</time>
      </trkpt>
      <trkpt lat="59.169414937996" lon="17.87293743207">
        <ele>98.8</ele>
        <time>2015-02-17T19:30:06Z</time>
      </trkpt>
      <trkpt lat="59.169387696821" lon="17.872914465664">
        <ele>98.8</ele>
        <time>2015-02-17T19:30:07Z</time>
      </trkpt>
      <trkpt lat="59.169342434561" lon="17.872879261684">
        <ele>98.8</ele>
        <time>2015-02-17T19:30:09Z</time>
      </trkpt>
      <trkpt lat="59.169258867018" lon="17.87285445126">
        <ele>99.2</ele>
        <time>2015-02-17T19:30:13Z</time>
      </trkpt>
      <trkpt lat="59.169177981683" lon="17.872854367441">
        <ele>100.6</ele>
        <time>2015-02-17T19:30:17Z</time>
      </trkpt>
      <trkpt lat="59.169158368037" lon="17.872856714373">
        <ele>101</ele>
        <time>2015-02-17T19:30:18Z</time>
      </trkpt>
      <trkpt lat="59.169111010302" lon="17.872880016055">
        <ele>101.8</ele>
        <time>2015-02-17T19:30:20Z</time>
      </trkpt>
      <trkpt lat="59.169016881565" lon="17.872911364361">
        <ele>102.8</ele>
        <time>2015-02-17T19:30:23Z</time>
      </trkpt>
      <trkpt lat="59.168916801679" lon="17.872925948867">
        <ele>103.4</ele>
        <time>2015-02-17T19:30:26Z</time>
      </trkpt>
      <trkpt lat="59.168891823617" lon="17.872915052397">
        <ele>103.2</ele>
        <time>2015-02-17T19:30:27Z</time>
      </trkpt>
      <trkpt lat="59.168830049014" lon="17.872848667749">
        <ele>104.2</ele>
        <time>2015-02-17T19:30:30Z</time>
      </trkpt>
      <trkpt lat="59.168785541125" lon="17.872791000277">
        <ele>104.8</ele>
        <time>2015-02-17T19:30:32Z</time>
      </trkpt>
      <trkpt lat="59.168728208929" lon="17.872727716932">
        <ele>105.2</ele>
        <time>2015-02-17T19:30:34Z</time>
      </trkpt>
      <trkpt lat="59.1686367624" lon="17.872701397766">
        <ele>105.6</ele>
        <time>2015-02-17T19:30:36Z</time>
      </trkpt>
      <trkpt lat="59.168452947333" lon="17.872666864338">
        <ele>105.4</ele>
        <time>2015-02-17T19:30:40Z</time>
      </trkpt>
      <trkpt lat="59.168414977326" lon="17.872655129678">
        <ele>105</ele>
        <time>2015-02-17T19:30:41Z</time>
      </trkpt>
      <trkpt lat="59.1682679588" lon="17.872568879927">
        <ele>104.2</ele>
        <time>2015-02-17T19:30:45Z</time>
      </trkpt>
      <trkpt lat="59.168226803671" lon="17.87254013001">
        <ele>104</ele>
        <time>2015-02-17T19:30:46Z</time>
      </trkpt>
      <trkpt lat="59.168113564202" lon="17.872395709873">
        <ele>104.2</ele>
        <time>2015-02-17T19:30:50Z</time>
      </trkpt>
      <trkpt lat="59.168036115446" lon="17.8722476017">
        <ele>104.8</ele>
        <time>2015-02-17T19:30:54Z</time>
      </trkpt>
      <trkpt lat="59.168005856787" lon="17.87220904496">
        <ele>104.8</ele>
        <time>2015-02-17T19:30:55Z</time>
      </trkpt>
      <trkpt lat="59.167926312556" lon="17.872144420511">
        <ele>105</ele>
        <time>2015-02-17T19:30:58Z</time>
      </trkpt>
      <trkpt lat="59.167788933215" lon="17.872082310632">
        <ele>105.4</ele>
        <time>2015-02-17T19:31:03Z</time>
      </trkpt>
      <trkpt lat="59.167691451718" lon="17.872059428045">
        <ele>105.6</ele>
        <time>2015-02-17T19:31:07Z</time>
      </trkpt>
      <trkpt lat="59.167617858636" lon="17.872007795541">
        <ele>106.4</ele>
        <time>2015-02-17T19:31:11Z</time>
      </trkpt>
      <trkpt lat="59.167604196139" lon="17.872001928211">
        <ele>106.8</ele>
        <time>2015-02-17T19:31:12Z</time>
      </trkpt>
      <trkpt lat="59.167588102891" lon="17.872003772229">
        <ele>107.2</ele>
        <time>2015-02-17T19:31:13Z</time>
      </trkpt>
      <trkpt lat="59.167571339091" lon="17.87200871755">
        <ele>107.4</ele>
        <time>2015-02-17T19:31:14Z</time>
      </trkpt>
      <trkpt lat="59.167525238641" lon="17.872055991466">
        <ele>108.6</ele>
        <time>2015-02-17T19:31:17Z</time>
      </trkpt>
      <trkpt lat="59.167507049918" lon="17.872079712243">
        <ele>108.8</ele>
        <time>2015-02-17T19:31:18Z</time>
      </trkpt>
      <trkpt lat="59.167423230918" lon="17.872139139914">
        <ele>109.8</ele>
        <time>2015-02-17T19:31:22Z</time>
      </trkpt>
      <trkpt lat="59.167408227317" lon="17.872144001416">
        <ele>110.2</ele>
        <time>2015-02-17T19:31:23Z</time>
      </trkpt>
      <trkpt lat="59.1673710955" lon="17.872171410229">
        <ele>111</ele>
        <time>2015-02-17T19:31:25Z</time>
      </trkpt>
      <trkpt lat="59.167351481854" lon="17.872179540672">
        <ele>111.4</ele>
        <time>2015-02-17T19:31:26Z</time>
      </trkpt>
      <trkpt lat="59.16733086238" lon="17.872189934228">
        <ele>111.6</ele>
        <time>2015-02-17T19:31:27Z</time>
      </trkpt>
      <trkpt lat="59.167256682565" lon="17.872200914517">
        <ele>112</ele>
        <time>2015-02-17T19:31:29Z</time>
      </trkpt>
      <trkpt lat="59.167197925446" lon="17.872193706083">
        <ele>112.2</ele>
        <time>2015-02-17T19:31:31Z</time>
      </trkpt>
      <trkpt lat="59.1670693471" lon="17.872155987533">
        <ele>113.2</ele>
        <time>2015-02-17T19:31:35Z</time>
      </trkpt>
      <trkpt lat="59.167001118434" lon="17.872142492674">
        <ele>113.8</ele>
        <time>2015-02-17T19:31:37Z</time>
      </trkpt>
      <trkpt lat="59.16686650512" lon="17.872099744984">
        <ele>114.4</ele>
        <time>2015-02-17T19:31:41Z</time>
      </trkpt>
      <trkpt lat="59.166840437411" lon="17.87208499284">
        <ele>114.6</ele>
        <time>2015-02-17T19:31:42Z</time>
      </trkpt>
      <trkpt lat="59.166731305073" lon="17.872069570144">
        <ele>114.8</ele>
        <time>2015-02-17T19:31:46Z</time>
      </trkpt>
      <trkpt lat="59.166619574346" lon="17.872114245671">
        <ele>115.6</ele>
        <time>2015-02-17T19:31:50Z</time>
      </trkpt>
      <trkpt lat="59.166598200501" lon="17.872133775498">
        <ele>115.8</ele>
        <time>2015-02-17T19:31:51Z</time>
      </trkpt>
      <trkpt lat="59.166475489485" lon="17.872294121245">
        <ele>116.6</ele>
        <time>2015-02-17T19:31:56Z</time>
      </trkpt>
      <trkpt lat="59.166451517251" lon="17.872324044628">
        <ele>116.8</ele>
        <time>2015-02-17T19:31:57Z</time>
      </trkpt>
      <trkpt lat="59.166341043809" lon="17.872442313237">
        <ele>117.2</ele>
        <time>2015-02-17T19:32:00Z</time>
      </trkpt>
      <trkpt lat="59.166245909244" lon="17.872500148347">
        <ele>117.8</ele>
        <time>2015-02-17T19:32:03Z</time>
      </trkpt>
      <trkpt lat="59.166205340848" lon="17.87250911698">
        <ele>118.2</ele>
        <time>2015-02-17T19:32:04Z</time>
      </trkpt>
      <trkpt lat="59.166142225141" lon="17.872531161377">
        <ele>119</ele>
        <time>2015-02-17T19:32:06Z</time>
      </trkpt>
      <trkpt lat="59.166051030069" lon="17.872575920723">
        <ele>119.4</ele>
        <time>2015-02-17T19:32:09Z</time>
      </trkpt>
      <trkpt lat="59.16595874535" lon="17.872593522713">
        <ele>120</ele>
        <time>2015-02-17T19:32:12Z</time>
      </trkpt>
      <trkpt lat="59.16587492635" lon="17.872611795255">
        <ele>121.2</ele>
        <time>2015-02-17T19:32:15Z</time>
      </trkpt>
      <trkpt lat="59.165759423768" lon="17.872677676989">
        <ele>122.2</ele>
        <time>2015-02-17T19:32:20Z</time>
      </trkpt>
      <trkpt lat="59.16563436582" lon="17.872748587863">
        <ele>122.4</ele>
        <time>2015-02-17T19:32:24Z</time>
      </trkpt>
      <trkpt lat="59.165572591217" lon="17.872773230649">
        <ele>122.8</ele>
        <time>2015-02-17T19:32:26Z</time>
      </trkpt>
      <trkpt lat="59.165501009791" lon="17.872782031644">
        <ele>123.2</ele>
        <time>2015-02-17T19:32:28Z</time>
      </trkpt>
      <trkpt lat="59.16537285054" lon="17.872787815155">
        <ele>123.4</ele>
        <time>2015-02-17T19:32:32Z</time>
      </trkpt>
      <trkpt lat="59.165241003253" lon="17.872814050502">
        <ele>124.4</ele>
        <time>2015-02-17T19:32:36Z</time>
      </trkpt>
      <trkpt lat="59.165209571128" lon="17.872818241452">
        <ele>124.4</ele>
        <time>2015-02-17T19:32:37Z</time>
      </trkpt>
      <trkpt lat="59.165109742699" lon="17.872808602267">
        <ele>125</ele>
        <time>2015-02-17T19:32:40Z</time>
      </trkpt>
      <trkpt lat="59.16490933147" lon="17.872772979192">
        <ele>125</ele>
        <time>2015-02-17T19:32:44Z</time>
      </trkpt>
      <trkpt lat="59.164727863335" lon="17.872753114089">
        <ele>123.8</ele>
        <time>2015-02-17T19:32:47Z</time>
      </trkpt>
      <trkpt lat="59.164688636043" lon="17.872769207337">
        <ele>123.6</ele>
        <time>2015-02-17T19:32:48Z</time>
      </trkpt>
      <trkpt lat="59.164646391267" lon="17.872793514847">
        <ele>123.4</ele>
        <time>2015-02-17T19:32:49Z</time>
      </trkpt>
      <trkpt lat="59.164529966676" lon="17.872873478173">
        <ele>122.2</ele>
        <time>2015-02-17T19:32:52Z</time>
      </trkpt>
      <trkpt lat="59.164464671675" lon="17.872995770094">
        <ele>121.2</ele>
        <time>2015-02-17T19:32:54Z</time>
      </trkpt>
      <trkpt lat="59.164392754973" lon="17.873142872439">
        <ele>121.4</ele>
        <time>2015-02-17T19:32:56Z</time>
      </trkpt>
      <trkpt lat="59.164292004535" lon="17.873337164881">
        <ele>121.8</ele>
        <time>2015-02-17T19:32:59Z</time>
      </trkpt>
      <trkpt lat="59.164262416428" lon="17.873401956968">
        <ele>121.8</ele>
        <time>2015-02-17T19:33:00Z</time>
      </trkpt>
      <trkpt lat="59.164192092287" lon="17.873620724558">
        <ele>121.2</ele>
        <time>2015-02-17T19:33:03Z</time>
      </trkpt>
      <trkpt lat="59.164132245521" lon="17.873779058649">
        <ele>120.6</ele>
        <time>2015-02-17T19:33:05Z</time>
      </trkpt>
      <trkpt lat="59.164099472292" lon="17.873869583169">
        <ele>120.4</ele>
        <time>2015-02-17T19:33:06Z</time>
      </trkpt>
      <trkpt lat="59.164067369615" lon="17.8739658912">
        <ele>120</ele>
        <time>2015-02-17T19:33:07Z</time>
      </trkpt>
      <trkpt lat="59.163969971937" lon="17.874304771417">
        <ele>119</ele>
        <time>2015-02-17T19:33:10Z</time>
      </trkpt>
      <trkpt lat="59.16394457478" lon="17.874391440263">
        <ele>118</ele>
        <time>2015-02-17T19:33:11Z</time>
      </trkpt>
      <trkpt lat="59.163926469876" lon="17.874450532658">
        <ele>117.2</ele>
        <time>2015-02-17T19:33:12Z</time>
      </trkpt>
      <trkpt lat="59.163897719959" lon="17.874524293378">
        <ele>116.4</ele>
        <time>2015-02-17T19:33:13Z</time>
      </trkpt>
      <trkpt lat="59.16386410854" lon="17.874594114605">
        <ele>115.2</ele>
        <time>2015-02-17T19:33:14Z</time>
      </trkpt>
      <trkpt lat="59.163825887076" lon="17.874675083759">
        <ele>113.8</ele>
        <time>2015-02-17T19:33:15Z</time>
      </trkpt>
      <trkpt lat="59.163800741376" lon="17.874749431212">
        <ele>112.6</ele>
        <time>2015-02-17T19:33:16Z</time>
      </trkpt>
      <trkpt lat="59.163794035856" lon="17.874845403967">
        <ele>111.4</ele>
        <time>2015-02-17T19:33:17Z</time>
      </trkpt>
      <trkpt lat="59.163792275657" lon="17.874974652865">
        <ele>110.4</ele>
        <time>2015-02-17T19:33:18Z</time>
      </trkpt>
      <trkpt lat="59.163783390843" lon="17.87512510797">
        <ele>109.8</ele>
        <time>2015-02-17T19:33:19Z</time>
      </trkpt>
      <trkpt lat="59.163771488545" lon="17.875289728486">
        <ele>109.4</ele>
        <time>2015-02-17T19:33:20Z</time>
      </trkpt>
      <trkpt lat="59.163738799135" lon="17.875568259023">
        <ele>109.8</ele>
        <time>2015-02-17T19:33:22Z</time>
      </trkpt>
      <trkpt lat="59.163710300675" lon="17.875709158762">
        <ele>109.8</ele>
        <time>2015-02-17T19:33:23Z</time>
      </trkpt>
      <trkpt lat="59.163654225764" lon="17.876084584063">
        <ele>110.4</ele>
        <time>2015-02-17T19:33:26Z</time>
      </trkpt>
      <trkpt lat="59.163646682054" lon="17.876275020831">
        <ele>111</ele>
        <time>2015-02-17T19:33:28Z</time>
      </trkpt>
      <trkpt lat="59.163638132516" lon="17.876523627985">
        <ele>111.4</ele>
        <time>2015-02-17T19:33:30Z</time>
      </trkpt>
      <trkpt lat="59.163611478074" lon="17.876750106923">
        <ele>111.4</ele>
        <time>2015-02-17T19:33:32Z</time>
      </trkpt>
      <trkpt lat="59.163533526404" lon="17.876903244236">
        <ele>110.8</ele>
        <time>2015-02-17T19:33:34Z</time>
      </trkpt>
      <trkpt lat="59.163414419605" lon="17.876922941701">
        <ele>110</ele>
        <time>2015-02-17T19:33:36Z</time>
      </trkpt>
      <trkpt lat="59.16336790006" lon="17.876906010263">
        <ele>109.2</ele>
        <time>2015-02-17T19:33:37Z</time>
      </trkpt>
      <trkpt lat="59.163307382742" lon="17.876855215949">
        <ele>109</ele>
        <time>2015-02-17T19:33:39Z</time>
      </trkpt>
      <trkpt lat="59.163280141567" lon="17.876823867643">
        <ele>109</ele>
        <time>2015-02-17T19:33:40Z</time>
      </trkpt>
      <trkpt lat="59.163260947016" lon="17.876785646179">
        <ele>109.4</ele>
        <time>2015-02-17T19:33:41Z</time>
      </trkpt>
      <trkpt lat="59.163230101624" lon="17.876712136916">
        <ele>110.4</ele>
        <time>2015-02-17T19:33:43Z</time>
      </trkpt>
      <trkpt lat="59.163217528774" lon="17.876670646511">
        <ele>110.6</ele>
        <time>2015-02-17T19:33:44Z</time>
      </trkpt>
      <trkpt lat="59.163203447182" lon="17.876647931562">
        <ele>110.8</ele>
        <time>2015-02-17T19:33:45Z</time>
      </trkpt>
      <trkpt lat="59.163178217663" lon="17.87660870427">
        <ele>111.6</ele>
        <time>2015-02-17T19:33:47Z</time>
      </trkpt>
      <trkpt lat="59.16317008722" lon="17.876602753121">
        <ele>112.4</ele>
        <time>2015-02-17T19:33:51Z</time>
      </trkpt>
      <trkpt lat="59.16321870224" lon="17.876021887451">
        <ele>113.2</ele>
        <time>2015-02-17T19:36:27Z</time>
      </trkpt>
      <trkpt lat="59.163220127163" lon="17.87594066684">
        <ele>113</ele>
        <time>2015-02-17T19:36:28Z</time>
      </trkpt>
      <trkpt lat="59.163208727779" lon="17.875781578378">
        <ele>112.2</ele>
        <time>2015-02-17T19:36:30Z</time>
      </trkpt>
      <trkpt lat="59.163200178241" lon="17.875705051631">
        <ele>112.2</ele>
        <time>2015-02-17T19:36:31Z</time>
      </trkpt>
      <trkpt lat="59.163175703093" lon="17.87553246831">
        <ele>112</ele>
        <time>2015-02-17T19:36:33Z</time>
      </trkpt>
      <trkpt lat="59.163138571276" lon="17.875161820692">
        <ele>111.6</ele>
        <time>2015-02-17T19:36:37Z</time>
      </trkpt>
      <trkpt lat="59.163130440833" lon="17.874921846895">
        <ele>111.6</ele>
        <time>2015-02-17T19:36:40Z</time>
      </trkpt>
      <trkpt lat="59.163133793593" lon="17.874742558054">
        <ele>111.8</ele>
        <time>2015-02-17T19:36:42Z</time>
      </trkpt>
      <trkpt lat="59.163142510769" lon="17.874655051018">
        <ele>111.8</ele>
        <time>2015-02-17T19:36:43Z</time>
      </trkpt>
      <trkpt lat="59.163163214062" lon="17.874360427233">
        <ele>111.4</ele>
        <time>2015-02-17T19:36:46Z</time>
      </trkpt>
      <trkpt lat="59.163166818279" lon="17.874251462533">
        <ele>111.2</ele>
        <time>2015-02-17T19:36:47Z</time>
      </trkpt>
      <trkpt lat="59.163162794967" lon="17.874163201126">
        <ele>111.4</ele>
        <time>2015-02-17T19:36:48Z</time>
      </trkpt>
      <trkpt lat="59.163135302335" lon="17.874028336355">
        <ele>111.4</ele>
        <time>2015-02-17T19:36:50Z</time>
      </trkpt>
      <trkpt lat="59.163077802501" lon="17.873797917924">
        <ele>111.6</ele>
        <time>2015-02-17T19:36:53Z</time>
      </trkpt>
      <trkpt lat="59.163059697597" lon="17.873724324842">
        <ele>111.6</ele>
        <time>2015-02-17T19:36:54Z</time>
      </trkpt>
      <trkpt lat="59.163023990703" lon="17.873526009088">
        <ele>111.6</ele>
        <time>2015-02-17T19:36:57Z</time>
      </trkpt>
      <trkpt lat="59.163006472532" lon="17.873377649458">
        <ele>112</ele>
        <time>2015-02-17T19:36:59Z</time>
      </trkpt>
      <trkpt lat="59.163016195536" lon="17.873193415296">
        <ele>112.4</ele>
        <time>2015-02-17T19:37:01Z</time>
      </trkpt>
      <trkpt lat="59.16302591854" lon="17.873067183882">
        <ele>112.8</ele>
        <time>2015-02-17T19:37:03Z</time>
      </trkpt>
      <trkpt lat="59.163025667083" lon="17.872988477841">
        <ele>112.8</ele>
        <time>2015-02-17T19:37:04Z</time>
      </trkpt>
      <trkpt lat="59.163033546069" lon="17.872676587342">
        <ele>112.4</ele>
        <time>2015-02-17T19:37:08Z</time>
      </trkpt>
      <trkpt lat="59.16309045917" lon="17.872288421553">
        <ele>112</ele>
        <time>2015-02-17T19:37:12Z</time>
      </trkpt>
      <trkpt lat="59.163101942373" lon="17.872200830698">
        <ele>112</ele>
        <time>2015-02-17T19:37:13Z</time>
      </trkpt>
      <trkpt lat="59.163163046424" lon="17.87191651665">
        <ele>111.8</ele>
        <time>2015-02-17T19:37:16Z</time>
      </trkpt>
      <trkpt lat="59.163202525173" lon="17.87174804046">
        <ele>112</ele>
        <time>2015-02-17T19:37:18Z</time>
      </trkpt>
      <trkpt lat="59.163266898165" lon="17.871374794453">
        <ele>112</ele>
        <time>2015-02-17T19:37:22Z</time>
      </trkpt>
      <trkpt lat="59.163330852062" lon="17.871046978344">
        <ele>111.8</ele>
        <time>2015-02-17T19:37:26Z</time>
      </trkpt>
      <trkpt lat="59.163399499823" lon="17.870939438567">
        <ele>111.6</ele>
        <time>2015-02-17T19:37:28Z</time>
      </trkpt>
      <trkpt lat="59.163440990228" lon="17.870890069176">
        <ele>111.4</ele>
        <time>2015-02-17T19:37:29Z</time>
      </trkpt>
      <trkpt lat="59.16352547978" lon="17.870733746741">
        <ele>111.6</ele>
        <time>2015-02-17T19:37:32Z</time>
      </trkpt>
      <trkpt lat="59.163544087598" lon="17.870685131721">
        <ele>111.6</ele>
        <time>2015-02-17T19:37:33Z</time>
      </trkpt>
      <trkpt lat="59.163566634909" lon="17.870509028002">
        <ele>112</ele>
        <time>2015-02-17T19:37:36Z</time>
      </trkpt>
      <trkpt lat="59.163564371796" lon="17.870452785453">
        <ele>112.2</ele>
        <time>2015-02-17T19:37:37Z</time>
      </trkpt>
      <trkpt lat="59.163490024343" lon="17.870127986828">
        <ele>112.6</ele>
        <time>2015-02-17T19:37:42Z</time>
      </trkpt>
      <trkpt lat="59.163475942751" lon="17.870057075954">
        <ele>112.8</ele>
        <time>2015-02-17T19:37:43Z</time>
      </trkpt>
      <trkpt lat="59.163473176724" lon="17.869957582801">
        <ele>112.6</ele>
        <time>2015-02-17T19:37:44Z</time>
      </trkpt>
      <trkpt lat="59.163476780941" lon="17.869712244588">
        <ele>111.8</ele>
        <time>2015-02-17T19:37:47Z</time>
      </trkpt>
      <trkpt lat="59.163475439837" lon="17.86956623189">
        <ele>111.2</ele>
        <time>2015-02-17T19:37:49Z</time>
      </trkpt>
      <trkpt lat="59.163508129247" lon="17.869331622509">
        <ele>111.4</ele>
        <time>2015-02-17T19:37:52Z</time>
      </trkpt>
      <trkpt lat="59.163510727636" lon="17.86926029254">
        <ele>111.4</ele>
        <time>2015-02-17T19:37:53Z</time>
      </trkpt>
      <trkpt lat="59.163527491436" lon="17.869096426395">
        <ele>111.4</ele>
        <time>2015-02-17T19:37:55Z</time>
      </trkpt>
      <trkpt lat="59.163534364594" lon="17.869032137222">
        <ele>111.6</ele>
        <time>2015-02-17T19:37:56Z</time>
      </trkpt>
      <trkpt lat="59.163553475326" lon="17.868671799341">
        <ele>112.2</ele>
        <time>2015-02-17T19:38:01Z</time>
      </trkpt>
      <trkpt lat="59.163556157534" lon="17.868571467998">
        <ele>112.4</ele>
        <time>2015-02-17T19:38:02Z</time>
      </trkpt>
      <trkpt lat="59.163567473099" lon="17.868210124289">
        <ele>112.4</ele>
        <time>2015-02-17T19:38:06Z</time>
      </trkpt>
      <trkpt lat="59.163570909678" lon="17.868129741868">
        <ele>112.6</ele>
        <time>2015-02-17T19:38:07Z</time>
      </trkpt>
      <trkpt lat="59.163572837515" lon="17.867760183897">
        <ele>111.8</ele>
        <time>2015-02-17T19:38:11Z</time>
      </trkpt>
      <trkpt lat="59.163572502239" lon="17.867649794274">
        <ele>112</ele>
        <time>2015-02-17T19:38:12Z</time>
      </trkpt>
      <trkpt lat="59.163593792265" lon="17.867492885106">
        <ele>112.6</ele>
        <time>2015-02-17T19:38:14Z</time>
      </trkpt>
      <trkpt lat="59.163608963504" lon="17.867361373095">
        <ele>113.6</ele>
        <time>2015-02-17T19:38:16Z</time>
      </trkpt>
      <trkpt lat="59.163640144172" lon="17.867169427585">
        <ele>114.6</ele>
        <time>2015-02-17T19:38:19Z</time>
      </trkpt>
      <trkpt lat="59.163706696458" lon="17.86697454841">
        <ele>115.6</ele>
        <time>2015-02-17T19:38:23Z</time>
      </trkpt>
      <trkpt lat="59.163734272909" lon="17.866905397735">
        <ele>115.8</ele>
        <time>2015-02-17T19:38:24Z</time>
      </trkpt>
      <trkpt lat="59.163857905934" lon="17.866689982905">
        <ele>117</ele>
        <time>2015-02-17T19:38:29Z</time>
      </trkpt>
      <trkpt lat="59.163971648317" lon="17.866527290226">
        <ele>117.6</ele>
        <time>2015-02-17T19:38:33Z</time>
      </trkpt>
      <trkpt lat="59.164022107355" lon="17.866446907805">
        <ele>118.2</ele>
        <time>2015-02-17T19:38:35Z</time>
      </trkpt>
      <trkpt lat="59.164072063479" lon="17.86635177324">
        <ele>118.4</ele>
        <time>2015-02-17T19:38:37Z</time>
      </trkpt>
      <trkpt lat="59.164230732846" lon="17.866083636259">
        <ele>118.8</ele>
        <time>2015-02-17T19:38:42Z</time>
      </trkpt>
      <trkpt lat="59.164255627089" lon="17.866050360116">
        <ele>119</ele>
        <time>2015-02-17T19:38:43Z</time>
      </trkpt>
      <trkpt lat="59.164383451064" lon="17.865787503732">
        <ele>119</ele>
        <time>2015-02-17T19:38:48Z</time>
      </trkpt>
      <trkpt lat="59.164428880962" lon="17.865725310034">
        <ele>119.2</ele>
        <time>2015-02-17T19:38:49Z</time>
      </trkpt>
      <trkpt lat="59.164509263383" lon="17.865634617876">
        <ele>119</ele>
        <time>2015-02-17T19:38:51Z</time>
      </trkpt>
      <trkpt lat="59.164543629173" lon="17.865554989826">
        <ele>119.2</ele>
        <time>2015-02-17T19:38:52Z</time>
      </trkpt>
      <trkpt lat="59.164647900009" lon="17.865318368789">
        <ele>119</ele>
        <time>2015-02-17T19:38:55Z</time>
      </trkpt>
      <trkpt lat="59.164816962932" lon="17.865066576513">
        <ele>118.4</ele>
        <time>2015-02-17T19:38:59Z</time>
      </trkpt>
      <trkpt lat="59.164902123036" lon="17.86494612861">
        <ele>118.8</ele>
        <time>2015-02-17T19:39:01Z</time>
      </trkpt>
      <trkpt lat="59.164949396952" lon="17.864893490278">
        <ele>118.8</ele>
        <time>2015-02-17T19:39:02Z</time>
      </trkpt>
      <trkpt lat="59.165030533744" lon="17.864751500892">
        <ele>118.8</ele>
        <time>2015-02-17T19:39:04Z</time>
      </trkpt>
      <trkpt lat="59.165146371602" lon="17.864572631146">
        <ele>118.4</ele>
        <time>2015-02-17T19:39:07Z</time>
      </trkpt>
      <trkpt lat="59.165183587238" lon="17.864533403854">
        <ele>118.4</ele>
        <time>2015-02-17T19:39:08Z</time>
      </trkpt>
      <trkpt lat="59.165256845044" lon="17.864427289">
        <ele>118</ele>
        <time>2015-02-17T19:39:10Z</time>
      </trkpt>
      <trkpt lat="59.165343346252" lon="17.864312708427">
        <ele>117.8</ele>
        <time>2015-02-17T19:39:12Z</time>
      </trkpt>
      <trkpt lat="59.165384082286" lon="17.864251352919">
        <ele>117.4</ele>
        <time>2015-02-17T19:39:13Z</time>
      </trkpt>
      <trkpt lat="59.165463710336" lon="17.864113722121">
        <ele>117</ele>
        <time>2015-02-17T19:39:15Z</time>
      </trkpt>
      <trkpt lat="59.165573848502" lon="17.863894451617">
        <ele>116.8</ele>
        <time>2015-02-17T19:39:18Z</time>
      </trkpt>
      <trkpt lat="59.165618104934" lon="17.86382127763">
        <ele>116.6</ele>
        <time>2015-02-17T19:39:19Z</time>
      </trkpt>
      <trkpt lat="59.165707539807" lon="17.863677611864">
        <ele>116.4</ele>
        <time>2015-02-17T19:39:21Z</time>
      </trkpt>
      <trkpt lat="59.165734026611" lon="17.863598235271">
        <ele>116.2</ele>
        <time>2015-02-17T19:39:22Z</time>
      </trkpt>
      <trkpt lat="59.165834777049" lon="17.86336865503">
        <ele>116.4</ele>
        <time>2015-02-17T19:39:25Z</time>
      </trkpt>
      <trkpt lat="59.165940556627" lon="17.863063721508">
        <ele>116.6</ele>
        <time>2015-02-17T19:39:29Z</time>
      </trkpt>
      <trkpt lat="59.165973413675" lon="17.862984344915">
        <ele>116.4</ele>
        <time>2015-02-17T19:39:30Z</time>
      </trkpt>
      <trkpt lat="59.16605429901" lon="17.862767588981">
        <ele>116</ele>
        <time>2015-02-17T19:39:33Z</time>
      </trkpt>
      <trkpt lat="59.166100231822" lon="17.86268888294">
        <ele>115.8</ele>
        <time>2015-02-17T19:39:34Z</time>
      </trkpt>
      <trkpt lat="59.166174579275" lon="17.862576146385">
        <ele>115.6</ele>
        <time>2015-02-17T19:39:36Z</time>
      </trkpt>
      <trkpt lat="59.16621523149" lon="17.862530716487">
        <ele>115.4</ele>
        <time>2015-02-17T19:39:37Z</time>
      </trkpt>
      <trkpt lat="59.166384881146" lon="17.862354528949">
        <ele>115.2</ele>
        <time>2015-02-17T19:39:41Z</time>
      </trkpt>
      <trkpt lat="59.16642477899" lon="17.862303064083">
        <ele>115.4</ele>
        <time>2015-02-17T19:39:42Z</time>
      </trkpt>
      <trkpt lat="59.166484793394" lon="17.862188986424">
        <ele>115</ele>
        <time>2015-02-17T19:39:44Z</time>
      </trkpt>
      <trkpt lat="59.166573054801" lon="17.862026545202">
        <ele>115</ele>
        <time>2015-02-17T19:39:46Z</time>
      </trkpt>
      <trkpt lat="59.166615718672" lon="17.861966866074">
        <ele>114.8</ele>
        <time>2015-02-17T19:39:47Z</time>
      </trkpt>
      <trkpt lat="59.166713451626" lon="17.861899559417">
        <ele>114.6</ele>
        <time>2015-02-17T19:39:49Z</time>
      </trkpt>
      <trkpt lat="59.166765754682" lon="17.861891345155">
        <ele>114.4</ele>
        <time>2015-02-17T19:39:50Z</time>
      </trkpt>
      <trkpt lat="59.166853596994" lon="17.86192696823">
        <ele>114</ele>
        <time>2015-02-17T19:39:52Z</time>
      </trkpt>
      <trkpt lat="59.166907157335" lon="17.861982707865">
        <ele>114</ele>
        <time>2015-02-17T19:39:54Z</time>
      </trkpt>
      <trkpt lat="59.166989551412" lon="17.862154788272">
        <ele>115</ele>
        <time>2015-02-17T19:39:58Z</time>
      </trkpt>
      <trkpt lat="59.167005979936" lon="17.862218909807">
        <ele>115.4</ele>
        <time>2015-02-17T19:39:59Z</time>
      </trkpt>
      <trkpt lat="59.167041938287" lon="17.862396689906">
        <ele>115.8</ele>
        <time>2015-02-17T19:40:01Z</time>
      </trkpt>
      <trkpt lat="59.167081584674" lon="17.862600621533">
        <ele>115.4</ele>
        <time>2015-02-17T19:40:03Z</time>
      </trkpt>
      <trkpt lat="59.167140341793" lon="17.86296800021">
        <ele>114</ele>
        <time>2015-02-17T19:40:06Z</time>
      </trkpt>
      <trkpt lat="59.167150316254" lon="17.86308786138">
        <ele>113.8</ele>
        <time>2015-02-17T19:40:07Z</time>
      </trkpt>
      <trkpt lat="59.167185520234" lon="17.863319704734">
        <ele>113</ele>
        <time>2015-02-17T19:40:09Z</time>
      </trkpt>
      <trkpt lat="59.167265064465" lon="17.863637127287">
        <ele>112.8</ele>
        <time>2015-02-17T19:40:12Z</time>
      </trkpt>
      <trkpt lat="59.167307812155" lon="17.863854553773">
        <ele>112.8</ele>
        <time>2015-02-17T19:40:14Z</time>
      </trkpt>
      <trkpt lat="59.167362126867" lon="17.864082709091">
        <ele>112.8</ele>
        <time>2015-02-17T19:40:16Z</time>
      </trkpt>
      <trkpt lat="59.167399677779" lon="17.86419343399">
        <ele>112.6</ele>
        <time>2015-02-17T19:40:17Z</time>
      </trkpt>
      <trkpt lat="59.167458686355" lon="17.864429049199">
        <ele>111.6</ele>
        <time>2015-02-17T19:40:19Z</time>
      </trkpt>
      <trkpt lat="59.167543930278" lon="17.864663574761">
        <ele>111</ele>
        <time>2015-02-17T19:40:21Z</time>
      </trkpt>
      <trkpt lat="59.167561532268" lon="17.864803720129">
        <ele>110.2</ele>
        <time>2015-02-17T19:40:22Z</time>
      </trkpt>
      <trkpt lat="59.167593634945" lon="17.865056099138">
        <ele>109.2</ele>
        <time>2015-02-17T19:40:24Z</time>
      </trkpt>
      <trkpt lat="59.167627330183" lon="17.865322140644">
        <ele>107.8</ele>
        <time>2015-02-17T19:40:26Z</time>
      </trkpt>
      <trkpt lat="59.167677118669" lon="17.865588349788">
        <ele>107.2</ele>
        <time>2015-02-17T19:40:28Z</time>
      </trkpt>
      <trkpt lat="59.167711987373" lon="17.865725393853">
        <ele>106.8</ele>
        <time>2015-02-17T19:40:29Z</time>
      </trkpt>
      <trkpt lat="59.167762362592" lon="17.865831508707">
        <ele>106.2</ele>
        <time>2015-02-17T19:40:30Z</time>
      </trkpt>
      <trkpt lat="59.167809804146" lon="17.865935528086">
        <ele>105.8</ele>
        <time>2015-02-17T19:40:31Z</time>
      </trkpt>
      <trkpt lat="59.167949614238" lon="17.866240796884">
        <ele>104.4</ele>
        <time>2015-02-17T19:40:34Z</time>
      </trkpt>
      <trkpt lat="59.168052711608" lon="17.866454535334">
        <ele>103.8</ele>
        <time>2015-02-17T19:40:36Z</time>
      </trkpt>
      <trkpt lat="59.168149690191" lon="17.866639691505">
        <ele>103.2</ele>
        <time>2015-02-17T19:40:38Z</time>
      </trkpt>
      <trkpt lat="59.168227893318" lon="17.86681696869">
        <ele>102.8</ele>
        <time>2015-02-17T19:40:40Z</time>
      </trkpt>
      <trkpt lat="59.168270641008" lon="17.866885616451">
        <ele>102.4</ele>
        <time>2015-02-17T19:40:41Z</time>
      </trkpt>
      <trkpt lat="59.168311293223" lon="17.866974632229">
        <ele>102.2</ele>
        <time>2015-02-17T19:40:42Z</time>
      </trkpt>
      <trkpt lat="59.168456970645" lon="17.867219383709">
        <ele>102</ele>
        <time>2015-02-17T19:40:45Z</time>
      </trkpt>
      <trkpt lat="59.168494605376" lon="17.867359361439">
        <ele>102.4</ele>
        <time>2015-02-17T19:40:46Z</time>
      </trkpt>
      <trkpt lat="59.168549255364" lon="17.867549882026">
        <ele>102.8</ele>
        <time>2015-02-17T19:40:48Z</time>
      </trkpt>
      <trkpt lat="59.168574987797" lon="17.867872417538">
        <ele>102.6</ele>
        <time>2015-02-17T19:40:51Z</time>
      </trkpt>
      <trkpt lat="59.16855964892" lon="17.86797367089">
        <ele>102.2</ele>
        <time>2015-02-17T19:40:52Z</time>
      </trkpt>
      <trkpt lat="59.168489743874" lon="17.868274832557">
        <ele>102</ele>
        <time>2015-02-17T19:40:55Z</time>
      </trkpt>
      <trkpt lat="59.16843475861" lon="17.868568618152">
        <ele>101.6</ele>
        <time>2015-02-17T19:40:58Z</time>
      </trkpt>
      <trkpt lat="59.16843392042" lon="17.868738016351">
        <ele>101.4</ele>
        <time>2015-02-17T19:41:00Z</time>
      </trkpt>
      <trkpt lat="59.168484379458" lon="17.868902972143">
        <ele>101.8</ele>
        <time>2015-02-17T19:41:02Z</time>
      </trkpt>
      <trkpt lat="59.168581693317" lon="17.869135066954">
        <ele>101.8</ele>
        <time>2015-02-17T19:41:05Z</time>
      </trkpt>
      <trkpt lat="59.168632739088" lon="17.869243864016">
        <ele>101.4</ele>
        <time>2015-02-17T19:41:07Z</time>
      </trkpt>
      <trkpt lat="59.16864682068" lon="17.869479311587">
        <ele>101.8</ele>
        <time>2015-02-17T19:41:10Z</time>
      </trkpt>
      <trkpt lat="59.168650676354" lon="17.869629515235">
        <ele>102</ele>
        <time>2015-02-17T19:41:12Z</time>
      </trkpt>
      <trkpt lat="59.168628212862" lon="17.869826825161">
        <ele>102.4</ele>
        <time>2015-02-17T19:41:15Z</time>
      </trkpt>
      <trkpt lat="59.168591164864" lon="17.869885330823">
        <ele>102.4</ele>
        <time>2015-02-17T19:41:16Z</time>
      </trkpt>
      <trkpt lat="59.168447918193" lon="17.869966719072">
        <ele>102.6</ele>
        <time>2015-02-17T19:41:19Z</time>
      </trkpt>
      <trkpt lat="59.168409529091" lon="17.869969317461">
        <ele>102.6</ele>
        <time>2015-02-17T19:41:20Z</time>
      </trkpt>
      <trkpt lat="59.168354376189" lon="17.869946602512">
        <ele>103.2</ele>
        <time>2015-02-17T19:41:22Z</time>
      </trkpt>
      <trkpt lat="59.168334846362" lon="17.86992916816">
        <ele>103.4</ele>
        <time>2015-02-17T19:41:23Z</time>
      </trkpt>
      <trkpt lat="59.168262426746" lon="17.869927324142">
        <ele>104.4</ele>
        <time>2015-02-17T19:41:25Z</time>
      </trkpt>
      <trkpt lat="59.168227809499" lon="17.869922127364">
        <ele>104.8</ele>
        <time>2015-02-17T19:41:26Z</time>
      </trkpt>
      <trkpt lat="59.168139799549" lon="17.869908381048">
        <ele>105.6</ele>
        <time>2015-02-17T19:41:29Z</time>
      </trkpt>
      <trkpt lat="59.168083221724" lon="17.869907039944">
        <ele>106.2</ele>
        <time>2015-02-17T19:41:31Z</time>
      </trkpt>
      <trkpt lat="59.168065703553" lon="17.869924474296">
        <ele>106.4</ele>
        <time>2015-02-17T19:41:32Z</time>
      </trkpt>
      <trkpt lat="59.167984482942" lon="17.87004483838">
        <ele>106.6</ele>
        <time>2015-02-17T19:41:35Z</time>
      </trkpt>
      <trkpt lat="59.167910386946" lon="17.870206692869">
        <ele>107</ele>
        <time>2015-02-17T19:41:39Z</time>
      </trkpt>
      <trkpt lat="59.16789999339" lon="17.870260001753">
        <ele>107.2</ele>
        <time>2015-02-17T19:41:40Z</time>
      </trkpt>
      <trkpt lat="59.167892365861" lon="17.870364691684">
        <ele>107.8</ele>
        <time>2015-02-17T19:41:42Z</time>
      </trkpt>
      <trkpt lat="59.16789496425" lon="17.870426382468">
        <ele>108</ele>
        <time>2015-02-17T19:41:43Z</time>
      </trkpt>
      <trkpt lat="59.167922708339" lon="17.870491761288">
        <ele>108.4</ele>
        <time>2015-02-17T19:41:44Z</time>
      </trkpt>
      <trkpt lat="59.167961432717" lon="17.87063157138">
        <ele>108.4</ele>
        <time>2015-02-17T19:41:46Z</time>
      </trkpt>
      <trkpt lat="59.167966545676" lon="17.870796778629">
        <ele>108</ele>
        <time>2015-02-17T19:41:48Z</time>
      </trkpt>
      <trkpt lat="59.167944166003" lon="17.870989059415">
        <ele>107.6</ele>
        <time>2015-02-17T19:41:50Z</time>
      </trkpt>
      <trkpt lat="59.167943411632" lon="17.871152338827">
        <ele>107.6</ele>
        <time>2015-02-17T19:41:52Z</time>
      </trkpt>
      <trkpt lat="59.167950200971" lon="17.871290975453">
        <ele>107.6</ele>
        <time>2015-02-17T19:41:54Z</time>
      </trkpt>
      <trkpt lat="59.167906028358" lon="17.871437155789">
        <ele>107.2</ele>
        <time>2015-02-17T19:41:57Z</time>
      </trkpt>
      <trkpt lat="59.167771415044" lon="17.871558274244">
        <ele>108.4</ele>
        <time>2015-02-17T19:42:02Z</time>
      </trkpt>
      <trkpt lat="59.167752388131" lon="17.87157621151">
        <ele>109</ele>
        <time>2015-02-17T19:42:03Z</time>
      </trkpt>
      <trkpt lat="59.167702012912" lon="17.871604123237">
        <ele>110.4</ele>
        <time>2015-02-17T19:42:05Z</time>
      </trkpt>
      <trkpt lat="59.167646440915" lon="17.871672938636">
        <ele>111.6</ele>
        <time>2015-02-17T19:42:07Z</time>
      </trkpt>
      <trkpt lat="59.167609057641" lon="17.871709232263">
        <ele>112.2</ele>
        <time>2015-02-17T19:42:09Z</time>
      </trkpt>
      <trkpt lat="59.167557341318" lon="17.871777963843">
        <ele>112.6</ele>
        <time>2015-02-17T19:42:11Z</time>
      </trkpt>
      <trkpt lat="59.167524568089" lon="17.871809312149">
        <ele>112.8</ele>
        <time>2015-02-17T19:42:12Z</time>
      </trkpt>
      <trkpt lat="59.167386266739" lon="17.871885587439">
        <ele>113.6</ele>
        <time>2015-02-17T19:42:17Z</time>
      </trkpt>
      <trkpt lat="59.167370676405" lon="17.871880893575">
        <ele>113.6</ele>
        <time>2015-02-17T19:42:18Z</time>
      </trkpt>
      <trkpt lat="59.167226843001" lon="17.87187963629">
        <ele>114.6</ele>
        <time>2015-02-17T19:42:23Z</time>
      </trkpt>
      <trkpt lat="59.16719088465" lon="17.871891957683">
        <ele>114.8</ele>
        <time>2015-02-17T19:42:24Z</time>
      </trkpt>
      <trkpt lat="59.167112681523" lon="17.871912158062">
        <ele>115.6</ele>
        <time>2015-02-17T19:42:27Z</time>
      </trkpt>
      <trkpt lat="59.167090553307" lon="17.87190226742">
        <ele>115.8</ele>
        <time>2015-02-17T19:42:28Z</time>
      </trkpt>
      <trkpt lat="59.167061551933" lon="17.871878295186">
        <ele>116</ele>
        <time>2015-02-17T19:42:29Z</time>
      </trkpt>
      <trkpt lat="59.166999609692" lon="17.871837056238">
        <ele>116.6</ele>
        <time>2015-02-17T19:42:32Z</time>
      </trkpt>
      <trkpt lat="59.166927190076" lon="17.871804785923">
        <ele>117</ele>
        <time>2015-02-17T19:42:35Z</time>
      </trkpt>
      <trkpt lat="59.166906402964" lon="17.871800930249">
        <ele>117</ele>
        <time>2015-02-17T19:42:36Z</time>
      </trkpt>
      <trkpt lat="59.16686063779" lon="17.871814341289">
        <ele>117</ele>
        <time>2015-02-17T19:42:37Z</time>
      </trkpt>
      <trkpt lat="59.166838090479" lon="17.871826075949">
        <ele>117</ele>
        <time>2015-02-17T19:42:38Z</time>
      </trkpt>
      <trkpt lat="59.166770867641" lon="17.871901345411">
        <ele>117.4</ele>
        <time>2015-02-17T19:42:41Z</time>
      </trkpt>
      <trkpt lat="59.166699789129" lon="17.872016847993">
        <ele>118</ele>
        <time>2015-02-17T19:42:45Z</time>
      </trkpt>
      <trkpt lat="59.166680007845" lon="17.872038221838">
        <ele>118.2</ele>
        <time>2015-02-17T19:42:46Z</time>
      </trkpt>
      <trkpt lat="59.166527708722" lon="17.872218432688">
        <ele>119.4</ele>
        <time>2015-02-17T19:42:51Z</time>
      </trkpt>
      <trkpt lat="59.166447913034" lon="17.872262018568">
        <ele>120.2</ele>
        <time>2015-02-17T19:42:54Z</time>
      </trkpt>
      <trkpt lat="59.16641639709" lon="17.872276016341">
        <ele>120.6</ele>
        <time>2015-02-17T19:42:55Z</time>
      </trkpt>
      <trkpt lat="59.166319502326" lon="17.872293031598">
        <ele>120.8</ele>
        <time>2015-02-17T19:42:58Z</time>
      </trkpt>
      <trkpt lat="59.166202993916" lon="17.872336785116">
        <ele>121.6</ele>
        <time>2015-02-17T19:43:02Z</time>
      </trkpt>
      <trkpt lat="59.166088329524" lon="17.872370983268">
        <ele>121.8</ele>
        <time>2015-02-17T19:43:06Z</time>
      </trkpt>
      <trkpt lat="59.165989255466" lon="17.872401912479">
        <ele>122.6</ele>
        <time>2015-02-17T19:43:10Z</time>
      </trkpt>
      <trkpt lat="59.165962852481" lon="17.872425717075">
        <ele>123</ele>
        <time>2015-02-17T19:43:11Z</time>
      </trkpt>
      <trkpt lat="59.165905771742" lon="17.872454969906">
        <ele>123.8</ele>
        <time>2015-02-17T19:43:13Z</time>
      </trkpt>
      <trkpt lat="59.165893450349" lon="17.872477684855">
        <ele>124</ele>
        <time>2015-02-17T19:43:14Z</time>
      </trkpt>
      <trkpt lat="59.165869226658" lon="17.872496627949">
        <ele>124.4</ele>
        <time>2015-02-17T19:43:15Z</time>
      </trkpt>
      <trkpt lat="59.1657617707" lon="17.872532418662">
        <ele>124.6</ele>
        <time>2015-02-17T19:43:18Z</time>
      </trkpt>
      <trkpt lat="59.165708210359" lon="17.872559995113">
        <ele>124.8</ele>
        <time>2015-02-17T19:43:19Z</time>
      </trkpt>
      <trkpt lat="59.165635371648" lon="17.872601904613">
        <ele>125</ele>
        <time>2015-02-17T19:43:22Z</time>
      </trkpt>
      <trkpt lat="59.165436972075" lon="17.872640377534">
        <ele>125.8</ele>
        <time>2015-02-17T19:43:28Z</time>
      </trkpt>
      <trkpt lat="59.165216444286" lon="17.872614561282">
        <ele>126.6</ele>
        <time>2015-02-17T19:43:32Z</time>
      </trkpt>
      <trkpt lat="59.165073365253" lon="17.872575585447">
        <ele>126.4</ele>
        <time>2015-02-17T19:43:34Z</time>
      </trkpt>
      <trkpt lat="59.164938165206" lon="17.872543566589">
        <ele>125</ele>
        <time>2015-02-17T19:43:36Z</time>
      </trkpt>
      <trkpt lat="59.16487664206" lon="17.872546164978">
        <ele>124.2</ele>
        <time>2015-02-17T19:43:37Z</time>
      </trkpt>
      <trkpt lat="59.164756445614" lon="17.872568377013">
        <ele>123.2</ele>
        <time>2015-02-17T19:43:39Z</time>
      </trkpt>
      <trkpt lat="59.164704896929" lon="17.872605844106">
        <ele>122.6</ele>
        <time>2015-02-17T19:43:40Z</time>
      </trkpt>
      <trkpt lat="59.164599536446" lon="17.872699972843">
        <ele>122.8</ele>
        <time>2015-02-17T19:43:42Z</time>
      </trkpt>
      <trkpt lat="59.164528709391" lon="17.872819163461">
        <ele>123</ele>
        <time>2015-02-17T19:43:44Z</time>
      </trkpt>
      <trkpt lat="59.164415469922" lon="17.873033321006">
        <ele>123.2</ele>
        <time>2015-02-17T19:43:47Z</time>
      </trkpt>
      <trkpt lat="59.164386971462" lon="17.873110769762">
        <ele>123.2</ele>
        <time>2015-02-17T19:43:48Z</time>
      </trkpt>
      <trkpt lat="59.164345481057" lon="17.873191319821">
        <ele>123</ele>
        <time>2015-02-17T19:43:49Z</time>
      </trkpt>
      <trkpt lat="59.164223859688" lon="17.873447135409">
        <ele>122.2</ele>
        <time>2015-02-17T19:43:52Z</time>
      </trkpt>
      <trkpt lat="59.164183375111" lon="17.873538917214">
        <ele>122</ele>
        <time>2015-02-17T19:43:53Z</time>
      </trkpt>
      <trkpt lat="59.164130317684" lon="17.873637236901">
        <ele>121.8</ele>
        <time>2015-02-17T19:43:54Z</time>
      </trkpt>
      <trkpt lat="59.164053036566" lon="17.873866817142">
        <ele>121</ele>
        <time>2015-02-17T19:43:56Z</time>
      </trkpt>
      <trkpt lat="59.164018754595" lon="17.873978547869">
        <ele>120.8</ele>
        <time>2015-02-17T19:43:57Z</time>
      </trkpt>
      <trkpt lat="59.163936109061" lon="17.874238722045">
        <ele>119.4</ele>
        <time>2015-02-17T19:43:59Z</time>
      </trkpt>
      <trkpt lat="59.163837789374" lon="17.874510882338">
        <ele>117.6</ele>
        <time>2015-02-17T19:44:01Z</time>
      </trkpt>
      <trkpt lat="59.163781546825" lon="17.874653626095">
        <ele>116.6</ele>
        <time>2015-02-17T19:44:02Z</time>
      </trkpt>
      <trkpt lat="59.163686663717" lon="17.874872393685">
        <ele>114.6</ele>
        <time>2015-02-17T19:44:04Z</time>
      </trkpt>
      <trkpt lat="59.163656488877" lon="17.875045647558">
        <ele>113.4</ele>
        <time>2015-02-17T19:44:05Z</time>
      </trkpt>
      <trkpt lat="59.163634779756" lon="17.875186631116">
        <ele>112.6</ele>
        <time>2015-02-17T19:44:06Z</time>
      </trkpt>
      <trkpt lat="59.163619943793" lon="17.875317388756">
        <ele>112.2</ele>
        <time>2015-02-17T19:44:07Z</time>
      </trkpt>
      <trkpt lat="59.163603012355" lon="17.875595835474">
        <ele>112.2</ele>
        <time>2015-02-17T19:44:09Z</time>
      </trkpt>
      <trkpt lat="59.163585158908" lon="17.875867409034">
        <ele>112</ele>
        <time>2015-02-17T19:44:11Z</time>
      </trkpt>
      <trkpt lat="59.163561354312" lon="17.876138647318">
        <ele>112.4</ele>
        <time>2015-02-17T19:44:14Z</time>
      </trkpt>
      <trkpt lat="59.163555822258" lon="17.876345680248">
        <ele>113.2</ele>
        <time>2015-02-17T19:44:16Z</time>
      </trkpt>
      <trkpt lat="59.163536040974" lon="17.876521951605">
        <ele>113.2</ele>
        <time>2015-02-17T19:44:18Z</time>
      </trkpt>
      <trkpt lat="59.163513158387" lon="17.876657906023">
        <ele>113.4</ele>
        <time>2015-02-17T19:44:19Z</time>
      </trkpt>
      <trkpt lat="59.16343495526" lon="17.876786149093">
        <ele>112.8</ele>
        <time>2015-02-17T19:44:21Z</time>
      </trkpt>
      <trkpt lat="59.163343257274" lon="17.876778521564">
        <ele>112</ele>
        <time>2015-02-17T19:44:23Z</time>
      </trkpt>
      <trkpt lat="59.163303443249" lon="17.876745161602">
        <ele>111.2</ele>
        <time>2015-02-17T19:44:24Z</time>
      </trkpt>
      <trkpt lat="59.163277459359" lon="17.876714902943">
        <ele>110.8</ele>
        <time>2015-02-17T19:44:25Z</time>
      </trkpt>
      <trkpt lat="59.163250804917" lon="17.876668299579">
        <ele>111.2</ele>
        <time>2015-02-17T19:44:27Z</time>
      </trkpt>
      <trkpt lat="59.163206297028" lon="17.876609710098">
        <ele>111.8</ele>
        <time>2015-02-17T19:44:29Z</time>
      </trkpt>
      <trkpt lat="59.163178720577" lon="17.876567884417">
        <ele>112.4</ele>
        <time>2015-02-17T19:44:30Z</time>
      </trkpt>
      <trkpt lat="59.163154664524" lon="17.87651901794">
        <ele>113</ele>
        <time>2015-02-17T19:44:31Z</time>
      </trkpt>
      <trkpt lat="59.163123651494" lon="17.876423715737">
        <ele>113.8</ele>
        <time>2015-02-17T19:44:34Z</time>
      </trkpt>
      <trkpt lat="59.163122813304" lon="17.87642262609">
        <ele>114.2</ele>
        <time>2015-02-17T19:44:35Z</time>
      </trkpt>
      <trkpt lat="59.163127842444" lon="17.876420279158">
        <ele>114.4</ele>
        <time>2015-02-17T19:44:36Z</time>
      </trkpt>
      <trkpt lat="59.163172266514" lon="17.876027251867">
        <ele>114.4</ele>
        <time>2015-02-17T19:45:50Z</time>
      </trkpt>
      <trkpt lat="59.163174529627" lon="17.875979055942">
        <ele>114.4</ele>
        <time>2015-02-17T19:45:51Z</time>
      </trkpt>
      <trkpt lat="59.163192885988" lon="17.875574293991">
        <ele>114</ele>
        <time>2015-02-17T19:45:55Z</time>
      </trkpt>
      <trkpt lat="59.163151730859" lon="17.875164586719">
        <ele>112.6</ele>
        <time>2015-02-17T19:45:59Z</time>
      </trkpt>
      <trkpt lat="59.163135972887" lon="17.875076325312">
        <ele>112.6</ele>
        <time>2015-02-17T19:46:00Z</time>
      </trkpt>
      <trkpt lat="59.16314745609" lon="17.874827885796">
        <ele>113.2</ele>
        <time>2015-02-17T19:46:03Z</time>
      </trkpt>
      <trkpt lat="59.163154329248" lon="17.874719172553">
        <ele>113.4</ele>
        <time>2015-02-17T19:46:04Z</time>
      </trkpt>
      <trkpt lat="59.163158687836" lon="17.874396050308">
        <ele>113.2</ele>
        <time>2015-02-17T19:46:07Z</time>
      </trkpt>
      <trkpt lat="59.163157179094" lon="17.874310303471">
        <ele>113</ele>
        <time>2015-02-17T19:46:08Z</time>
      </trkpt>
      <trkpt lat="59.16314997066" lon="17.87410922169">
        <ele>113.2</ele>
        <time>2015-02-17T19:46:10Z</time>
      </trkpt>
      <trkpt lat="59.163120214915" lon="17.873946529011">
        <ele>113.2</ele>
        <time>2015-02-17T19:46:12Z</time>
      </trkpt>
      <trkpt lat="59.16309213555" lon="17.873791631499">
        <ele>113.4</ele>
        <time>2015-02-17T19:46:14Z</time>
      </trkpt>
      <trkpt lat="59.163074198284" lon="17.873723570471">
        <ele>113.6</ele>
        <time>2015-02-17T19:46:15Z</time>
      </trkpt>
      <trkpt lat="59.16303849139" lon="17.873584598569">
        <ele>113.4</ele>
        <time>2015-02-17T19:46:17Z</time>
      </trkpt>
      <trkpt lat="59.163024409798" lon="17.873346133514">
        <ele>114</ele>
        <time>2015-02-17T19:46:21Z</time>
      </trkpt>
      <trkpt lat="59.163055422828" lon="17.873198863531">
        <ele>114.2</ele>
        <time>2015-02-17T19:46:23Z</time>
      </trkpt>
      <trkpt lat="59.163071348438" lon="17.87311177559">
        <ele>114.4</ele>
        <time>2015-02-17T19:46:24Z</time>
      </trkpt>
      <trkpt lat="59.163092051731" lon="17.872695362798">
        <ele>114.2</ele>
        <time>2015-02-17T19:46:29Z</time>
      </trkpt>
      <trkpt lat="59.163095823586" lon="17.872447510015">
        <ele>114.4</ele>
        <time>2015-02-17T19:46:32Z</time>
      </trkpt>
      <trkpt lat="59.163106552418" lon="17.872291439037">
        <ele>114.2</ele>
        <time>2015-02-17T19:46:34Z</time>
      </trkpt>
      <trkpt lat="59.163121723657" lon="17.872096978957">
        <ele>114.2</ele>
        <time>2015-02-17T19:46:36Z</time>
      </trkpt>
      <trkpt lat="59.163156759999" lon="17.871927580758">
        <ele>114</ele>
        <time>2015-02-17T19:46:38Z</time>
      </trkpt>
      <trkpt lat="59.163186096649" lon="17.871723649131">
        <ele>114</ele>
        <time>2015-02-17T19:46:41Z</time>
      </trkpt>
      <trkpt lat="59.163194310911" lon="17.871531703621">
        <ele>113.8</ele>
        <time>2015-02-17T19:46:43Z</time>
      </trkpt>
      <trkpt lat="59.16320696758" lon="17.871457523806">
        <ele>113.6</ele>
        <time>2015-02-17T19:46:44Z</time>
      </trkpt>
      <trkpt lat="59.16321032034" lon="17.871265159201">
        <ele>113.4</ele>
        <time>2015-02-17T19:46:46Z</time>
      </trkpt>
      <trkpt lat="59.163223982837" lon="17.871080673582">
        <ele>113.2</ele>
        <time>2015-02-17T19:46:48Z</time>
      </trkpt>
      <trkpt lat="59.163287685277" lon="17.870913873772">
        <ele>113.4</ele>
        <time>2015-02-17T19:46:50Z</time>
      </trkpt>
      <trkpt lat="59.163350633346" lon="17.870805495805">
        <ele>113.6</ele>
        <time>2015-02-17T19:46:52Z</time>
      </trkpt>
      <trkpt lat="59.163392123751" lon="17.870759060079">
        <ele>113.6</ele>
        <time>2015-02-17T19:46:53Z</time>
      </trkpt>
      <trkpt lat="59.163478457321" lon="17.870595361572">
        <ele>113.8</ele>
        <time>2015-02-17T19:46:57Z</time>
      </trkpt>
      <trkpt lat="59.163492622732" lon="17.870550183131">
        <ele>113.8</ele>
        <time>2015-02-17T19:46:58Z</time>
      </trkpt>
      <trkpt lat="59.163544171417" lon="17.870283471073">
        <ele>114.2</ele>
        <time>2015-02-17T19:47:02Z</time>
      </trkpt>
      <trkpt lat="59.163530341282" lon="17.870143493343">
        <ele>114.6</ele>
        <time>2015-02-17T19:47:04Z</time>
      </trkpt>
      <trkpt lat="59.163498573881" lon="17.870005191993">
        <ele>114.4</ele>
        <time>2015-02-17T19:47:06Z</time>
      </trkpt>
      <trkpt lat="59.163496646044" lon="17.869935622223">
        <ele>114</ele>
        <time>2015-02-17T19:47:07Z</time>
      </trkpt>
      <trkpt lat="59.163499328252" lon="17.869853563422">
        <ele>113.4</ele>
        <time>2015-02-17T19:47:08Z</time>
      </trkpt>
      <trkpt lat="59.163520534459" lon="17.869518874155">
        <ele>113.4</ele>
        <time>2015-02-17T19:47:12Z</time>
      </trkpt>
      <trkpt lat="59.163529335454" lon="17.869156776075">
        <ele>114</ele>
        <time>2015-02-17T19:47:16Z</time>
      </trkpt>
      <trkpt lat="59.163541908304" lon="17.869077315663">
        <ele>114.2</ele>
        <time>2015-02-17T19:47:17Z</time>
      </trkpt>
      <trkpt lat="59.163565964357" lon="17.869005231323">
        <ele>114.8</ele>
        <time>2015-02-17T19:47:18Z</time>
      </trkpt>
      <trkpt lat="59.163580297406" lon="17.868755283065">
        <ele>114.8</ele>
        <time>2015-02-17T19:47:21Z</time>
      </trkpt>
      <trkpt lat="59.163574849171" lon="17.868487397541">
        <ele>114.6</ele>
        <time>2015-02-17T19:47:24Z</time>
      </trkpt>
      <trkpt lat="59.163570825859" lon="17.868089927843">
        <ele>114.2</ele>
        <time>2015-02-17T19:47:28Z</time>
      </trkpt>
      <trkpt lat="59.163574178619" lon="17.867967887379">
        <ele>114.2</ele>
        <time>2015-02-17T19:47:29Z</time>
      </trkpt>
      <trkpt lat="59.163545763978" lon="17.867666725712">
        <ele>114.6</ele>
        <time>2015-02-17T19:47:33Z</time>
      </trkpt>
      <trkpt lat="59.163550541661" lon="17.867353913204">
        <ele>114.8</ele>
        <time>2015-02-17T19:47:37Z</time>
      </trkpt>
      <trkpt lat="59.163569484755" lon="17.867171942155">
        <ele>115.4</ele>
        <time>2015-02-17T19:47:40Z</time>
      </trkpt>
      <trkpt lat="59.163586835288" lon="17.86710614424">
        <ele>115.8</ele>
        <time>2015-02-17T19:47:41Z</time>
      </trkpt>
      <trkpt lat="59.163651040642" lon="17.866914953101">
        <ele>117</ele>
        <time>2015-02-17T19:47:44Z</time>
      </trkpt>
      <trkpt lat="59.163703343698" lon="17.866826272599">
        <ele>117.8</ele>
        <time>2015-02-17T19:47:46Z</time>
      </trkpt>
      <trkpt lat="59.16372832176" lon="17.866784446918">
        <ele>118.2</ele>
        <time>2015-02-17T19:47:47Z</time>
      </trkpt>
      <trkpt lat="59.163852457699" lon="17.866610438674">
        <ele>118.8</ele>
        <time>2015-02-17T19:47:51Z</time>
      </trkpt>
      <trkpt lat="59.163899480158" lon="17.866526200579">
        <ele>119.4</ele>
        <time>2015-02-17T19:47:53Z</time>
      </trkpt>
      <trkpt lat="59.163955722707" lon="17.866434586412">
        <ele>120</ele>
        <time>2015-02-17T19:47:55Z</time>
      </trkpt>
      <trkpt lat="59.164013054903" lon="17.866335512354">
        <ele>120.4</ele>
        <time>2015-02-17T19:47:57Z</time>
      </trkpt>
      <trkpt lat="59.164072147298" lon="17.86625370501">
        <ele>120.8</ele>
        <time>2015-02-17T19:47:59Z</time>
      </trkpt>
      <trkpt lat="59.164209945734" lon="17.866029740642">
        <ele>121.2</ele>
        <time>2015-02-17T19:48:04Z</time>
      </trkpt>
      <trkpt lat="59.164338440261" lon="17.865867047963">
        <ele>121.6</ele>
        <time>2015-02-17T19:48:08Z</time>
      </trkpt>
      <trkpt lat="59.164462827657" lon="17.865666385277">
        <ele>122</ele>
        <time>2015-02-17T19:48:12Z</time>
      </trkpt>
      <trkpt lat="59.164601799559" lon="17.865453987931">
        <ele>121.6</ele>
        <time>2015-02-17T19:48:16Z</time>
      </trkpt>
      <trkpt lat="59.164761726211" lon="17.865229939744">
        <ele>121</ele>
        <time>2015-02-17T19:48:20Z</time>
      </trkpt>
      <trkpt lat="59.164791481956" lon="17.865169590064">
        <ele>121.2</ele>
        <time>2015-02-17T19:48:21Z</time>
      </trkpt>
      <trkpt lat="59.164938165206" lon="17.864932298475">
        <ele>121.2</ele>
        <time>2015-02-17T19:48:25Z</time>
      </trkpt>
      <trkpt lat="59.165092978899" lon="17.86466784953">
        <ele>120.4</ele>
        <time>2015-02-17T19:48:29Z</time>
      </trkpt>
      <trkpt lat="59.16526220946" lon="17.864413458865">
        <ele>119.8</ele>
        <time>2015-02-17T19:48:33Z</time>
      </trkpt>
      <trkpt lat="59.16531250086" lon="17.864344224371">
        <ele>119.6</ele>
        <time>2015-02-17T19:48:34Z</time>
      </trkpt>
      <trkpt lat="59.165354745636" lon="17.864292843324">
        <ele>119.4</ele>
        <time>2015-02-17T19:48:35Z</time>
      </trkpt>
      <trkpt lat="59.165393050919" lon="17.864230062893">
        <ele>119.2</ele>
        <time>2015-02-17T19:48:36Z</time>
      </trkpt>
      <trkpt lat="59.165453652056" lon="17.864145824798">
        <ele>119</ele>
        <time>2015-02-17T19:48:37Z</time>
      </trkpt>
      <trkpt lat="59.165542248739" lon="17.864008529276">
        <ele>119.2</ele>
        <time>2015-02-17T19:48:39Z</time>
      </trkpt>
      <trkpt lat="59.165616009459" lon="17.863867880994">
        <ele>118.8</ele>
        <time>2015-02-17T19:48:41Z</time>
      </trkpt>
      <trkpt lat="59.165726482901" lon="17.863641485875">
        <ele>118.6</ele>
        <time>2015-02-17T19:48:44Z</time>
      </trkpt>
      <trkpt lat="59.165774762645" lon="17.863472422952">
        <ele>118.6</ele>
        <time>2015-02-17T19:48:46Z</time>
      </trkpt>
      <trkpt lat="59.165910214149" lon="17.863184756144">
        <ele>118.6</ele>
        <time>2015-02-17T19:48:51Z</time>
      </trkpt>
      <trkpt lat="59.16599059657" lon="17.863013765384">
        <ele>118.4</ele>
        <time>2015-02-17T19:48:53Z</time>
      </trkpt>
      <trkpt lat="59.166020855229" lon="17.862938831198">
        <ele>118.2</ele>
        <time>2015-02-17T19:48:54Z</time>
      </trkpt>
      <trkpt lat="59.166105680057" lon="17.862812013051">
        <ele>118</ele>
        <time>2015-02-17T19:48:56Z</time>
      </trkpt>
      <trkpt lat="59.166149265937" lon="17.862748478249">
        <ele>118</ele>
        <time>2015-02-17T19:48:57Z</time>
      </trkpt>
      <trkpt lat="59.166277089912" lon="17.862631215468">
        <ele>117.8</ele>
        <time>2015-02-17T19:49:00Z</time>
      </trkpt>
      <trkpt lat="59.166432741795" lon="17.862412447878">
        <ele>117.8</ele>
        <time>2015-02-17T19:49:04Z</time>
      </trkpt>
      <trkpt lat="59.166560398132" lon="17.862133498246">
        <ele>117.4</ele>
        <time>2015-02-17T19:49:08Z</time>
      </trkpt>
      <trkpt lat="59.166662741131" lon="17.861967033712">
        <ele>117</ele>
        <time>2015-02-17T19:49:10Z</time>
      </trkpt>
      <trkpt lat="59.166714708911" lon="17.861922106728">
        <ele>117</ele>
        <time>2015-02-17T19:49:11Z</time>
      </trkpt>
      <trkpt lat="59.166762401922" lon="17.861882208884">
        <ele>117</ele>
        <time>2015-02-17T19:49:12Z</time>
      </trkpt>
      <trkpt lat="59.1668011263" lon="17.861871982966">
        <ele>116.8</ele>
        <time>2015-02-17T19:49:13Z</time>
      </trkpt>
      <trkpt lat="59.166882011635" lon="17.861893356811">
        <ele>116.4</ele>
        <time>2015-02-17T19:49:15Z</time>
      </trkpt>
      <trkpt lat="59.166944289152" lon="17.861990000118">
        <ele>116</ele>
        <time>2015-02-17T19:49:17Z</time>
      </trkpt>
      <trkpt lat="59.166965998273" lon="17.862052445273">
        <ele>116.2</ele>
        <time>2015-02-17T19:49:18Z</time>
      </trkpt>
      <trkpt lat="59.167000866977" lon="17.862134084979">
        <ele>117</ele>
        <time>2015-02-17T19:49:20Z</time>
      </trkpt>
      <trkpt lat="59.167016708768" lon="17.862272051053">
        <ele>117.6</ele>
        <time>2015-02-17T19:49:22Z</time>
      </trkpt>
      <trkpt lat="59.167049984911" lon="17.862429546954">
        <ele>117.8</ele>
        <time>2015-02-17T19:49:24Z</time>
      </trkpt>
      <trkpt lat="59.167100443949" lon="17.862649823286">
        <ele>118</ele>
        <time>2015-02-17T19:49:26Z</time>
      </trkpt>
      <trkpt lat="59.167114944636" lon="17.862765828782">
        <ele>117.6</ele>
        <time>2015-02-17T19:49:27Z</time>
      </trkpt>
      <trkpt lat="59.167144951838" lon="17.863022901655">
        <ele>117</ele>
        <time>2015-02-17T19:49:29Z</time>
      </trkpt>
      <trkpt lat="59.167156854136" lon="17.863141756997">
        <ele>116.6</ele>
        <time>2015-02-17T19:49:30Z</time>
      </trkpt>
      <trkpt lat="59.167172360651" lon="17.863260444701">
        <ele>115.8</ele>
        <time>2015-02-17T19:49:31Z</time>
      </trkpt>
      <trkpt lat="59.167229106114" lon="17.863615669623">
        <ele>115.2</ele>
        <time>2015-02-17T19:49:34Z</time>
      </trkpt>
      <trkpt lat="59.167254419452" lon="17.863722957943">
        <ele>115.2</ele>
        <time>2015-02-17T19:49:35Z</time>
      </trkpt>
      <trkpt lat="59.167346536533" lon="17.864022107954">
        <ele>114.8</ele>
        <time>2015-02-17T19:49:38Z</time>
      </trkpt>
      <trkpt lat="59.167373190975" lon="17.864133251948">
        <ele>114.4</ele>
        <time>2015-02-17T19:49:39Z</time>
      </trkpt>
      <trkpt lat="59.167448711894" lon="17.864520160452">
        <ele>113.2</ele>
        <time>2015-02-17T19:49:42Z</time>
      </trkpt>
      <trkpt lat="59.167467152074" lon="17.864645637495">
        <ele>112.8</ele>
        <time>2015-02-17T19:49:43Z</time>
      </trkpt>
      <trkpt lat="59.167498751837" lon="17.864905560214">
        <ele>111.8</ele>
        <time>2015-02-17T19:49:45Z</time>
      </trkpt>
      <trkpt lat="59.167543343545" lon="17.865150144056">
        <ele>111.2</ele>
        <time>2015-02-17T19:49:47Z</time>
      </trkpt>
      <trkpt lat="59.167559101517" lon="17.865268580303">
        <ele>110.8</ele>
        <time>2015-02-17T19:49:48Z</time>
      </trkpt>
      <trkpt lat="59.16758315757" lon="17.865403025979">
        <ele>110.4</ele>
        <time>2015-02-17T19:49:49Z</time>
      </trkpt>
      <trkpt lat="59.167659516679" lon="17.86578850956">
        <ele>109.6</ele>
        <time>2015-02-17T19:49:52Z</time>
      </trkpt>
      <trkpt lat="59.167701174722" lon="17.865889679093">
        <ele>109</ele>
        <time>2015-02-17T19:49:53Z</time>
      </trkpt>
      <trkpt lat="59.167733528856" lon="17.866003337657">
        <ele>108.6</ele>
        <time>2015-02-17T19:49:54Z</time>
      </trkpt>
      <trkpt lat="59.167830004525" lon="17.866204084162">
        <ele>107.6</ele>
        <time>2015-02-17T19:49:56Z</time>
      </trkpt>
      <trkpt lat="59.167885241246" lon="17.86632746573">
        <ele>107.2</ele>
        <time>2015-02-17T19:49:57Z</time>
      </trkpt>
      <trkpt lat="59.167945423288" lon="17.866428719082">
        <ele>107.2</ele>
        <time>2015-02-17T19:49:58Z</time>
      </trkpt>
      <trkpt lat="59.168042988604" lon="17.866631980157">
        <ele>106.6</ele>
        <time>2015-02-17T19:50:00Z</time>
      </trkpt>
      <trkpt lat="59.168135357142" lon="17.866794421379">
        <ele>105.8</ele>
        <time>2015-02-17T19:50:02Z</time>
      </trkpt>
      <trkpt lat="59.168179697393" lon="17.866866505719">
        <ele>105.2</ele>
        <time>2015-02-17T19:50:03Z</time>
      </trkpt>
      <trkpt lat="59.16833585219" lon="17.86713212813">
        <ele>104.4</ele>
        <time>2015-02-17T19:50:06Z</time>
      </trkpt>
      <trkpt lat="59.168368457781" lon="17.867217958786">
        <ele>104.6</ele>
        <time>2015-02-17T19:50:07Z</time>
      </trkpt>
      <trkpt lat="59.168538191256" lon="17.867534794606">
        <ele>105.2</ele>
        <time>2015-02-17T19:50:11Z</time>
      </trkpt>
      <trkpt lat="59.168575323073" lon="17.867624648574">
        <ele>105.4</ele>
        <time>2015-02-17T19:50:12Z</time>
      </trkpt>
      <trkpt lat="59.168597870384" lon="17.867716262741">
        <ele>105.2</ele>
        <time>2015-02-17T19:50:13Z</time>
      </trkpt>
      <trkpt lat="59.168628631957" lon="17.868015664209">
        <ele>105</ele>
        <time>2015-02-17T19:50:16Z</time>
      </trkpt>
      <trkpt lat="59.168574233426" lon="17.868343647956">
        <ele>104</ele>
        <time>2015-02-17T19:50:19Z</time>
      </trkpt>
      <trkpt lat="59.168540705826" lon="17.86853693457">
        <ele>103.6</ele>
        <time>2015-02-17T19:50:21Z</time>
      </trkpt>
      <trkpt lat="59.168541795473" lon="17.868618658095">
        <ele>103.6</ele>
        <time>2015-02-17T19:50:22Z</time>
      </trkpt>
      <trkpt lat="59.168614634184" lon="17.868993496663">
        <ele>104</ele>
        <time>2015-02-17T19:50:26Z</time>
      </trkpt>
      <trkpt lat="59.168673810398" lon="17.869304213696">
        <ele>103.6</ele>
        <time>2015-02-17T19:50:30Z</time>
      </trkpt>
      <trkpt lat="59.168672553113" lon="17.869433462594">
        <ele>103.8</ele>
        <time>2015-02-17T19:50:32Z</time>
      </trkpt>
      <trkpt lat="59.168677079339" lon="17.869588527744">
        <ele>104.4</ele>
        <time>2015-02-17T19:50:34Z</time>
      </trkpt>
      <trkpt lat="59.168667607792" lon="17.869663629568">
        <ele>104.2</ele>
        <time>2015-02-17T19:50:35Z</time>
      </trkpt>
      <trkpt lat="59.16863173326" lon="17.86976739749">
        <ele>104.4</ele>
        <time>2015-02-17T19:50:37Z</time>
      </trkpt>
      <trkpt lat="59.168534587039" lon="17.869876446009">
        <ele>104.4</ele>
        <time>2015-02-17T19:50:40Z</time>
      </trkpt>
      <trkpt lat="59.168420760837" lon="17.869932185644">
        <ele>105.2</ele>
        <time>2015-02-17T19:50:43Z</time>
      </trkpt>
      <trkpt lat="59.168404919046" lon="17.869930341626">
        <ele>105.6</ele>
        <time>2015-02-17T19:50:44Z</time>
      </trkpt>
      <trkpt lat="59.168368122505" lon="17.869910644161">
        <ele>106.6</ele>
        <time>2015-02-17T19:50:46Z</time>
      </trkpt>
      <trkpt lat="59.168320261856" lon="17.869906285573">
        <ele>107.2</ele>
        <time>2015-02-17T19:50:48Z</time>
      </trkpt>
      <trkpt lat="59.168291679577" lon="17.869905866478">
        <ele>107.6</ele>
        <time>2015-02-17T19:50:49Z</time>
      </trkpt>
      <trkpt lat="59.168265025135" lon="17.869894550913">
        <ele>108</ele>
        <time>2015-02-17T19:50:50Z</time>
      </trkpt>
      <trkpt lat="59.168204675455" lon="17.869887677755">
        <ele>108.6</ele>
        <time>2015-02-17T19:50:53Z</time>
      </trkpt>
      <trkpt lat="59.168159999928" lon="17.869910141247">
        <ele>108.8</ele>
        <time>2015-02-17T19:50:55Z</time>
      </trkpt>
      <trkpt lat="59.168137704074" lon="17.869943920304">
        <ele>108.8</ele>
        <time>2015-02-17T19:50:56Z</time>
      </trkpt>
      <trkpt lat="59.168064865363" lon="17.870080293817">
        <ele>108.8</ele>
        <time>2015-02-17T19:50:59Z</time>
      </trkpt>
      <trkpt lat="59.168045503174" lon="17.870129747027">
        <ele>109</ele>
        <time>2015-02-17T19:51:00Z</time>
      </trkpt>
      <trkpt lat="59.168007030253" lon="17.870228150533">
        <ele>109.6</ele>
        <time>2015-02-17T19:51:02Z</time>
      </trkpt>
      <trkpt lat="59.167993535394" lon="17.8703532923">
        <ele>110.2</ele>
        <time>2015-02-17T19:51:04Z</time>
      </trkpt>
      <trkpt lat="59.167999738" lon="17.870412049419">
        <ele>110.4</ele>
        <time>2015-02-17T19:51:05Z</time>
      </trkpt>
      <trkpt lat="59.167985237313" lon="17.87080675309">
        <ele>109.6</ele>
        <time>2015-02-17T19:51:10Z</time>
      </trkpt>
      <trkpt lat="59.167983309476" lon="17.870887889882">
        <ele>109.4</ele>
        <time>2015-02-17T19:51:11Z</time>
      </trkpt>
      <trkpt lat="59.167932934257" lon="17.871255352378">
        <ele>109.2</ele>
        <time>2015-02-17T19:51:15Z</time>
      </trkpt>
      <trkpt lat="59.167876021156" lon="17.871515610373">
        <ele>109.8</ele>
        <time>2015-02-17T19:51:19Z</time>
      </trkpt>
      <trkpt lat="59.167796560744" lon="17.871575540958">
        <ele>110.6</ele>
        <time>2015-02-17T19:51:22Z</time>
      </trkpt>
      <trkpt lat="59.167750125018" lon="17.871605045246">
        <ele>111.4</ele>
        <time>2015-02-17T19:51:24Z</time>
      </trkpt>
      <trkpt lat="59.167719111988" lon="17.871636477371">
        <ele>112</ele>
        <time>2015-02-17T19:51:25Z</time>
      </trkpt>
      <trkpt lat="59.167660522507" lon="17.871671094618">
        <ele>113</ele>
        <time>2015-02-17T19:51:27Z</time>
      </trkpt>
      <trkpt lat="59.16763763992" lon="17.871687439323">
        <ele>113.4</ele>
        <time>2015-02-17T19:51:28Z</time>
      </trkpt>
      <trkpt lat="59.167545019925" lon="17.871796906937">
        <ele>114.6</ele>
        <time>2015-02-17T19:51:32Z</time>
      </trkpt>
      <trkpt lat="59.167428511515" lon="17.871906206913">
        <ele>115</ele>
        <time>2015-02-17T19:51:37Z</time>
      </trkpt>
      <trkpt lat="59.167382075789" lon="17.871934621554">
        <ele>115.4</ele>
        <time>2015-02-17T19:51:39Z</time>
      </trkpt>
      <trkpt lat="59.167364725256" lon="17.871937806676">
        <ele>115.6</ele>
        <time>2015-02-17T19:51:40Z</time>
      </trkpt>
      <trkpt lat="59.167341675031" lon="17.871932945174">
        <ele>115.8</ele>
        <time>2015-02-17T19:51:41Z</time>
      </trkpt>
      <trkpt lat="59.167270009786" lon="17.871902351239">
        <ele>116.6</ele>
        <time>2015-02-17T19:51:44Z</time>
      </trkpt>
      <trkpt lat="59.167249390312" lon="17.871887934371">
        <ele>116.6</ele>
        <time>2015-02-17T19:51:45Z</time>
      </trkpt>
      <trkpt lat="59.167220556576" lon="17.87186706344">
        <ele>117</ele>
        <time>2015-02-17T19:51:46Z</time>
      </trkpt>
      <trkpt lat="59.167092229687" lon="17.871818951334">
        <ele>117.6</ele>
        <time>2015-02-17T19:51:50Z</time>
      </trkpt>
      <trkpt lat="59.166956778183" lon="17.871816939678">
        <ele>118.2</ele>
        <time>2015-02-17T19:51:54Z</time>
      </trkpt>
      <trkpt lat="59.166905397136" lon="17.871801433163">
        <ele>118.8</ele>
        <time>2015-02-17T19:51:56Z</time>
      </trkpt>
      <trkpt lat="59.1668514177" lon="17.871815011841">
        <ele>119.4</ele>
        <time>2015-02-17T19:51:58Z</time>
      </trkpt>
      <trkpt lat="59.166733484367" lon="17.871915762279">
        <ele>119.8</ele>
        <time>2015-02-17T19:52:02Z</time>
      </trkpt>
      <trkpt lat="59.166590070058" lon="17.87208164008">
        <ele>120.8</ele>
        <time>2015-02-17T19:52:07Z</time>
      </trkpt>
      <trkpt lat="59.166561990693" lon="17.872119023354">
        <ele>121</ele>
        <time>2015-02-17T19:52:08Z</time>
      </trkpt>
      <trkpt lat="59.166489738715" lon="17.872165291442">
        <ele>121.6</ele>
        <time>2015-02-17T19:52:11Z</time>
      </trkpt>
      <trkpt lat="59.166439112039" lon="17.872207117123">
        <ele>122</ele>
        <time>2015-02-17T19:52:13Z</time>
      </trkpt>
      <trkpt lat="59.166348336062" lon="17.872249613356">
        <ele>122.4</ele>
        <time>2015-02-17T19:52:16Z</time>
      </trkpt>
      <trkpt lat="59.166196875129" lon="17.872289678838">
        <ele>123</ele>
        <time>2015-02-17T19:52:21Z</time>
      </trkpt>
      <trkpt lat="59.166176423293" lon="17.872311807054">
        <ele>123.2</ele>
        <time>2015-02-17T19:52:22Z</time>
      </trkpt>
      <trkpt lat="59.166127892092" lon="17.872292612503">
        <ele>123.6</ele>
        <time>2015-02-17T19:52:24Z</time>
      </trkpt>
      <trkpt lat="59.16607860652" lon="17.872321865334">
        <ele>124.4</ele>
        <time>2015-02-17T19:52:26Z</time>
      </trkpt>
      <trkpt lat="59.165988165819" lon="17.872370899449">
        <ele>125.6</ele>
        <time>2015-02-17T19:52:29Z</time>
      </trkpt>
      <trkpt lat="59.165926475035" lon="17.872415072062">
        <ele>125.6</ele>
        <time>2015-02-17T19:52:31Z</time>
      </trkpt>
      <trkpt lat="59.165863778423" lon="17.872465782557">
        <ele>126.2</ele>
        <time>2015-02-17T19:52:34Z</time>
      </trkpt>
      <trkpt lat="59.165806278589" lon="17.872498639605">
        <ele>126.8</ele>
        <time>2015-02-17T19:52:36Z</time>
      </trkpt>
      <trkpt lat="59.165685411591" lon="17.872547925177">
        <ele>126.6</ele>
        <time>2015-02-17T19:52:40Z</time>
      </trkpt>
      <trkpt lat="59.165651716353" lon="17.872542476942">
        <ele>126.6</ele>
        <time>2015-02-17T19:52:41Z</time>
      </trkpt>
      <trkpt lat="59.165548451345" lon="17.872567874099">
        <ele>126.4</ele>
        <time>2015-02-17T19:52:44Z</time>
      </trkpt>
      <trkpt lat="59.165499584868" lon="17.872572232687">
        <ele>126.6</ele>
        <time>2015-02-17T19:52:46Z</time>
      </trkpt>
      <trkpt lat="59.165374107825" lon="17.872596204921">
        <ele>127.4</ele>
        <time>2015-02-17T19:52:49Z</time>
      </trkpt>
      <trkpt lat="59.165342005148" lon="17.872604251545">
        <ele>127.8</ele>
        <time>2015-02-17T19:52:50Z</time>
      </trkpt>
      <trkpt lat="59.165301352933" lon="17.872598970948">
        <ele>128</ele>
        <time>2015-02-17T19:52:51Z</time>
      </trkpt>
      <trkpt lat="59.165181659401" lon="17.872598970948">
        <ele>128</ele>
        <time>2015-02-17T19:52:53Z</time>
      </trkpt>
      <trkpt lat="59.165057858738" lon="17.872538705087">
        <ele>127.8</ele>
        <time>2015-02-17T19:52:55Z</time>
      </trkpt>
      <trkpt lat="59.164917042818" lon="17.872506099496">
        <ele>127</ele>
        <time>2015-02-17T19:52:57Z</time>
      </trkpt>
      <trkpt lat="59.164859459165" lon="17.872516409233">
        <ele>126.2</ele>
        <time>2015-02-17T19:52:58Z</time>
      </trkpt>
      <trkpt lat="59.164633064046" lon="17.872573573791">
        <ele>125.4</ele>
        <time>2015-02-17T19:53:02Z</time>
      </trkpt>
      <trkpt lat="59.164466012779" lon="17.872814637235">
        <ele>125.2</ele>
        <time>2015-02-17T19:53:06Z</time>
      </trkpt>
      <trkpt lat="59.164340954831" lon="17.873133987625">
        <ele>125</ele>
        <time>2015-02-17T19:53:10Z</time>
      </trkpt>
      <trkpt lat="59.16422955938" lon="17.873394748534">
        <ele>124.2</ele>
        <time>2015-02-17T19:53:13Z</time>
      </trkpt>
      <trkpt lat="59.16410383088" lon="17.873683504989">
        <ele>123.8</ele>
        <time>2015-02-17T19:53:16Z</time>
      </trkpt>
      <trkpt lat="59.164070470918" lon="17.873806383643">
        <ele>123.4</ele>
        <time>2015-02-17T19:53:17Z</time>
      </trkpt>
      <trkpt lat="59.164035769852" lon="17.873931441591">
        <ele>122.8</ele>
        <time>2015-02-17T19:53:18Z</time>
      </trkpt>
      <trkpt lat="59.163964104607" lon="17.874175019605">
        <ele>121.6</ele>
        <time>2015-02-17T19:53:20Z</time>
      </trkpt>
      <trkpt lat="59.163892187905" lon="17.874418178524">
        <ele>120.6</ele>
        <time>2015-02-17T19:53:22Z</time>
      </trkpt>
      <trkpt lat="59.163771740002" lon="17.874729398471">
        <ele>119</ele>
        <time>2015-02-17T19:53:24Z</time>
      </trkpt>
      <trkpt lat="59.163714659263" lon="17.874889911856">
        <ele>118.2</ele>
        <time>2015-02-17T19:53:25Z</time>
      </trkpt>
      <trkpt lat="59.16366042837" lon="17.875041875703">
        <ele>116.8</ele>
        <time>2015-02-17T19:53:26Z</time>
      </trkpt>
      <trkpt lat="59.163612735359" lon="17.875187385487">
        <ele>115.6</ele>
        <time>2015-02-17T19:53:27Z</time>
      </trkpt>
      <trkpt lat="59.163598234672" lon="17.875313197806">
        <ele>114.6</ele>
        <time>2015-02-17T19:53:28Z</time>
      </trkpt>
      <trkpt lat="59.163593959903" lon="17.875435992641">
        <ele>114</ele>
        <time>2015-02-17T19:53:29Z</time>
      </trkpt>
      <trkpt lat="59.163556576629" lon="17.87583170214">
        <ele>114</ele>
        <time>2015-02-17T19:53:32Z</time>
      </trkpt>
      <trkpt lat="59.163552385679" lon="17.875942929953">
        <ele>114.2</ele>
        <time>2015-02-17T19:53:33Z</time>
      </trkpt>
      <trkpt lat="59.163546769806" lon="17.876370825948">
        <ele>115</ele>
        <time>2015-02-17T19:53:37Z</time>
      </trkpt>
      <trkpt lat="59.163544339055" lon="17.876483730141">
        <ele>115.2</ele>
        <time>2015-02-17T19:53:38Z</time>
      </trkpt>
      <trkpt lat="59.163500669356" lon="17.876807020024">
        <ele>115</ele>
        <time>2015-02-17T19:53:41Z</time>
      </trkpt>
      <trkpt lat="59.163459346589" lon="17.876857730519">
        <ele>114.8</ele>
        <time>2015-02-17T19:53:42Z</time>
      </trkpt>
      <trkpt lat="59.163352142088" lon="17.876837111045">
        <ele>113.8</ele>
        <time>2015-02-17T19:53:44Z</time>
      </trkpt>
      <trkpt lat="59.163269915649" lon="17.876716579323">
        <ele>112.8</ele>
        <time>2015-02-17T19:53:47Z</time>
      </trkpt>
      <trkpt lat="59.163231778004" lon="17.87662714445">
        <ele>114</ele>
        <time>2015-02-17T19:53:50Z</time>
      </trkpt>
      <trkpt lat="59.163210404159" lon="17.876582385104">
        <ele>114.8</ele>
        <time>2015-02-17T19:53:51Z</time>
      </trkpt>
      <trkpt lat="59.163189952323" lon="17.876529327677">
        <ele>115.6</ele>
        <time>2015-02-17T19:53:52Z</time>
      </trkpt>
      <trkpt lat="59.163175619274" lon="17.87639077487">
        <ele>116.2</ele>
        <time>2015-02-17T19:53:54Z</time>
      </trkpt>
      <trkpt lat="59.16318266007" lon="17.876298154875">
        <ele>117</ele>
        <time>2015-02-17T19:53:55Z</time>
      </trkpt>
      <trkpt lat="59.163194646187" lon="17.876020713985">
        <ele>117.2</ele>
        <time>2015-02-17T19:53:58Z</time>
      </trkpt>
      <trkpt lat="59.163201435526" lon="17.875821140946">
        <ele>116.4</ele>
        <time>2015-02-17T19:54:00Z</time>
      </trkpt>
      <trkpt lat="59.163185845192" lon="17.875651239833">
        <ele>116.2</ele>
        <time>2015-02-17T19:54:02Z</time>
      </trkpt>
      <trkpt lat="59.163153407239" lon="17.875454684278">
        <ele>116.2</ele>
        <time>2015-02-17T19:54:04Z</time>
      </trkpt>
      <trkpt lat="59.163136727258" lon="17.875251842298">
        <ele>116</ele>
        <time>2015-02-17T19:54:06Z</time>
      </trkpt>
      <trkpt lat="59.163118035621" lon="17.875150588946">
        <ele>115.4</ele>
        <time>2015-02-17T19:54:07Z</time>
      </trkpt>
      <trkpt lat="59.16312231039" lon="17.875078839882">
        <ele>115.2</ele>
        <time>2015-02-17T19:54:08Z</time>
      </trkpt>
      <trkpt lat="59.163134464145" lon="17.874933749193">
        <ele>115</ele>
        <time>2015-02-17T19:54:10Z</time>
      </trkpt>
      <trkpt lat="59.163130859928" lon="17.874750772316">
        <ele>115</ele>
        <time>2015-02-17T19:54:12Z</time>
      </trkpt>
      <trkpt lat="59.163138319819" lon="17.874638873951">
        <ele>115</ele>
        <time>2015-02-17T19:54:13Z</time>
      </trkpt>
      <trkpt lat="59.16313739781" lon="17.87429110892">
        <ele>115</ele>
        <time>2015-02-17T19:54:17Z</time>
      </trkpt>
      <trkpt lat="59.163124405865" lon="17.87409916341">
        <ele>114.8</ele>
        <time>2015-02-17T19:54:19Z</time>
      </trkpt>
      <trkpt lat="59.163133709774" lon="17.873969746874">
        <ele>115.2</ele>
        <time>2015-02-17T19:54:21Z</time>
      </trkpt>
      <trkpt lat="59.163105043676" lon="17.873816861018">
        <ele>115.8</ele>
        <time>2015-02-17T19:54:23Z</time>
      </trkpt>
      <trkpt lat="59.163094901577" lon="17.873737987339">
        <ele>115.8</ele>
        <time>2015-02-17T19:54:24Z</time>
      </trkpt>
      <trkpt lat="59.163082328727" lon="17.873597339057">
        <ele>116</ele>
        <time>2015-02-17T19:54:26Z</time>
      </trkpt>
      <trkpt lat="59.163084005107" lon="17.87343364055">
        <ele>115.8</ele>
        <time>2015-02-17T19:54:28Z</time>
      </trkpt>
      <trkpt lat="59.163082496365" lon="17.873373709965">
        <ele>115.8</ele>
        <time>2015-02-17T19:54:29Z</time>
      </trkpt>
      <trkpt lat="59.163093560473" lon="17.87305477867">
        <ele>116</ele>
        <time>2015-02-17T19:54:33Z</time>
      </trkpt>
      <trkpt lat="59.163108228798" lon="17.8728343347">
        <ele>115.8</ele>
        <time>2015-02-17T19:54:36Z</time>
      </trkpt>
      <trkpt lat="59.163111246282" lon="17.872680023921">
        <ele>115.8</ele>
        <time>2015-02-17T19:54:38Z</time>
      </trkpt>
      <trkpt lat="59.163149886841" lon="17.872268304993">
        <ele>116</ele>
        <time>2015-02-17T19:54:43Z</time>
      </trkpt>
      <trkpt lat="59.163163297881" lon="17.872200914517">
        <ele>115.8</ele>
        <time>2015-02-17T19:54:44Z</time>
      </trkpt>
      <trkpt lat="59.16325390622" lon="17.871835715134">
        <ele>115.6</ele>
        <time>2015-02-17T19:54:48Z</time>
      </trkpt>
      <trkpt lat="59.16324133337" lon="17.8716608687">
        <ele>115.2</ele>
        <time>2015-02-17T19:54:51Z</time>
      </trkpt>
      <trkpt lat="59.163242590655" lon="17.871581911202">
        <ele>115</ele>
        <time>2015-02-17T19:54:52Z</time>
      </trkpt>
      <trkpt lat="59.163261869025" lon="17.871453919589">
        <ele>114.8</ele>
        <time>2015-02-17T19:54:54Z</time>
      </trkpt>
      <trkpt lat="59.16328324287" lon="17.871374542996">
        <ele>114.8</ele>
        <time>2015-02-17T19:54:55Z</time>
      </trkpt>
      <trkpt lat="59.163321129058" lon="17.871032393838">
        <ele>115.6</ele>
        <time>2015-02-17T19:54:59Z</time>
      </trkpt>
      <trkpt lat="59.163372510105" lon="17.870890488271">
        <ele>115.8</ele>
        <time>2015-02-17T19:55:01Z</time>
      </trkpt>
      <trkpt lat="59.163415593071" lon="17.870835922102">
        <ele>115.8</ele>
        <time>2015-02-17T19:55:02Z</time>
      </trkpt>
      <trkpt lat="59.163521456468" lon="17.870658309641">
        <ele>115.8</ele>
        <time>2015-02-17T19:55:06Z</time>
      </trkpt>
      <trkpt lat="59.163555319344" lon="17.870572395166">
        <ele>116</ele>
        <time>2015-02-17T19:55:08Z</time>
      </trkpt>
      <trkpt lat="59.163580884139" lon="17.870449767969">
        <ele>116.4</ele>
        <time>2015-02-17T19:55:10Z</time>
      </trkpt>
      <trkpt lat="59.163552720955" lon="17.870182888273">
        <ele>116.4</ele>
        <time>2015-02-17T19:55:14Z</time>
      </trkpt>
      <trkpt lat="59.163537465897" lon="17.870027739304">
        <ele>116.6</ele>
        <time>2015-02-17T19:55:16Z</time>
      </trkpt>
      <trkpt lat="59.163540986295" lon="17.869883822081">
        <ele>116.4</ele>
        <time>2015-02-17T19:55:18Z</time>
      </trkpt>
      <trkpt lat="59.163540315743" lon="17.869613254349">
        <ele>116</ele>
        <time>2015-02-17T19:55:22Z</time>
      </trkpt>
      <trkpt lat="59.163576777008" lon="17.869329191758">
        <ele>115.6</ele>
        <time>2015-02-17T19:55:25Z</time>
      </trkpt>
      <trkpt lat="59.163589852772" lon="17.869249982803">
        <ele>115.4</ele>
        <time>2015-02-17T19:55:26Z</time>
      </trkpt>
      <trkpt lat="59.163618937965" lon="17.869052672877">
        <ele>115.6</ele>
        <time>2015-02-17T19:55:29Z</time>
      </trkpt>
      <trkpt lat="59.163620027612" lon="17.86878252424">
        <ele>115.8</ele>
        <time>2015-02-17T19:55:32Z</time>
      </trkpt>
      <trkpt lat="59.163632851919" lon="17.868532659801">
        <ele>116.4</ele>
        <time>2015-02-17T19:55:35Z</time>
      </trkpt>
      <trkpt lat="59.163650118633" lon="17.868114654448">
        <ele>116</ele>
        <time>2015-02-17T19:55:40Z</time>
      </trkpt>
      <trkpt lat="59.163677359808" lon="17.867777953525">
        <ele>115.8</ele>
        <time>2015-02-17T19:55:44Z</time>
      </trkpt>
      <trkpt lat="59.163676773075" lon="17.867696732914">
        <ele>115.8</ele>
        <time>2015-02-17T19:55:45Z</time>
      </trkpt>
      <trkpt lat="59.163662691483" lon="17.867440162955">
        <ele>116</ele>
        <time>2015-02-17T19:55:48Z</time>
      </trkpt>
      <trkpt lat="59.163654896316" lon="17.86723774007">
        <ele>116.2</ele>
        <time>2015-02-17T19:55:51Z</time>
      </trkpt>
      <trkpt lat="59.163703427517" lon="17.867010674399">
        <ele>116.6</ele>
        <time>2015-02-17T19:55:54Z</time>
      </trkpt>
      <trkpt lat="59.163727902665" lon="17.86691755149">
        <ele>117.8</ele>
        <time>2015-02-17T19:55:56Z</time>
      </trkpt>
      <trkpt lat="59.163757155496" lon="17.866819567079">
        <ele>118.8</ele>
        <time>2015-02-17T19:55:58Z</time>
      </trkpt>
      <trkpt lat="59.163817086081" lon="17.866728623464">
        <ele>120.2</ele>
        <time>2015-02-17T19:56:00Z</time>
      </trkpt>
      <trkpt lat="59.163889170421" lon="17.866596943815">
        <ele>121</ele>
        <time>2015-02-17T19:56:03Z</time>
      </trkpt>
      <trkpt lat="59.163911382456" lon="17.866553693211">
        <ele>121.2</ele>
        <time>2015-02-17T19:56:04Z</time>
      </trkpt>
      <trkpt lat="59.164013473998" lon="17.866414050757">
        <ele>121.8</ele>
        <time>2015-02-17T19:56:08Z</time>
      </trkpt>
      <trkpt lat="59.164134760091" lon="17.866236186839">
        <ele>122.4</ele>
        <time>2015-02-17T19:56:12Z</time>
      </trkpt>
      <trkpt lat="59.164167114225" lon="17.866186146896">
        <ele>122.4</ele>
        <time>2015-02-17T19:56:13Z</time>
      </trkpt>
      <trkpt lat="59.16429661458" lon="17.865980035975">
        <ele>123.2</ele>
        <time>2015-02-17T19:56:17Z</time>
      </trkpt>
      <trkpt lat="59.164405914556" lon="17.865769734104">
        <ele>123.2</ele>
        <time>2015-02-17T19:56:21Z</time>
      </trkpt>
      <trkpt lat="59.164445393305" lon="17.865713826831">
        <ele>123.2</ele>
        <time>2015-02-17T19:56:22Z</time>
      </trkpt>
      <trkpt lat="59.164507587003" lon="17.865592289281">
        <ele>123</ele>
        <time>2015-02-17T19:56:24Z</time>
      </trkpt>
      <trkpt lat="59.164670531139" lon="17.865306969405">
        <ele>122.6</ele>
        <time>2015-02-17T19:56:28Z</time>
      </trkpt>
      <trkpt lat="59.164712775915" lon="17.865242177318">
        <ele>122.6</ele>
        <time>2015-02-17T19:56:29Z</time>
      </trkpt>
      <trkpt lat="59.164875217137" lon="17.865019637873">
        <ele>122.4</ele>
        <time>2015-02-17T19:56:33Z</time>
      </trkpt>
      <trkpt lat="59.164928190745" lon="17.864953923777">
        <ele>122.4</ele>
        <time>2015-02-17T19:56:34Z</time>
      </trkpt>
      <trkpt lat="59.165026929527" lon="17.864854262986">
        <ele>122.4</ele>
        <time>2015-02-17T19:56:36Z</time>
      </trkpt>
      <trkpt lat="59.165108988328" lon="17.86475837405">
        <ele>122.4</ele>
        <time>2015-02-17T19:56:38Z</time>
      </trkpt>
      <trkpt lat="59.165187526731" lon="17.864632729369">
        <ele>122.2</ele>
        <time>2015-02-17T19:56:40Z</time>
      </trkpt>
      <trkpt lat="59.165259862528" lon="17.864509934534">
        <ele>121.8</ele>
        <time>2015-02-17T19:56:42Z</time>
      </trkpt>
      <trkpt lat="59.165357427844" lon="17.864336345385">
        <ele>120.8</ele>
        <time>2015-02-17T19:56:45Z</time>
      </trkpt>
      <trkpt lat="59.165417526067" lon="17.86422193245">
        <ele>120.4</ele>
        <time>2015-02-17T19:56:47Z</time>
      </trkpt>
      <trkpt lat="59.16554132673" lon="17.864010624751">
        <ele>120.2</ele>
        <time>2015-02-17T19:56:50Z</time>
      </trkpt>
      <trkpt lat="59.165579129099" lon="17.863936864031">
        <ele>119.8</ele>
        <time>2015-02-17T19:56:51Z</time>
      </trkpt>
      <trkpt lat="59.165643502091" lon="17.863796551025">
        <ele>119.6</ele>
        <time>2015-02-17T19:56:53Z</time>
      </trkpt>
      <trkpt lat="59.1657282431" lon="17.863646431196">
        <ele>119.4</ele>
        <time>2015-02-17T19:56:55Z</time>
      </trkpt>
      <trkpt lat="59.165798567241" lon="17.863511817882">
        <ele>119.8</ele>
        <time>2015-02-17T19:56:57Z</time>
      </trkpt>
      <trkpt lat="59.165860760939" lon="17.863358177655">
        <ele>119.6</ele>
        <time>2015-02-17T19:56:59Z</time>
      </trkpt>
      <trkpt lat="59.165890349046" lon="17.863275867397">
        <ele>119.4</ele>
        <time>2015-02-17T19:57:00Z</time>
      </trkpt>
      <trkpt lat="59.166005264895" lon="17.862977639395">
        <ele>119.8</ele>
        <time>2015-02-17T19:57:04Z</time>
      </trkpt>
      <trkpt lat="59.166160581502" lon="17.862663234326">
        <ele>119</ele>
        <time>2015-02-17T19:57:08Z</time>
      </trkpt>
      <trkpt lat="59.166209783255" lon="17.86261093127">
        <ele>118.6</ele>
        <time>2015-02-17T19:57:09Z</time>
      </trkpt>
      <trkpt lat="59.166364345491" lon="17.862461062898">
        <ele>118.2</ele>
        <time>2015-02-17T19:57:13Z</time>
      </trkpt>
      <trkpt lat="59.166404578611" lon="17.862408759842">
        <ele>118.4</ele>
        <time>2015-02-17T19:57:14Z</time>
      </trkpt>
      <trkpt lat="59.166491079819" lon="17.862246737715">
        <ele>118.4</ele>
        <time>2015-02-17T19:57:16Z</time>
      </trkpt>
      <trkpt lat="59.166595099198" lon="17.862009865221">
        <ele>118.6</ele>
        <time>2015-02-17T19:57:19Z</time>
      </trkpt>
      <trkpt lat="59.166641283467" lon="17.861955801966">
        <ele>118.4</ele>
        <time>2015-02-17T19:57:20Z</time>
      </trkpt>
      <trkpt lat="59.166786374156" lon="17.86188505873">
        <ele>118</ele>
        <time>2015-02-17T19:57:23Z</time>
      </trkpt>
      <trkpt lat="59.166875976667" lon="17.861901654892">
        <ele>117.2</ele>
        <time>2015-02-17T19:57:25Z</time>
      </trkpt>
      <trkpt lat="59.166935739614" lon="17.861959154726">
        <ele>117</ele>
        <time>2015-02-17T19:57:27Z</time>
      </trkpt>
      <trkpt lat="59.167001286072" lon="17.862117656455">
        <ele>117.8</ele>
        <time>2015-02-17T19:57:30Z</time>
      </trkpt>
      <trkpt lat="59.167019558614" lon="17.862186136578">
        <ele>118.2</ele>
        <time>2015-02-17T19:57:31Z</time>
      </trkpt>
      <trkpt lat="59.167036490052" lon="17.86225470052">
        <ele>118.8</ele>
        <time>2015-02-17T19:57:32Z</time>
      </trkpt>
      <trkpt lat="59.167128104219" lon="17.862583941552">
        <ele>119.2</ele>
        <time>2015-02-17T19:57:35Z</time>
      </trkpt>
      <trkpt lat="59.167191052288" lon="17.862839086588">
        <ele>118.4</ele>
        <time>2015-02-17T19:57:37Z</time>
      </trkpt>
      <trkpt lat="59.167226507725" lon="17.863091884692">
        <ele>117.4</ele>
        <time>2015-02-17T19:57:39Z</time>
      </trkpt>
      <trkpt lat="59.167237320376" lon="17.863230856594">
        <ele>117</ele>
        <time>2015-02-17T19:57:40Z</time>
      </trkpt>
      <trkpt lat="59.167266405569" lon="17.863564959128">
        <ele>116.6</ele>
        <time>2015-02-17T19:57:43Z</time>
      </trkpt>
      <trkpt lat="59.167292054183" lon="17.863792946808">
        <ele>116.2</ele>
        <time>2015-02-17T19:57:45Z</time>
      </trkpt>
      <trkpt lat="59.167318960082" lon="17.863909958132">
        <ele>116</ele>
        <time>2015-02-17T19:57:46Z</time>
      </trkpt>
      <trkpt lat="59.167349637836" lon="17.864034345528">
        <ele>115.6</ele>
        <time>2015-02-17T19:57:47Z</time>
      </trkpt>
      <trkpt lat="59.167381740513" lon="17.864149764291">
        <ele>115</ele>
        <time>2015-02-17T19:57:48Z</time>
      </trkpt>
      <trkpt lat="59.167444688582" lon="17.864411028114">
        <ele>114.8</ele>
        <time>2015-02-17T19:57:50Z</time>
      </trkpt>
      <trkpt lat="59.167465643332" lon="17.864531978931">
        <ele>114.2</ele>
        <time>2015-02-17T19:57:51Z</time>
      </trkpt>
      <trkpt lat="59.167517108198" lon="17.864783016836">
        <ele>113.8</ele>
        <time>2015-02-17T19:57:53Z</time>
      </trkpt>
      <trkpt lat="59.167534710188" lon="17.864904135291">
        <ele>113.2</ele>
        <time>2015-02-17T19:57:54Z</time>
      </trkpt>
      <trkpt lat="59.167549043237" lon="17.865042604279">
        <ele>112.4</ele>
        <time>2015-02-17T19:57:55Z</time>
      </trkpt>
      <trkpt lat="59.167579888629" lon="17.865296575849">
        <ele>111.2</ele>
        <time>2015-02-17T19:57:57Z</time>
      </trkpt>
      <trkpt lat="59.167601094836" lon="17.86542557329">
        <ele>110.8</ele>
        <time>2015-02-17T19:57:58Z</time>
      </trkpt>
      <trkpt lat="59.167664042905" lon="17.865689267864">
        <ele>110.2</ele>
        <time>2015-02-17T19:58:00Z</time>
      </trkpt>
      <trkpt lat="59.167709472803" lon="17.865807955568">
        <ele>109.8</ele>
        <time>2015-02-17T19:58:01Z</time>
      </trkpt>
      <trkpt lat="59.167804104454" lon="17.865995961585">
        <ele>109.2</ele>
        <time>2015-02-17T19:58:03Z</time>
      </trkpt>
      <trkpt lat="59.167859508813" lon="17.866106099751">
        <ele>108.6</ele>
        <time>2015-02-17T19:58:04Z</time>
      </trkpt>
      <trkpt lat="59.167906782729" lon="17.866205844361">
        <ele>108.2</ele>
        <time>2015-02-17T19:58:05Z</time>
      </trkpt>
      <trkpt lat="59.167951374437" lon="17.866307265351">
        <ele>107.8</ele>
        <time>2015-02-17T19:58:06Z</time>
      </trkpt>
      <trkpt lat="59.16809948261" lon="17.866592249951">
        <ele>107</ele>
        <time>2015-02-17T19:58:09Z</time>
      </trkpt>
      <trkpt lat="59.168157988272" lon="17.866693587122">
        <ele>106.6</ele>
        <time>2015-02-17T19:58:10Z</time>
      </trkpt>
      <trkpt lat="59.168299726201" lon="17.86694772633">
        <ele>105.8</ele>
        <time>2015-02-17T19:58:13Z</time>
      </trkpt>
      <trkpt lat="59.168379773346" lon="17.867116873072">
        <ele>105.8</ele>
        <time>2015-02-17T19:58:15Z</time>
      </trkpt>
      <trkpt lat="59.168506423855" lon="17.86738777608">
        <ele>106</ele>
        <time>2015-02-17T19:58:18Z</time>
      </trkpt>
      <trkpt lat="59.16862754231" lon="17.867699834217">
        <ele>105.8</ele>
        <time>2015-02-17T19:58:21Z</time>
      </trkpt>
      <trkpt lat="59.16859904385" lon="17.86805162256">
        <ele>105.6</ele>
        <time>2015-02-17T19:58:24Z</time>
      </trkpt>
      <trkpt lat="59.168512458823" lon="17.868401231609">
        <ele>105</ele>
        <time>2015-02-17T19:58:27Z</time>
      </trkpt>
      <trkpt lat="59.168500640344" lon="17.868512375603">
        <ele>105</ele>
        <time>2015-02-17T19:58:28Z</time>
      </trkpt>
      <trkpt lat="59.168513967565" lon="17.868785206448">
        <ele>105</ele>
        <time>2015-02-17T19:58:31Z</time>
      </trkpt>
      <trkpt lat="59.168548500993" lon="17.868921160866">
        <ele>105.2</ele>
        <time>2015-02-17T19:58:33Z</time>
      </trkpt>
      <trkpt lat="59.168579681661" lon="17.869001710925">
        <ele>105</ele>
        <time>2015-02-17T19:58:34Z</time>
      </trkpt>
      <trkpt lat="59.168662913928" lon="17.869278145987">
        <ele>105</ele>
        <time>2015-02-17T19:58:38Z</time>
      </trkpt>
      <trkpt lat="59.168663333023" lon="17.869569333193">
        <ele>105.6</ele>
        <time>2015-02-17T19:58:41Z</time>
      </trkpt>
      <trkpt lat="59.168669367991" lon="17.869632700357">
        <ele>105.4</ele>
        <time>2015-02-17T19:58:42Z</time>
      </trkpt>
      <trkpt lat="59.168644641386" lon="17.869799667805">
        <ele>105.6</ele>
        <time>2015-02-17T19:58:45Z</time>
      </trkpt>
      <trkpt lat="59.168552859581" lon="17.869909805971">
        <ele>105.8</ele>
        <time>2015-02-17T19:58:48Z</time>
      </trkpt>
      <trkpt lat="59.168381868821" lon="17.869929084341">
        <ele>107</ele>
        <time>2015-02-17T19:58:53Z</time>
      </trkpt>
      <trkpt lat="59.168351610162" lon="17.869919780432">
        <ele>107.6</ele>
        <time>2015-02-17T19:58:54Z</time>
      </trkpt>
      <trkpt lat="59.168315567992" lon="17.869900334424">
        <ele>108</ele>
        <time>2015-02-17T19:58:55Z</time>
      </trkpt>
      <trkpt lat="59.168231246078" lon="17.869864962806">
        <ele>109</ele>
        <time>2015-02-17T19:58:58Z</time>
      </trkpt>
      <trkpt lat="59.168187073465" lon="17.869868567023">
        <ele>109</ele>
        <time>2015-02-17T19:58:59Z</time>
      </trkpt>
      <trkpt lat="59.168158239729" lon="17.869888348307">
        <ele>109.2</ele>
        <time>2015-02-17T19:59:00Z</time>
      </trkpt>
      <trkpt lat="59.168126388509" lon="17.869902094623">
        <ele>109.4</ele>
        <time>2015-02-17T19:59:01Z</time>
      </trkpt>
      <trkpt lat="59.168020860388" lon="17.870027487847">
        <ele>109.8</ele>
        <time>2015-02-17T19:59:05Z</time>
      </trkpt>
      <trkpt lat="59.167971993911" lon="17.870118431462">
        <ele>110.2</ele>
        <time>2015-02-17T19:59:07Z</time>
      </trkpt>
      <trkpt lat="59.167921534873" lon="17.870258744468">
        <ele>110.8</ele>
        <time>2015-02-17T19:59:10Z</time>
      </trkpt>
      <trkpt lat="59.167914661715" lon="17.870388747737">
        <ele>111.4</ele>
        <time>2015-02-17T19:59:12Z</time>
      </trkpt>
      <trkpt lat="59.167913991163" lon="17.87052847401">
        <ele>111.6</ele>
        <time>2015-02-17T19:59:14Z</time>
      </trkpt>
      <trkpt lat="59.167877613717" lon="17.87093080521">
        <ele>111.2</ele>
        <time>2015-02-17T19:59:19Z</time>
      </trkpt>
      <trkpt lat="59.167856323691" lon="17.871284856666">
        <ele>110.8</ele>
        <time>2015-02-17T19:59:23Z</time>
      </trkpt>
      <trkpt lat="59.167835285122" lon="17.871426091681">
        <ele>110.6</ele>
        <time>2015-02-17T19:59:25Z</time>
      </trkpt>
      <trkpt lat="59.167799578228" lon="17.871491638139">
        <ele>110.6</ele>
        <time>2015-02-17T19:59:27Z</time>
      </trkpt>
      <trkpt lat="59.167743754774" lon="17.871544025014">
        <ele>111.2</ele>
        <time>2015-02-17T19:59:29Z</time>
      </trkpt>
      <trkpt lat="59.167664462" lon="17.871612086042">
        <ele>113.2</ele>
        <time>2015-02-17T19:59:32Z</time>
      </trkpt>
      <trkpt lat="59.167591371832" lon="17.871683416011">
        <ele>114.6</ele>
        <time>2015-02-17T19:59:35Z</time>
      </trkpt>
      <trkpt lat="59.167499506208" lon="17.871770587771">
        <ele>115.4</ele>
        <time>2015-02-17T19:59:39Z</time>
      </trkpt>
      <trkpt lat="59.167477126535" lon="17.871809144511">
        <ele>115.4</ele>
        <time>2015-02-17T19:59:40Z</time>
      </trkpt>
      <trkpt lat="59.167456004147" lon="17.871839822265">
        <ele>115.6</ele>
        <time>2015-02-17T19:59:41Z</time>
      </trkpt>
      <trkpt lat="59.167397498485" lon="17.871896986823">
        <ele>116</ele>
        <time>2015-02-17T19:59:43Z</time>
      </trkpt>
      <trkpt lat="59.167288533785" lon="17.871910733139">
        <ele>116.8</ele>
        <time>2015-02-17T19:59:47Z</time>
      </trkpt>
      <trkpt lat="59.167178144162" lon="17.871859938825">
        <ele>117.6</ele>
        <time>2015-02-17T19:59:51Z</time>
      </trkpt>
      <trkpt lat="59.167150735349" lon="17.871866141431">
        <ele>118</ele>
        <time>2015-02-17T19:59:52Z</time>
      </trkpt>
      <trkpt lat="59.167127685124" lon="17.871859938825">
        <ele>118.2</ele>
        <time>2015-02-17T19:59:53Z</time>
      </trkpt>
      <trkpt lat="59.167069011824" lon="17.871837642971">
        <ele>118.6</ele>
        <time>2015-02-17T19:59:55Z</time>
      </trkpt>
      <trkpt lat="59.1670190557" lon="17.871813335461">
        <ele>119.2</ele>
        <time>2015-02-17T19:59:57Z</time>
      </trkpt>
      <trkpt lat="59.166922077117" lon="17.87177486254">
        <ele>119.8</ele>
        <time>2015-02-17T20:00:00Z</time>
      </trkpt>
      <trkpt lat="59.1668597996" lon="17.871773353798">
        <ele>120</ele>
        <time>2015-02-17T20:00:02Z</time>
      </trkpt>
      <trkpt lat="59.166833564253" lon="17.871786848657">
        <ele>120.2</ele>
        <time>2015-02-17T20:00:03Z</time>
      </trkpt>
      <trkpt lat="59.166801042481" lon="17.871799505326">
        <ele>120</ele>
        <time>2015-02-17T20:00:04Z</time>
      </trkpt>
      <trkpt lat="59.166691239591" lon="17.871888437285">
        <ele>120.6</ele>
        <time>2015-02-17T20:00:08Z</time>
      </trkpt>
      <trkpt lat="59.166590405334" lon="17.872014081966">
        <ele>121.2</ele>
        <time>2015-02-17T20:00:12Z</time>
      </trkpt>
      <trkpt lat="59.166509687637" lon="17.872101421364">
        <ele>122.2</ele>
        <time>2015-02-17T20:00:15Z</time>
      </trkpt>
      <trkpt lat="59.166487056507" lon="17.872121202648">
        <ele>122.4</ele>
        <time>2015-02-17T20:00:16Z</time>
      </trkpt>
      <trkpt lat="59.166369374631" lon="17.872166045813">
        <ele>123</ele>
        <time>2015-02-17T20:00:20Z</time>
      </trkpt>
      <trkpt lat="59.166329979701" lon="17.872175852636">
        <ele>123.2</ele>
        <time>2015-02-17T20:00:21Z</time>
      </trkpt>
      <trkpt lat="59.16626887565" lon="17.872216504851">
        <ele>123.6</ele>
        <time>2015-02-17T20:00:23Z</time>
      </trkpt>
      <trkpt lat="59.166094699768" lon="17.872280710205">
        <ele>124</ele>
        <time>2015-02-17T20:00:28Z</time>
      </trkpt>
      <trkpt lat="59.166061423625" lon="17.872295127073">
        <ele>124.4</ele>
        <time>2015-02-17T20:00:29Z</time>
      </trkpt>
      <trkpt lat="59.165972072571" lon="17.872342149532">
        <ele>125.4</ele>
        <time>2015-02-17T20:00:32Z</time>
      </trkpt>
      <trkpt lat="59.165949609079" lon="17.8723565664">
        <ele>125.8</ele>
        <time>2015-02-17T20:00:33Z</time>
      </trkpt>
      <trkpt lat="59.165883559707" lon="17.872409456189">
        <ele>126.4</ele>
        <time>2015-02-17T20:00:36Z</time>
      </trkpt>
      <trkpt lat="59.165864365156" lon="17.872416245528">
        <ele>127</ele>
        <time>2015-02-17T20:00:37Z</time>
      </trkpt>
      <trkpt lat="59.165750455135" lon="17.872476259932">
        <ele>127.6</ele>
        <time>2015-02-17T20:00:41Z</time>
      </trkpt>
      <trkpt lat="59.1655941327" lon="17.872550439747">
        <ele>128.2</ele>
        <time>2015-02-17T20:00:46Z</time>
      </trkpt>
      <trkpt lat="59.165479384489" lon="17.872585056994">
        <ele>128.8</ele>
        <time>2015-02-17T20:00:50Z</time>
      </trkpt>
      <trkpt lat="59.16540805452" lon="17.872599306224">
        <ele>129.2</ele>
        <time>2015-02-17T20:00:52Z</time>
      </trkpt>
      <trkpt lat="59.165383830829" lon="17.872618333137">
        <ele>129.2</ele>
        <time>2015-02-17T20:00:53Z</time>
      </trkpt>
      <trkpt lat="59.165277883613" lon="17.872607604305">
        <ele>129.6</ele>
        <time>2015-02-17T20:00:56Z</time>
      </trkpt>
      <trkpt lat="59.165237650493" lon="17.872595618188">
        <ele>129.4</ele>
        <time>2015-02-17T20:00:57Z</time>
      </trkpt>
      <trkpt lat="59.165085267551" lon="17.872571394497">
        <ele>129.6</ele>
        <time>2015-02-17T20:01:00Z</time>
      </trkpt>
      <trkpt lat="59.164890807471" lon="17.87253845363">
        <ele>128.6</ele>
        <time>2015-02-17T20:01:03Z</time>
      </trkpt>
      <trkpt lat="59.16482132152" lon="17.872548931005">
        <ele>127.8</ele>
        <time>2015-02-17T20:01:04Z</time>
      </trkpt>
      <trkpt lat="59.164710261345" lon="17.872583799709">
        <ele>126.6</ele>
        <time>2015-02-17T20:01:06Z</time>
      </trkpt>
      <trkpt lat="59.164659718488" lon="17.87261389073">
        <ele>126.6</ele>
        <time>2015-02-17T20:01:07Z</time>
      </trkpt>
      <trkpt lat="59.164617389893" lon="17.872642556828">
        <ele>126.8</ele>
        <time>2015-02-17T20:01:08Z</time>
      </trkpt>
      <trkpt lat="59.164576234764" lon="17.872676000609">
        <ele>126.6</ele>
        <time>2015-02-17T20:01:09Z</time>
      </trkpt>
      <trkpt lat="59.164462660019" lon="17.872851349957">
        <ele>126.2</ele>
        <time>2015-02-17T20:01:12Z</time>
      </trkpt>
      <trkpt lat="59.164405914556" lon="17.873008175306">
        <ele>126.2</ele>
        <time>2015-02-17T20:01:14Z</time>
      </trkpt>
      <trkpt lat="59.164333997854" lon="17.873177070591">
        <ele>126.4</ele>
        <time>2015-02-17T20:01:16Z</time>
      </trkpt>
      <trkpt lat="59.164204078404" lon="17.873433221455">
        <ele>126.4</ele>
        <time>2015-02-17T20:01:19Z</time>
      </trkpt>
      <trkpt lat="59.164165437845" lon="17.873519387387">
        <ele>125.6</ele>
        <time>2015-02-17T20:01:20Z</time>
      </trkpt>
      <trkpt lat="59.164132496978" lon="17.873601194731">
        <ele>125.2</ele>
        <time>2015-02-17T20:01:21Z</time>
      </trkpt>
      <trkpt lat="59.164094946066" lon="17.873708399232">
        <ele>124.4</ele>
        <time>2015-02-17T20:01:22Z</time>
      </trkpt>
      <trkpt lat="59.164063094846" lon="17.873803785254">
        <ele>124</ele>
        <time>2015-02-17T20:01:23Z</time>
      </trkpt>
      <trkpt lat="59.163959829838" lon="17.874159680728">
        <ele>122.8</ele>
        <time>2015-02-17T20:01:26Z</time>
      </trkpt>
      <trkpt lat="59.163919764356" lon="17.874287923798">
        <ele>122.2</ele>
        <time>2015-02-17T20:01:27Z</time>
      </trkpt>
      <trkpt lat="59.16387751958" lon="17.874420357818">
        <ele>121.6</ele>
        <time>2015-02-17T20:01:28Z</time>
      </trkpt>
      <trkpt lat="59.163778194065" lon="17.874689919722">
        <ele>119.6</ele>
        <time>2015-02-17T20:01:30Z</time>
      </trkpt>
      <trkpt lat="59.163723627896" lon="17.874849846374">
        <ele>118.2</ele>
        <time>2015-02-17T20:01:31Z</time>
      </trkpt>
      <trkpt lat="59.163694291246" lon="17.874978089444">
        <ele>117</ele>
        <time>2015-02-17T20:01:32Z</time>
      </trkpt>
      <trkpt lat="59.163667720623" lon="17.875264498967">
        <ele>115.6</ele>
        <time>2015-02-17T20:01:34Z</time>
      </trkpt>
      <trkpt lat="59.163636623774" lon="17.875700860681">
        <ele>114.8</ele>
        <time>2015-02-17T20:01:37Z</time>
      </trkpt>
      <trkpt lat="59.163631510815" lon="17.875832205054">
        <ele>115.2</ele>
        <time>2015-02-17T20:01:38Z</time>
      </trkpt>
      <trkpt lat="59.163617345404" lon="17.875957682097">
        <ele>115.6</ele>
        <time>2015-02-17T20:01:39Z</time>
      </trkpt>
      <trkpt lat="59.163592954075" lon="17.876305950042">
        <ele>116.6</ele>
        <time>2015-02-17T20:01:42Z</time>
      </trkpt>
      <trkpt lat="59.163589014582" lon="17.876400497874">
        <ele>116.6</ele>
        <time>2015-02-17T20:01:43Z</time>
      </trkpt>
      <trkpt lat="59.163576944646" lon="17.876612392306">
        <ele>116.6</ele>
        <time>2015-02-17T20:01:45Z</time>
      </trkpt>
      <trkpt lat="59.163531850024" lon="17.876780281763">
        <ele>116</ele>
        <time>2015-02-17T20:01:47Z</time>
      </trkpt>
      <trkpt lat="59.163482815909" lon="17.876835267027">
        <ele>115.6</ele>
        <time>2015-02-17T20:01:48Z</time>
      </trkpt>
      <trkpt lat="59.163377287788" lon="17.876785646179">
        <ele>114.6</ele>
        <time>2015-02-17T20:01:50Z</time>
      </trkpt>
      <trkpt lat="59.163333282813" lon="17.876728230164">
        <ele>114.4</ele>
        <time>2015-02-17T20:01:51Z</time>
      </trkpt>
      <trkpt lat="59.163325739103" lon="17.876707275414">
        <ele>114</ele>
        <time>2015-02-17T20:01:52Z</time>
      </trkpt>
      <trkpt lat="59.163275782979" lon="17.876642064232">
        <ele>114.2</ele>
        <time>2015-02-17T20:01:54Z</time>
      </trkpt>
      <trkpt lat="59.163209649788" lon="17.87651817975">
        <ele>115.6</ele>
        <time>2015-02-17T20:01:57Z</time>
      </trkpt>
      <trkpt lat="59.163187102477" lon="17.876469983825">
        <ele>116</ele>
        <time>2015-02-17T20:01:58Z</time>
      </trkpt>
      <trkpt lat="59.163173020885" lon="17.876430253619">
        <ele>116.4</ele>
        <time>2015-02-17T20:01:59Z</time>
      </trkpt>
      <trkpt lat="59.163160783311" lon="17.876358504555">
        <ele>116.6</ele>
        <time>2015-02-17T20:02:01Z</time>
      </trkpt>
      <trkpt lat="59.163164471347" lon="17.876348362456">
        <ele>116.8</ele>
        <time>2015-02-17T20:02:02Z</time>
      </trkpt>
      <trkpt lat="59.163162292053" lon="17.876356325261">
        <ele>117.2</ele>
        <time>2015-02-17T20:02:04Z</time>
      </trkpt>
      <trkpt lat="59.163218366964" lon="17.876015098112">
        <ele>117</ele>
        <time>2015-02-17T20:03:32Z</time>
      </trkpt>
      <trkpt lat="59.163262958672" lon="17.875687617279">
        <ele>116.2</ele>
        <time>2015-02-17T20:03:36Z</time>
      </trkpt>
      <trkpt lat="59.163230185443" lon="17.875305821734">
        <ele>115.6</ele>
        <time>2015-02-17T20:03:40Z</time>
      </trkpt>
      <trkpt lat="59.16322456957" lon="17.875211944454">
        <ele>115.8</ele>
        <time>2015-02-17T20:03:41Z</time>
      </trkpt>
      <trkpt lat="59.163184587907" lon="17.874891169141">
        <ele>116.2</ele>
        <time>2015-02-17T20:03:45Z</time>
      </trkpt>
      <trkpt lat="59.163186096649" lon="17.87474289333">
        <ele>116.2</ele>
        <time>2015-02-17T20:03:47Z</time>
      </trkpt>
      <trkpt lat="59.163191209608" lon="17.874518426048">
        <ele>116.4</ele>
        <time>2015-02-17T20:03:50Z</time>
      </trkpt>
      <trkpt lat="59.163202692811" lon="17.874327402547">
        <ele>116</ele>
        <time>2015-02-17T20:03:52Z</time>
      </trkpt>
      <trkpt lat="59.163202944268" lon="17.874134702666">
        <ele>115.6</ele>
        <time>2015-02-17T20:03:54Z</time>
      </trkpt>
      <trkpt lat="59.163182408613" lon="17.873866817142">
        <ele>115.6</ele>
        <time>2015-02-17T20:03:58Z</time>
      </trkpt>
      <trkpt lat="59.163128932091" lon="17.873696161658">
        <ele>116.4</ele>
        <time>2015-02-17T20:04:01Z</time>
      </trkpt>
      <trkpt lat="59.1631130903" lon="17.873532295513">
        <ele>116.4</ele>
        <time>2015-02-17T20:04:03Z</time>
      </trkpt>
      <trkpt lat="59.163106468599" lon="17.873367507359">
        <ele>116.6</ele>
        <time>2015-02-17T20:04:05Z</time>
      </trkpt>
      <trkpt lat="59.163119041449" lon="17.873194421124">
        <ele>117</ele>
        <time>2015-02-17T20:04:07Z</time>
      </trkpt>
      <trkpt lat="59.163133542136" lon="17.872988645479">
        <ele>117.2</ele>
        <time>2015-02-17T20:04:09Z</time>
      </trkpt>
      <trkpt lat="59.163146869357" lon="17.87283098194">
        <ele>117</ele>
        <time>2015-02-17T20:04:11Z</time>
      </trkpt>
      <trkpt lat="59.163143684235" lon="17.872668624537">
        <ele>116.6</ele>
        <time>2015-02-17T20:04:13Z</time>
      </trkpt>
      <trkpt lat="59.163154329248" lon="17.872512637378">
        <ele>116.6</ele>
        <time>2015-02-17T20:04:15Z</time>
      </trkpt>
      <trkpt lat="59.16313488324" lon="17.872406438705">
        <ele>116.6</ele>
        <time>2015-02-17T20:04:16Z</time>
      </trkpt>
      <trkpt lat="59.16314075057" lon="17.872133440222">
        <ele>116.6</ele>
        <time>2015-02-17T20:04:19Z</time>
      </trkpt>
      <trkpt lat="59.163162040596" lon="17.871942919635">
        <ele>116.4</ele>
        <time>2015-02-17T20:04:21Z</time>
      </trkpt>
      <trkpt lat="59.163207721951" lon="17.871791123426">
        <ele>116.2</ele>
        <time>2015-02-17T20:04:23Z</time>
      </trkpt>
      <trkpt lat="59.163229431072" lon="17.871714429041">
        <ele>116.2</ele>
        <time>2015-02-17T20:04:24Z</time>
      </trkpt>
      <trkpt lat="59.163271927305" lon="17.87150412717">
        <ele>116</ele>
        <time>2015-02-17T20:04:27Z</time>
      </trkpt>
      <trkpt lat="59.163287350001" lon="17.871417290686">
        <ele>116.2</ele>
        <time>2015-02-17T20:04:28Z</time>
      </trkpt>
      <trkpt lat="59.163288942562" lon="17.871336992084">
        <ele>116.2</ele>
        <time>2015-02-17T20:04:29Z</time>
      </trkpt>
      <trkpt lat="59.16329246296" lon="17.871111770431">
        <ele>116</ele>
        <time>2015-02-17T20:04:32Z</time>
      </trkpt>
      <trkpt lat="59.163293049693" lon="17.871044715231">
        <ele>116.2</ele>
        <time>2015-02-17T20:04:33Z</time>
      </trkpt>
      <trkpt lat="59.163308053294" lon="17.870950251218">
        <ele>116.6</ele>
        <time>2015-02-17T20:04:34Z</time>
      </trkpt>
      <trkpt lat="59.163343173455" lon="17.870793761145">
        <ele>116.8</ele>
        <time>2015-02-17T20:04:36Z</time>
      </trkpt>
      <trkpt lat="59.16344249897" lon="17.870624446765">
        <ele>116.8</ele>
        <time>2015-02-17T20:04:39Z</time>
      </trkpt>
      <trkpt lat="59.163488180325" lon="17.870569377682">
        <ele>116.6</ele>
        <time>2015-02-17T20:04:40Z</time>
      </trkpt>
      <trkpt lat="59.163542997951" lon="17.870481954465">
        <ele>116.6</ele>
        <time>2015-02-17T20:04:42Z</time>
      </trkpt>
      <trkpt lat="59.163581973786" lon="17.870408529021">
        <ele>116.6</ele>
        <time>2015-02-17T20:04:44Z</time>
      </trkpt>
      <trkpt lat="59.163604772554" lon="17.870177440038">
        <ele>117</ele>
        <time>2015-02-17T20:04:48Z</time>
      </trkpt>
      <trkpt lat="59.163601335975" lon="17.870097895807">
        <ele>117.2</ele>
        <time>2015-02-17T20:04:49Z</time>
      </trkpt>
      <trkpt lat="59.163576944646" lon="17.86986630391">
        <ele>117.2</ele>
        <time>2015-02-17T20:04:52Z</time>
      </trkpt>
      <trkpt lat="59.163543249408" lon="17.869442347408">
        <ele>116.6</ele>
        <time>2015-02-17T20:04:57Z</time>
      </trkpt>
      <trkpt lat="59.163547524177" lon="17.869196087186">
        <ele>116.8</ele>
        <time>2015-02-17T20:05:00Z</time>
      </trkpt>
      <trkpt lat="59.163544925788" lon="17.869102126087">
        <ele>116.6</ele>
        <time>2015-02-17T20:05:01Z</time>
      </trkpt>
      <trkpt lat="59.163552888593" lon="17.868851172001">
        <ele>116.4</ele>
        <time>2015-02-17T20:05:04Z</time>
      </trkpt>
      <trkpt lat="59.163554900249" lon="17.868761485671">
        <ele>116.4</ele>
        <time>2015-02-17T20:05:05Z</time>
      </trkpt>
      <trkpt lat="59.163552720955" lon="17.868668446581">
        <ele>116.4</ele>
        <time>2015-02-17T20:05:06Z</time>
      </trkpt>
      <trkpt lat="59.163570574402" lon="17.868438698702">
        <ele>116.8</ele>
        <time>2015-02-17T20:05:09Z</time>
      </trkpt>
      <trkpt lat="59.163572083144" lon="17.868325291595">
        <ele>116.8</ele>
        <time>2015-02-17T20:05:10Z</time>
      </trkpt>
      <trkpt lat="59.16360175507" lon="17.868135944474">
        <ele>116.6</ele>
        <time>2015-02-17T20:05:12Z</time>
      </trkpt>
      <trkpt lat="59.163616255757" lon="17.867869316235">
        <ele>116.4</ele>
        <time>2015-02-17T20:05:15Z</time>
      </trkpt>
      <trkpt lat="59.163622206906" lon="17.867790358737">
        <ele>116.4</ele>
        <time>2015-02-17T20:05:16Z</time>
      </trkpt>
      <trkpt lat="59.16362690077" lon="17.867474193469">
        <ele>117.6</ele>
        <time>2015-02-17T20:05:20Z</time>
      </trkpt>
      <trkpt lat="59.163634612118" lon="17.867252240757">
        <ele>117.8</ele>
        <time>2015-02-17T20:05:23Z</time>
      </trkpt>
      <trkpt lat="59.163664116406" lon="17.866991060753">
        <ele>118</ele>
        <time>2015-02-17T20:05:27Z</time>
      </trkpt>
      <trkpt lat="59.16368389769" lon="17.866879749121">
        <ele>118.8</ele>
        <time>2015-02-17T20:05:29Z</time>
      </trkpt>
      <trkpt lat="59.163734524366" lon="17.866730467482">
        <ele>119.4</ele>
        <time>2015-02-17T20:05:32Z</time>
      </trkpt>
      <trkpt lat="59.163816080253" lon="17.866630219958">
        <ele>120.2</ele>
        <time>2015-02-17T20:05:35Z</time>
      </trkpt>
      <trkpt lat="59.163841645048" lon="17.86659149558">
        <ele>120.4</ele>
        <time>2015-02-17T20:05:36Z</time>
      </trkpt>
      <trkpt lat="59.163936863432" lon="17.866452942773">
        <ele>121.4</ele>
        <time>2015-02-17T20:05:40Z</time>
      </trkpt>
      <trkpt lat="59.163981287502" lon="17.866365351918">
        <ele>121.8</ele>
        <time>2015-02-17T20:05:42Z</time>
      </trkpt>
      <trkpt lat="59.164063849217" lon="17.86625370501">
        <ele>122.4</ele>
        <time>2015-02-17T20:05:45Z</time>
      </trkpt>
      <trkpt lat="59.164094862247" lon="17.866192684778">
        <ele>122.4</ele>
        <time>2015-02-17T20:05:46Z</time>
      </trkpt>
      <trkpt lat="59.164112548056" lon="17.866160163006">
        <ele>122.6</ele>
        <time>2015-02-17T20:05:47Z</time>
      </trkpt>
      <trkpt lat="59.16418681169" lon="17.86604164294">
        <ele>122.6</ele>
        <time>2015-02-17T20:05:50Z</time>
      </trkpt>
      <trkpt lat="59.164297871865" lon="17.865865539221">
        <ele>123</ele>
        <time>2015-02-17T20:05:54Z</time>
      </trkpt>
      <trkpt lat="59.164394766629" lon="17.865668480752">
        <ele>123.2</ele>
        <time>2015-02-17T20:05:58Z</time>
      </trkpt>
      <trkpt lat="59.164427288401" lon="17.865615590963">
        <ele>123.4</ele>
        <time>2015-02-17T20:05:59Z</time>
      </trkpt>
      <trkpt lat="59.164610349097" lon="17.865377377365">
        <ele>123.2</ele>
        <time>2015-02-17T20:06:04Z</time>
      </trkpt>
      <trkpt lat="59.164741944927" lon="17.865188868434">
        <ele>123</ele>
        <time>2015-02-17T20:06:07Z</time>
      </trkpt>
      <trkpt lat="59.164774634337" lon="17.865135475731">
        <ele>122.8</ele>
        <time>2015-02-17T20:06:08Z</time>
      </trkpt>
      <trkpt lat="59.164936572645" lon="17.864925341498">
        <ele>122.4</ele>
        <time>2015-02-17T20:06:12Z</time>
      </trkpt>
      <trkpt lat="59.165093397994" lon="17.864654270852">
        <ele>121.8</ele>
        <time>2015-02-17T20:06:16Z</time>
      </trkpt>
      <trkpt lat="59.165121058264" lon="17.86460666166">
        <ele>121.6</ele>
        <time>2015-02-17T20:06:17Z</time>
      </trkpt>
      <trkpt lat="59.165190208939" lon="17.864509599258">
        <ele>121.2</ele>
        <time>2015-02-17T20:06:19Z</time>
      </trkpt>
      <trkpt lat="59.165213510621" lon="17.864462073885">
        <ele>121.2</ele>
        <time>2015-02-17T20:06:20Z</time>
      </trkpt>
      <trkpt lat="59.165264221116" lon="17.864360652895">
        <ele>121</ele>
        <time>2015-02-17T20:06:22Z</time>
      </trkpt>
      <trkpt lat="59.165384920476" lon="17.864175664362">
        <ele>120.6</ele>
        <time>2015-02-17T20:06:25Z</time>
      </trkpt>
      <trkpt lat="59.165435630971" lon="17.864106765144">
        <ele>120.6</ele>
        <time>2015-02-17T20:06:26Z</time>
      </trkpt>
      <trkpt lat="59.165468655657" lon="17.864037698288">
        <ele>120.2</ele>
        <time>2015-02-17T20:06:27Z</time>
      </trkpt>
      <trkpt lat="59.165558761082" lon="17.863896966187">
        <ele>120.4</ele>
        <time>2015-02-17T20:06:29Z</time>
      </trkpt>
      <trkpt lat="59.165631180698" lon="17.863772411153">
        <ele>120.6</ele>
        <time>2015-02-17T20:06:31Z</time>
      </trkpt>
      <trkpt lat="59.165691278921" lon="17.863644000445">
        <ele>120.6</ele>
        <time>2015-02-17T20:06:33Z</time>
      </trkpt>
      <trkpt lat="59.165757076836" lon="17.863487845648">
        <ele>120.4</ele>
        <time>2015-02-17T20:06:35Z</time>
      </trkpt>
      <trkpt lat="59.165792196997" lon="17.863419700801">
        <ele>120.4</ele>
        <time>2015-02-17T20:06:36Z</time>
      </trkpt>
      <trkpt lat="59.16586738264" lon="17.863321464933">
        <ele>120.2</ele>
        <time>2015-02-17T20:06:38Z</time>
      </trkpt>
      <trkpt lat="59.165905855561" lon="17.8632622049">
        <ele>120.2</ele>
        <time>2015-02-17T20:06:39Z</time>
      </trkpt>
      <trkpt lat="59.165997721185" lon="17.863065062612">
        <ele>120</ele>
        <time>2015-02-17T20:06:42Z</time>
      </trkpt>
      <trkpt lat="59.166043653997" lon="17.862986272752">
        <ele>119.8</ele>
        <time>2015-02-17T20:06:43Z</time>
      </trkpt>
      <trkpt lat="59.166167203203" lon="17.862747640059">
        <ele>119.4</ele>
        <time>2015-02-17T20:06:46Z</time>
      </trkpt>
      <trkpt lat="59.166217997517" lon="17.862691900424">
        <ele>119.2</ele>
        <time>2015-02-17T20:06:47Z</time>
      </trkpt>
      <trkpt lat="59.166262421587" lon="17.862642531033">
        <ele>118.8</ele>
        <time>2015-02-17T20:06:48Z</time>
      </trkpt>
      <trkpt lat="59.166442297161" lon="17.862413872801">
        <ele>118.6</ele>
        <time>2015-02-17T20:06:52Z</time>
      </trkpt>
      <trkpt lat="59.166470125069" lon="17.862362072659">
        <ele>118.8</ele>
        <time>2015-02-17T20:06:53Z</time>
      </trkpt>
      <trkpt lat="59.16655637482" lon="17.862161242335">
        <ele>118.6</ele>
        <time>2015-02-17T20:06:56Z</time>
      </trkpt>
      <trkpt lat="59.166596943216" lon="17.86207448967">
        <ele>118.4</ele>
        <time>2015-02-17T20:06:57Z</time>
      </trkpt>
      <trkpt lat="59.166644049494" lon="17.862005087538">
        <ele>118.4</ele>
        <time>2015-02-17T20:06:58Z</time>
      </trkpt>
      <trkpt lat="59.166695346722" lon="17.861937277967">
        <ele>118.2</ele>
        <time>2015-02-17T20:06:59Z</time>
      </trkpt>
      <trkpt lat="59.16679944992" lon="17.861889752594">
        <ele>117.8</ele>
        <time>2015-02-17T20:07:01Z</time>
      </trkpt>
      <trkpt lat="59.166854183727" lon="17.861861673229">
        <ele>117.8</ele>
        <time>2015-02-17T20:07:02Z</time>
      </trkpt>
      <trkpt lat="59.166972200879" lon="17.861891596612">
        <ele>118</ele>
        <time>2015-02-17T20:07:05Z</time>
      </trkpt>
      <trkpt lat="59.167023414288" lon="17.86195965764">
        <ele>118.2</ele>
        <time>2015-02-17T20:07:07Z</time>
      </trkpt>
      <trkpt lat="59.167047721798" lon="17.861998717294">
        <ele>118.4</ele>
        <time>2015-02-17T20:07:08Z</time>
      </trkpt>
      <trkpt lat="59.167064653236" lon="17.862050265979">
        <ele>118.6</ele>
        <time>2015-02-17T20:07:09Z</time>
      </trkpt>
      <trkpt lat="59.167073286593" lon="17.862094270954">
        <ele>118.8</ele>
        <time>2015-02-17T20:07:10Z</time>
      </trkpt>
      <trkpt lat="59.167113100618" lon="17.862278672754">
        <ele>120</ele>
        <time>2015-02-17T20:07:13Z</time>
      </trkpt>
      <trkpt lat="59.167185771691" lon="17.862612775288">
        <ele>119.6</ele>
        <time>2015-02-17T20:07:16Z</time>
      </trkpt>
      <trkpt lat="59.167216952359" lon="17.86287412293">
        <ele>119</ele>
        <time>2015-02-17T20:07:18Z</time>
      </trkpt>
      <trkpt lat="59.167214689246" lon="17.86311552165">
        <ele>118.2</ele>
        <time>2015-02-17T20:07:20Z</time>
      </trkpt>
      <trkpt lat="59.1672118394" lon="17.863223229065">
        <ele>117.8</ele>
        <time>2015-02-17T20:07:21Z</time>
      </trkpt>
      <trkpt lat="59.167218293463" lon="17.863332109946">
        <ele>117.6</ele>
        <time>2015-02-17T20:07:22Z</time>
      </trkpt>
      <trkpt lat="59.16725877804" lon="17.86354216036">
        <ele>116.8</ele>
        <time>2015-02-17T20:07:24Z</time>
      </trkpt>
      <trkpt lat="59.167275793297" lon="17.863667637403">
        <ele>116.6</ele>
        <time>2015-02-17T20:07:25Z</time>
      </trkpt>
      <trkpt lat="59.167297753875" lon="17.863781379786">
        <ele>116.6</ele>
        <time>2015-02-17T20:07:26Z</time>
      </trkpt>
      <trkpt lat="59.16737528645" lon="17.86419343399">
        <ele>115.4</ele>
        <time>2015-02-17T20:07:29Z</time>
      </trkpt>
      <trkpt lat="59.167458434898" lon="17.864574894259">
        <ele>114.6</ele>
        <time>2015-02-17T20:07:32Z</time>
      </trkpt>
      <trkpt lat="59.167487855367" lon="17.864683942778">
        <ele>114.2</ele>
        <time>2015-02-17T20:07:33Z</time>
      </trkpt>
      <trkpt lat="59.167515683275" lon="17.864807324346">
        <ele>114.2</ele>
        <time>2015-02-17T20:07:34Z</time>
      </trkpt>
      <trkpt lat="59.167537727672" lon="17.864939255452">
        <ele>113.8</ele>
        <time>2015-02-17T20:07:35Z</time>
      </trkpt>
      <trkpt lat="59.167560191164" lon="17.865075880422">
        <ele>113.2</ele>
        <time>2015-02-17T20:07:36Z</time>
      </trkpt>
      <trkpt lat="59.167614589695" lon="17.865341251376">
        <ele>112.4</ele>
        <time>2015-02-17T20:07:38Z</time>
      </trkpt>
      <trkpt lat="59.167641747051" lon="17.865483240762">
        <ele>111.8</ele>
        <time>2015-02-17T20:07:39Z</time>
      </trkpt>
      <trkpt lat="59.167762697868" lon="17.865870903637">
        <ele>110.2</ele>
        <time>2015-02-17T20:07:42Z</time>
      </trkpt>
      <trkpt lat="59.167809385051" lon="17.865981377079">
        <ele>109.2</ele>
        <time>2015-02-17T20:07:43Z</time>
      </trkpt>
      <trkpt lat="59.167867387799" lon="17.866091850521">
        <ele>108.6</ele>
        <time>2015-02-17T20:07:44Z</time>
      </trkpt>
      <trkpt lat="59.167984734399" lon="17.866295111596">
        <ele>107.6</ele>
        <time>2015-02-17T20:07:46Z</time>
      </trkpt>
      <trkpt lat="59.168037372731" lon="17.866408183427">
        <ele>107.2</ele>
        <time>2015-02-17T20:07:47Z</time>
      </trkpt>
      <trkpt lat="59.168090430158" lon="17.866501138698">
        <ele>106.8</ele>
        <time>2015-02-17T20:07:48Z</time>
      </trkpt>
      <trkpt lat="59.16820844731" lon="17.866700627918">
        <ele>106</ele>
        <time>2015-02-17T20:07:50Z</time>
      </trkpt>
      <trkpt lat="59.168266952972" lon="17.866782854357">
        <ele>105.8</ele>
        <time>2015-02-17T20:07:51Z</time>
      </trkpt>
      <trkpt lat="59.168372061998" lon="17.866953342203">
        <ele>105.2</ele>
        <time>2015-02-17T20:07:53Z</time>
      </trkpt>
      <trkpt lat="59.168476332834" lon="17.867139252745">
        <ele>105</ele>
        <time>2015-02-17T20:07:55Z</time>
      </trkpt>
      <trkpt lat="59.16858898557" lon="17.867413173237">
        <ele>105.8</ele>
        <time>2015-02-17T20:07:58Z</time>
      </trkpt>
      <trkpt lat="59.16861580765" lon="17.867526412706">
        <ele>105.8</ele>
        <time>2015-02-17T20:07:59Z</time>
      </trkpt>
      <trkpt lat="59.168656376046" lon="17.867725231374">
        <ele>105.8</ele>
        <time>2015-02-17T20:08:01Z</time>
      </trkpt>
      <trkpt lat="59.168640785712" lon="17.867955817443">
        <ele>105.2</ele>
        <time>2015-02-17T20:08:03Z</time>
      </trkpt>
      <trkpt lat="59.168598373298" lon="17.868155390482">
        <ele>104.6</ele>
        <time>2015-02-17T20:08:05Z</time>
      </trkpt>
      <trkpt lat="59.168569288105" lon="17.868258571671">
        <ele>104.4</ele>
        <time>2015-02-17T20:08:06Z</time>
      </trkpt>
      <trkpt lat="59.168558223997" lon="17.868364518887">
        <ele>104.4</ele>
        <time>2015-02-17T20:08:07Z</time>
      </trkpt>
      <trkpt lat="59.168530144632" lon="17.86867942687">
        <ele>105</ele>
        <time>2015-02-17T20:08:10Z</time>
      </trkpt>
      <trkpt lat="59.168537939799" lon="17.868760396024">
        <ele>105.2</ele>
        <time>2015-02-17T20:08:11Z</time>
      </trkpt>
      <trkpt lat="59.168613376899" lon="17.869094750015">
        <ele>105</ele>
        <time>2015-02-17T20:08:15Z</time>
      </trkpt>
      <trkpt lat="59.168648916155" lon="17.869467241651">
        <ele>105</ele>
        <time>2015-02-17T20:08:20Z</time>
      </trkpt>
      <trkpt lat="59.168668865077" lon="17.869600262404">
        <ele>105.2</ele>
        <time>2015-02-17T20:08:22Z</time>
      </trkpt>
      <trkpt lat="59.168665847593" lon="17.869657510781">
        <ele>105.2</ele>
        <time>2015-02-17T20:08:23Z</time>
      </trkpt>
      <trkpt lat="59.168634499287" lon="17.86976991206">
        <ele>105.6</ele>
        <time>2015-02-17T20:08:25Z</time>
      </trkpt>
      <trkpt lat="59.168493180453" lon="17.869927910875">
        <ele>105.2</ele>
        <time>2015-02-17T20:08:29Z</time>
      </trkpt>
      <trkpt lat="59.168411876023" lon="17.869950542005">
        <ele>105.6</ele>
        <time>2015-02-17T20:08:31Z</time>
      </trkpt>
      <trkpt lat="59.168381868821" lon="17.869944087942">
        <ele>106.4</ele>
        <time>2015-02-17T20:08:32Z</time>
      </trkpt>
      <trkpt lat="59.168365440297" lon="17.869931934187">
        <ele>107</ele>
        <time>2015-02-17T20:08:33Z</time>
      </trkpt>
      <trkpt lat="59.168345323737" lon="17.869916679129">
        <ele>107.4</ele>
        <time>2015-02-17T20:08:34Z</time>
      </trkpt>
      <trkpt lat="59.16826544423" lon="17.86988306771">
        <ele>108.6</ele>
        <time>2015-02-17T20:08:37Z</time>
      </trkpt>
      <trkpt lat="59.168229569698" lon="17.869866387729">
        <ele>109</ele>
        <time>2015-02-17T20:08:38Z</time>
      </trkpt>
      <trkpt lat="59.168160419023" lon="17.86987133305">
        <ele>109.8</ele>
        <time>2015-02-17T20:08:40Z</time>
      </trkpt>
      <trkpt lat="59.168115827315" lon="17.869877368018">
        <ele>110</ele>
        <time>2015-02-17T20:08:41Z</time>
      </trkpt>
      <trkpt lat="59.168083808457" lon="17.869902010804">
        <ele>110.2</ele>
        <time>2015-02-17T20:08:42Z</time>
      </trkpt>
      <trkpt lat="59.167971658635" lon="17.870081886378">
        <ele>110</ele>
        <time>2015-02-17T20:08:46Z</time>
      </trkpt>
      <trkpt lat="59.167902843236" lon="17.870268216015">
        <ele>110.6</ele>
        <time>2015-02-17T20:08:50Z</time>
      </trkpt>
      <trkpt lat="59.167894209879" lon="17.870304761099">
        <ele>111</ele>
        <time>2015-02-17T20:08:51Z</time>
      </trkpt>
      <trkpt lat="59.167895886259" lon="17.87037424705">
        <ele>111.4</ele>
        <time>2015-02-17T20:08:52Z</time>
      </trkpt>
      <trkpt lat="59.167902843236" lon="17.870502406301">
        <ele>111.6</ele>
        <time>2015-02-17T20:08:54Z</time>
      </trkpt>
      <trkpt lat="59.167946848211" lon="17.870823600709">
        <ele>111.4</ele>
        <time>2015-02-17T20:08:58Z</time>
      </trkpt>
      <trkpt lat="59.167919104122" lon="17.871232469791">
        <ele>111</ele>
        <time>2015-02-17T20:09:03Z</time>
      </trkpt>
      <trkpt lat="59.167836626226" lon="17.871513933993">
        <ele>110.8</ele>
        <time>2015-02-17T20:09:07Z</time>
      </trkpt>
      <trkpt lat="59.167750879389" lon="17.871577133519">
        <ele>111.2</ele>
        <time>2015-02-17T20:09:11Z</time>
      </trkpt>
      <trkpt lat="59.167696899953" lon="17.871638069932">
        <ele>112.4</ele>
        <time>2015-02-17T20:09:13Z</time>
      </trkpt>
      <trkpt lat="59.167664629638" lon="17.871650558963">
        <ele>113</ele>
        <time>2015-02-17T20:09:14Z</time>
      </trkpt>
      <trkpt lat="59.167641914689" lon="17.871669166781">
        <ele>113.6</ele>
        <time>2015-02-17T20:09:15Z</time>
      </trkpt>
      <trkpt lat="59.167590198366" lon="17.871700179811">
        <ele>115</ele>
        <time>2015-02-17T20:09:18Z</time>
      </trkpt>
      <trkpt lat="59.167568740702" lon="17.87172038019">
        <ele>115.4</ele>
        <time>2015-02-17T20:09:19Z</time>
      </trkpt>
      <trkpt lat="59.167559101517" lon="17.871747872822">
        <ele>115.8</ele>
        <time>2015-02-17T20:09:20Z</time>
      </trkpt>
      <trkpt lat="59.167537643853" lon="17.871764636622">
        <ele>116.2</ele>
        <time>2015-02-17T20:09:21Z</time>
      </trkpt>
      <trkpt lat="59.16748173658" lon="17.871804618285">
        <ele>116.6</ele>
        <time>2015-02-17T20:09:23Z</time>
      </trkpt>
      <trkpt lat="59.167343183773" lon="17.871877037901">
        <ele>116.8</ele>
        <time>2015-02-17T20:09:28Z</time>
      </trkpt>
      <trkpt lat="59.167245869914" lon="17.871871757304">
        <ele>117.4</ele>
        <time>2015-02-17T20:09:32Z</time>
      </trkpt>
      <trkpt lat="59.167223490241" lon="17.871866560526">
        <ele>117.8</ele>
        <time>2015-02-17T20:09:33Z</time>
      </trkpt>
      <trkpt lat="59.167180994008" lon="17.871831356546">
        <ele>118.6</ele>
        <time>2015-02-17T20:09:35Z</time>
      </trkpt>
      <trkpt lat="59.16715148972" lon="17.87183605041">
        <ele>119</ele>
        <time>2015-02-17T20:09:36Z</time>
      </trkpt>
      <trkpt lat="59.167130870246" lon="17.871836469505">
        <ele>119.2</ele>
        <time>2015-02-17T20:09:37Z</time>
      </trkpt>
      <trkpt lat="59.167068760367" lon="17.87182263937">
        <ele>119.8</ele>
        <time>2015-02-17T20:09:39Z</time>
      </trkpt>
      <trkpt lat="59.167000447882" lon="17.871799840602">
        <ele>120</ele>
        <time>2015-02-17T20:09:41Z</time>
      </trkpt>
      <trkpt lat="59.166816716634" lon="17.871759104568">
        <ele>120.4</ele>
        <time>2015-02-17T20:09:47Z</time>
      </trkpt>
      <trkpt lat="59.166707919572" lon="17.871828422881">
        <ele>120.8</ele>
        <time>2015-02-17T20:09:51Z</time>
      </trkpt>
      <trkpt lat="59.166596021207" lon="17.871973094475">
        <ele>122</ele>
        <time>2015-02-17T20:09:55Z</time>
      </trkpt>
      <trkpt lat="59.166539191925" lon="17.872050124136">
        <ele>122.6</ele>
        <time>2015-02-17T20:09:57Z</time>
      </trkpt>
      <trkpt lat="59.166438944401" lon="17.872126734702">
        <ele>123</ele>
        <time>2015-02-17T20:10:00Z</time>
      </trkpt>
      <trkpt lat="59.16640885338" lon="17.872148360004">
        <ele>123.2</ele>
        <time>2015-02-17T20:10:01Z</time>
      </trkpt>
      <trkpt lat="59.166238281715" lon="17.872219270878">
        <ele>124</ele>
        <time>2015-02-17T20:10:06Z</time>
      </trkpt>
      <trkpt lat="59.166207352504" lon="17.872237208144">
        <ele>124.2</ele>
        <time>2015-02-17T20:10:07Z</time>
      </trkpt>
      <trkpt lat="59.166037283753" lon="17.872290936123">
        <ele>124.8</ele>
        <time>2015-02-17T20:10:12Z</time>
      </trkpt>
      <trkpt lat="59.16597467096" lon="17.872311974692">
        <ele>125.4</ele>
        <time>2015-02-17T20:10:14Z</time>
      </trkpt>
      <trkpt lat="59.165907029027" lon="17.872348603595">
        <ele>126.6</ele>
        <time>2015-02-17T20:10:16Z</time>
      </trkpt>
      <trkpt lat="59.165877021825" lon="17.872374671304">
        <ele>127</ele>
        <time>2015-02-17T20:10:17Z</time>
      </trkpt>
      <trkpt lat="59.165737044095" lon="17.87243619445">
        <ele>127.6</ele>
        <time>2015-02-17T20:10:21Z</time>
      </trkpt>
      <trkpt lat="59.165638389132" lon="17.872501657089">
        <ele>128.2</ele>
        <time>2015-02-17T20:10:24Z</time>
      </trkpt>
      <trkpt lat="59.165545936775" lon="17.872531077558">
        <ele>128.2</ele>
        <time>2015-02-17T20:10:27Z</time>
      </trkpt>
      <trkpt lat="59.165416687877" lon="17.872538872725">
        <ele>128.8</ele>
        <time>2015-02-17T20:10:30Z</time>
      </trkpt>
      <trkpt lat="59.165384333743" lon="17.872549853014">
        <ele>129.4</ele>
        <time>2015-02-17T20:10:31Z</time>
      </trkpt>
      <trkpt lat="59.165210828413" lon="17.87257701037">
        <ele>129.8</ele>
        <time>2015-02-17T20:10:35Z</time>
      </trkpt>
      <trkpt lat="59.165090296691" lon="17.872572567963">
        <ele>130</ele>
        <time>2015-02-17T20:10:38Z</time>
      </trkpt>
      <trkpt lat="59.165037909816" lon="17.872550523566">
        <ele>129.8</ele>
        <time>2015-02-17T20:10:39Z</time>
      </trkpt>
      <trkpt lat="59.164840348433" lon="17.872480786158">
        <ele>128.8</ele>
        <time>2015-02-17T20:10:42Z</time>
      </trkpt>
      <trkpt lat="59.164792152508" lon="17.872467458937">
        <ele>128</ele>
        <time>2015-02-17T20:10:43Z</time>
      </trkpt>
      <trkpt lat="59.164687965491" lon="17.872463938539">
        <ele>127.2</ele>
        <time>2015-02-17T20:10:45Z</time>
      </trkpt>
      <trkpt lat="59.16458579013" lon="17.872531664291">
        <ele>127.2</ele>
        <time>2015-02-17T20:10:47Z</time>
      </trkpt>
      <trkpt lat="59.164494343601" lon="17.872620680069">
        <ele>127</ele>
        <time>2015-02-17T20:10:49Z</time>
      </trkpt>
      <trkpt lat="59.164447237323" lon="17.872733668081">
        <ele>126.6</ele>
        <time>2015-02-17T20:10:51Z</time>
      </trkpt>
      <trkpt lat="59.164410273144" lon="17.872826707171">
        <ele>126.4</ele>
        <time>2015-02-17T20:10:52Z</time>
      </trkpt>
      <trkpt lat="59.164281024246" lon="17.873168269596">
        <ele>126.6</ele>
        <time>2015-02-17T20:10:56Z</time>
      </trkpt>
      <trkpt lat="59.164132077883" lon="17.873539168671">
        <ele>125.8</ele>
        <time>2015-02-17T20:11:00Z</time>
      </trkpt>
      <trkpt lat="59.16405689224" lon="17.873750727827">
        <ele>125</ele>
        <time>2015-02-17T20:11:02Z</time>
      </trkpt>
      <trkpt lat="59.164000230596" lon="17.873996736592">
        <ele>124.4</ele>
        <time>2015-02-17T20:11:04Z</time>
      </trkpt>
      <trkpt lat="59.163930409369" lon="17.874263700107">
        <ele>123.4</ele>
        <time>2015-02-17T20:11:06Z</time>
      </trkpt>
      <trkpt lat="59.163856648649" lon="17.874530412165">
        <ele>121.6</ele>
        <time>2015-02-17T20:11:08Z</time>
      </trkpt>
      <trkpt lat="59.16379621515" lon="17.874677263053">
        <ele>120.6</ele>
        <time>2015-02-17T20:11:09Z</time>
      </trkpt>
      <trkpt lat="59.163733434719" lon="17.874838949904">
        <ele>119</ele>
        <time>2015-02-17T20:11:10Z</time>
      </trkpt>
      <trkpt lat="59.163684987337" lon="17.874983537679">
        <ele>118</ele>
        <time>2015-02-17T20:11:11Z</time>
      </trkpt>
      <trkpt lat="59.163643161656" lon="17.875143464331">
        <ele>117</ele>
        <time>2015-02-17T20:11:12Z</time>
      </trkpt>
      <trkpt lat="59.163641233819" lon="17.875286208088">
        <ele>116.4</ele>
        <time>2015-02-17T20:11:13Z</time>
      </trkpt>
      <trkpt lat="59.163632013729" lon="17.87545200207">
        <ele>115.8</ele>
        <time>2015-02-17T20:11:14Z</time>
      </trkpt>
      <trkpt lat="59.163621955449" lon="17.875562810788">
        <ele>115.4</ele>
        <time>2015-02-17T20:11:15Z</time>
      </trkpt>
      <trkpt lat="59.163593708446" lon="17.8757931454">
        <ele>115.2</ele>
        <time>2015-02-17T20:11:17Z</time>
      </trkpt>
      <trkpt lat="59.163593456989" lon="17.875903367385">
        <ele>115.2</ele>
        <time>2015-02-17T20:11:18Z</time>
      </trkpt>
      <trkpt lat="59.163539896648" lon="17.87636143822">
        <ele>116.4</ele>
        <time>2015-02-17T20:11:22Z</time>
      </trkpt>
      <trkpt lat="59.163531011834" lon="17.876799308676">
        <ele>116.6</ele>
        <time>2015-02-17T20:11:26Z</time>
      </trkpt>
      <trkpt lat="59.163395476511" lon="17.876963426278">
        <ele>115.6</ele>
        <time>2015-02-17T20:11:29Z</time>
      </trkpt>
      <trkpt lat="59.16330000667" lon="17.8768744105">
        <ele>114.8</ele>
        <time>2015-02-17T20:11:31Z</time>
      </trkpt>
      <trkpt lat="59.163279135739" lon="17.876842894556">
        <ele>114.8</ele>
        <time>2015-02-17T20:11:32Z</time>
      </trkpt>
      <trkpt lat="59.163204872105" lon="17.876706185767">
        <ele>115.2</ele>
        <time>2015-02-17T20:11:35Z</time>
      </trkpt>
      <trkpt lat="59.163164052252" lon="17.876603507492">
        <ele>116.2</ele>
        <time>2015-02-17T20:11:37Z</time>
      </trkpt>
      <trkpt lat="59.163123819132" lon="17.876442491193">
        <ele>117.4</ele>
        <time>2015-02-17T20:11:40Z</time>
      </trkpt>
      <trkpt lat="59.163112755024" lon="17.876300920902">
        <ele>117.6</ele>
        <time>2015-02-17T20:11:42Z</time>
      </trkpt>
      <trkpt lat="59.163122729485" lon="17.875941588849">
        <ele>117.2</ele>
        <time>2015-02-17T20:11:46Z</time>
      </trkpt>
      <trkpt lat="59.163131949575" lon="17.875870761794">
        <ele>117</ele>
        <time>2015-02-17T20:11:47Z</time>
      </trkpt>
      <trkpt lat="59.163143432778" lon="17.875685102709">
        <ele>116</ele>
        <time>2015-02-17T20:11:49Z</time>
      </trkpt>
      <trkpt lat="59.163145947348" lon="17.875532803586">
        <ele>115.8</ele>
        <time>2015-02-17T20:11:51Z</time>
      </trkpt>
      <trkpt lat="59.163142678407" lon="17.875422246325">
        <ele>115.6</ele>
        <time>2015-02-17T20:11:52Z</time>
      </trkpt>
      <trkpt lat="59.163113509395" lon="17.875155534267">
        <ele>116</ele>
        <time>2015-02-17T20:11:55Z</time>
      </trkpt>
      <trkpt lat="59.16310303202" lon="17.875011784682">
        <ele>116.4</ele>
        <time>2015-02-17T20:11:57Z</time>
      </trkpt>
      <trkpt lat="59.163112000653" lon="17.874868370373">
        <ele>116.4</ele>
        <time>2015-02-17T20:11:59Z</time>
      </trkpt>
      <trkpt lat="59.16312733953" lon="17.874645160376">
        <ele>117</ele>
        <time>2015-02-17T20:12:02Z</time>
      </trkpt>
      <trkpt lat="59.163149803022" lon="17.874400744172">
        <ele>116.8</ele>
        <time>2015-02-17T20:12:05Z</time>
      </trkpt>
      <trkpt lat="59.163146198805" lon="17.87411760359">
        <ele>116.2</ele>
        <time>2015-02-17T20:12:09Z</time>
      </trkpt>
      <trkpt lat="59.163138990371" lon="17.874042585585">
        <ele>116.2</ele>
        <time>2015-02-17T20:12:10Z</time>
      </trkpt>
      <trkpt lat="59.163075455569" lon="17.873834043913">
        <ele>116.8</ele>
        <time>2015-02-17T20:12:14Z</time>
      </trkpt>
      <trkpt lat="59.163032707879" lon="17.873567164217">
        <ele>116.8</ele>
        <time>2015-02-17T20:12:18Z</time>
      </trkpt>
      <trkpt lat="59.163023571608" lon="17.873410003592">
        <ele>117.2</ele>
        <time>2015-02-17T20:12:20Z</time>
      </trkpt>
      <trkpt lat="59.163027008187" lon="17.873333141569">
        <ele>117</ele>
        <time>2015-02-17T20:12:21Z</time>
      </trkpt>
      <trkpt lat="59.163040419227" lon="17.87315703785">
        <ele>117.2</ele>
        <time>2015-02-17T20:12:23Z</time>
      </trkpt>
      <trkpt lat="59.163057853579" lon="17.873064585493">
        <ele>117.4</ele>
        <time>2015-02-17T20:12:24Z</time>
      </trkpt>
      <trkpt lat="59.163091716455" lon="17.872868281395">
        <ele>117.2</ele>
        <time>2015-02-17T20:12:26Z</time>
      </trkpt>
      <trkpt lat="59.163095572129" lon="17.872796448512">
        <ele>117.4</ele>
        <time>2015-02-17T20:12:27Z</time>
      </trkpt>
      <trkpt lat="59.163107558246" lon="17.872549685376">
        <ele>117.6</ele>
        <time>2015-02-17T20:12:30Z</time>
      </trkpt>
      <trkpt lat="59.163101858554" lon="17.872188174029">
        <ele>117.4</ele>
        <time>2015-02-17T20:12:34Z</time>
      </trkpt>
      <trkpt lat="59.163132620127" lon="17.871864129775">
        <ele>117.2</ele>
        <time>2015-02-17T20:12:37Z</time>
      </trkpt>
      <trkpt lat="59.163149216289" lon="17.87179246453">
        <ele>117.2</ele>
        <time>2015-02-17T20:12:38Z</time>
      </trkpt>
      <trkpt lat="59.163227335597" lon="17.871573780759">
        <ele>116.8</ele>
        <time>2015-02-17T20:12:41Z</time>
      </trkpt>
      <trkpt lat="59.163267736355" lon="17.871412345365">
        <ele>116.6</ele>
        <time>2015-02-17T20:12:43Z</time>
      </trkpt>
      <trkpt lat="59.163285338345" lon="17.87127278673">
        <ele>116.8</ele>
        <time>2015-02-17T20:12:45Z</time>
      </trkpt>
      <trkpt lat="59.163289277838" lon="17.871156948872">
        <ele>116.6</ele>
        <time>2015-02-17T20:12:47Z</time>
      </trkpt>
      <trkpt lat="59.163308891484" lon="17.871007667233">
        <ele>117</ele>
        <time>2015-02-17T20:12:49Z</time>
      </trkpt>
      <trkpt lat="59.163357255047" lon="17.870825277089">
        <ele>116.8</ele>
        <time>2015-02-17T20:12:52Z</time>
      </trkpt>
      <trkpt lat="59.163487174497" lon="17.870615394313">
        <ele>116.6</ele>
        <time>2015-02-17T20:12:56Z</time>
      </trkpt>
      <trkpt lat="59.163628074236" lon="17.870345329495">
        <ele>117.2</ele>
        <time>2015-02-17T20:13:01Z</time>
      </trkpt>
      <trkpt lat="59.163642323466" lon="17.870264276522">
        <ele>117.4</ele>
        <time>2015-02-17T20:13:03Z</time>
      </trkpt>
      <trkpt lat="59.163647268787" lon="17.870186911585">
        <ele>117.6</ele>
        <time>2015-02-17T20:13:04Z</time>
      </trkpt>
      <trkpt lat="59.163613238273" lon="17.869950542005">
        <ele>117.4</ele>
        <time>2015-02-17T20:13:08Z</time>
      </trkpt>
      <trkpt lat="59.163605778382" lon="17.869733534614">
        <ele>117</ele>
        <time>2015-02-17T20:13:11Z</time>
      </trkpt>
      <trkpt lat="59.163610807522" lon="17.86964166899">
        <ele>117</ele>
        <time>2015-02-17T20:13:12Z</time>
      </trkpt>
      <trkpt lat="59.163609634056" lon="17.869268590621">
        <ele>117</ele>
        <time>2015-02-17T20:13:16Z</time>
      </trkpt>
      <trkpt lat="59.163622206906" lon="17.869122661742">
        <ele>117</ele>
        <time>2015-02-17T20:13:18Z</time>
      </trkpt>
      <trkpt lat="59.163657829981" lon="17.868941277426">
        <ele>117.2</ele>
        <time>2015-02-17T20:13:20Z</time>
      </trkpt>
      <trkpt lat="59.163683981509" lon="17.868623519597">
        <ele>117</ele>
        <time>2015-02-17T20:13:24Z</time>
      </trkpt>
      <trkpt lat="59.163694961798" lon="17.868569204885">
        <ele>117</ele>
        <time>2015-02-17T20:13:25Z</time>
      </trkpt>
      <trkpt lat="59.163724046991" lon="17.868415564658">
        <ele>117</ele>
        <time>2015-02-17T20:13:27Z</time>
      </trkpt>
      <trkpt lat="59.163733099443" lon="17.868258404033">
        <ele>117.4</ele>
        <time>2015-02-17T20:13:29Z</time>
      </trkpt>
      <trkpt lat="59.163727232113" lon="17.868172238101">
        <ele>117.2</ele>
        <time>2015-02-17T20:13:30Z</time>
      </trkpt>
      <trkpt lat="59.163732596529" lon="17.868105350539">
        <ele>117.4</ele>
        <time>2015-02-17T20:13:31Z</time>
      </trkpt>
      <trkpt lat="59.16369563235" lon="17.867776612421">
        <ele>117.8</ele>
        <time>2015-02-17T20:13:35Z</time>
      </trkpt>
      <trkpt lat="59.163689010649" lon="17.867702516425">
        <ele>117.6</ele>
        <time>2015-02-17T20:13:36Z</time>
      </trkpt>
      <trkpt lat="59.163642658742" lon="17.867498920074">
        <ele>118</ele>
        <time>2015-02-17T20:13:39Z</time>
      </trkpt>
      <trkpt lat="59.163648861348" lon="17.86744058205">
        <ele>118.4</ele>
        <time>2015-02-17T20:13:40Z</time>
      </trkpt>
      <trkpt lat="59.163638970706" lon="17.867272524955">
        <ele>118</ele>
        <time>2015-02-17T20:13:42Z</time>
      </trkpt>
      <trkpt lat="59.163676856894" lon="17.866943870656">
        <ele>119</ele>
        <time>2015-02-17T20:13:47Z</time>
      </trkpt>
      <trkpt lat="59.163687082812" lon="17.866893746894">
        <ele>119.4</ele>
        <time>2015-02-17T20:13:48Z</time>
      </trkpt>
      <trkpt lat="59.163738715316" lon="17.866685205222">
        <ele>120.2</ele>
        <time>2015-02-17T20:13:52Z</time>
      </trkpt>
      <trkpt lat="59.163792275657" lon="17.866638937134">
        <ele>120.8</ele>
        <time>2015-02-17T20:13:54Z</time>
      </trkpt>
      <trkpt lat="59.163848518206" lon="17.866559392903">
        <ele>121.4</ele>
        <time>2015-02-17T20:13:56Z</time>
      </trkpt>
      <trkpt lat="59.163869389137" lon="17.866527876959">
        <ele>121.8</ele>
        <time>2015-02-17T20:13:57Z</time>
      </trkpt>
      <trkpt lat="59.163891265896" lon="17.866487476201">
        <ele>122</ele>
        <time>2015-02-17T20:13:58Z</time>
      </trkpt>
      <trkpt lat="59.163962344408" lon="17.866361999158">
        <ele>123</ele>
        <time>2015-02-17T20:14:01Z</time>
      </trkpt>
      <trkpt lat="59.16398899885" lon="17.86631992202">
        <ele>123.2</ele>
        <time>2015-02-17T20:14:02Z</time>
      </trkpt>
      <trkpt lat="59.164136268833" lon="17.866104004276">
        <ele>123.4</ele>
        <time>2015-02-17T20:14:07Z</time>
      </trkpt>
      <trkpt lat="59.164293932372" lon="17.865833604182">
        <ele>124.2</ele>
        <time>2015-02-17T20:14:12Z</time>
      </trkpt>
      <trkpt lat="59.164420834338" lon="17.865592289281">
        <ele>124.4</ele>
        <time>2015-02-17T20:14:16Z</time>
      </trkpt>
      <trkpt lat="59.164456122137" lon="17.865541327329">
        <ele>124.4</ele>
        <time>2015-02-17T20:14:17Z</time>
      </trkpt>
      <trkpt lat="59.164577827325" lon="17.865344520317">
        <ele>124.2</ele>
        <time>2015-02-17T20:14:20Z</time>
      </trkpt>
      <trkpt lat="59.164655695176" lon="17.865220803473">
        <ele>123.8</ele>
        <time>2015-02-17T20:14:22Z</time>
      </trkpt>
      <trkpt lat="59.164739430357" lon="17.86514645602">
        <ele>123.8</ele>
        <time>2015-02-17T20:14:24Z</time>
      </trkpt>
      <trkpt lat="59.164824758099" lon="17.865056182957">
        <ele>123.6</ele>
        <time>2015-02-17T20:14:26Z</time>
      </trkpt>
      <trkpt lat="59.164954426092" lon="17.864873122261">
        <ele>123.2</ele>
        <time>2015-02-17T20:14:29Z</time>
      </trkpt>
      <trkpt lat="59.165032964495" lon="17.864787626881">
        <ele>123</ele>
        <time>2015-02-17T20:14:31Z</time>
      </trkpt>
      <trkpt lat="59.1650576911" lon="17.864730629961">
        <ele>122.4</ele>
        <time>2015-02-17T20:14:32Z</time>
      </trkpt>
      <trkpt lat="59.165120806807" lon="17.864601548701">
        <ele>122.6</ele>
        <time>2015-02-17T20:14:34Z</time>
      </trkpt>
      <trkpt lat="59.165164392687" lon="17.864541115202">
        <ele>122.2</ele>
        <time>2015-02-17T20:14:35Z</time>
      </trkpt>
      <trkpt lat="59.165298922182" lon="17.864327376752">
        <ele>121.8</ele>
        <time>2015-02-17T20:14:38Z</time>
      </trkpt>
      <trkpt lat="59.165395816946" lon="17.864197289664">
        <ele>121.6</ele>
        <time>2015-02-17T20:14:40Z</time>
      </trkpt>
      <trkpt lat="59.165419286266" lon="17.864127719894">
        <ele>121.8</ele>
        <time>2015-02-17T20:14:41Z</time>
      </trkpt>
      <trkpt lat="59.16549522628" lon="17.863990508191">
        <ele>121.6</ele>
        <time>2015-02-17T20:14:43Z</time>
      </trkpt>
      <trkpt lat="59.165558258168" lon="17.863914232901">
        <ele>121.6</ele>
        <time>2015-02-17T20:14:44Z</time>
      </trkpt>
      <trkpt lat="59.165626738291" lon="17.863737039535">
        <ele>121.6</ele>
        <time>2015-02-17T20:14:46Z</time>
      </trkpt>
      <trkpt lat="59.165743162882" lon="17.863529755148">
        <ele>121.8</ele>
        <time>2015-02-17T20:14:49Z</time>
      </trkpt>
      <trkpt lat="59.165764620546" lon="17.863448953632">
        <ele>121.8</ele>
        <time>2015-02-17T20:14:50Z</time>
      </trkpt>
      <trkpt lat="59.165832346298" lon="17.86325466119">
        <ele>121.4</ele>
        <time>2015-02-17T20:14:53Z</time>
      </trkpt>
      <trkpt lat="59.165969977096" lon="17.862962887251">
        <ele>121</ele>
        <time>2015-02-17T20:14:58Z</time>
      </trkpt>
      <trkpt lat="59.165997972642" lon="17.862889713264">
        <ele>121</ele>
        <time>2015-02-17T20:14:59Z</time>
      </trkpt>
      <trkpt lat="59.166034098631" lon="17.86281125868">
        <ele>120.8</ele>
        <time>2015-02-17T20:15:00Z</time>
      </trkpt>
      <trkpt lat="59.166075337579" lon="17.862751076638">
        <ele>120.6</ele>
        <time>2015-02-17T20:15:01Z</time>
      </trkpt>
      <trkpt lat="59.166147086643" lon="17.862657366996">
        <ele>120.2</ele>
        <time>2015-02-17T20:15:03Z</time>
      </trkpt>
      <trkpt lat="59.16618505665" lon="17.862624090853">
        <ele>120.2</ele>
        <time>2015-02-17T20:15:04Z</time>
      </trkpt>
      <trkpt lat="59.166268288917" lon="17.862521915492">
        <ele>120</ele>
        <time>2015-02-17T20:15:06Z</time>
      </trkpt>
      <trkpt lat="59.166377756531" lon="17.862365844514">
        <ele>120.2</ele>
        <time>2015-02-17T20:15:09Z</time>
      </trkpt>
      <trkpt lat="59.166455372925" lon="17.862209773536">
        <ele>120.4</ele>
        <time>2015-02-17T20:15:11Z</time>
      </trkpt>
      <trkpt lat="59.166555368992" lon="17.861995532172">
        <ele>119.8</ele>
        <time>2015-02-17T20:15:14Z</time>
      </trkpt>
      <trkpt lat="59.16659828432" lon="17.861929818076">
        <ele>119.4</ele>
        <time>2015-02-17T20:15:15Z</time>
      </trkpt>
      <trkpt lat="59.1667508349" lon="17.861827726534">
        <ele>119</ele>
        <time>2015-02-17T20:15:18Z</time>
      </trkpt>
      <trkpt lat="59.166888633336" lon="17.861856224994">
        <ele>118.6</ele>
        <time>2015-02-17T20:15:21Z</time>
      </trkpt>
      <trkpt lat="59.16691595833" lon="17.861893272992">
        <ele>118.6</ele>
        <time>2015-02-17T20:15:22Z</time>
      </trkpt>
      <trkpt lat="59.16699893914" lon="17.862017408931">
        <ele>119.4</ele>
        <time>2015-02-17T20:15:26Z</time>
      </trkpt>
      <trkpt lat="59.167003213909" lon="17.86204012388">
        <ele>119.6</ele>
        <time>2015-02-17T20:15:27Z</time>
      </trkpt>
      <trkpt lat="59.167011931085" lon="17.862109526012">
        <ele>120.4</ele>
        <time>2015-02-17T20:15:29Z</time>
      </trkpt>
      <trkpt lat="59.167010087067" lon="17.862176245936">
        <ele>120.6</ele>
        <time>2015-02-17T20:15:30Z</time>
      </trkpt>
      <trkpt lat="59.167022576098" lon="17.862228884268">
        <ele>120.8</ele>
        <time>2015-02-17T20:15:31Z</time>
      </trkpt>
      <trkpt lat="59.167043782305" lon="17.86238042902">
        <ele>120.8</ele>
        <time>2015-02-17T20:15:33Z</time>
      </trkpt>
      <trkpt lat="59.167074292421" lon="17.862589725063">
        <ele>120.4</ele>
        <time>2015-02-17T20:15:35Z</time>
      </trkpt>
      <trkpt lat="59.167083512511" lon="17.862788543731">
        <ele>119.6</ele>
        <time>2015-02-17T20:15:37Z</time>
      </trkpt>
      <trkpt lat="59.167088374013" lon="17.862881834278">
        <ele>119.4</ele>
        <time>2015-02-17T20:15:38Z</time>
      </trkpt>
      <trkpt lat="59.167092229687" lon="17.863035390686">
        <ele>118.6</ele>
        <time>2015-02-17T20:15:40Z</time>
      </trkpt>
      <trkpt lat="59.167100946863" lon="17.863077970738">
        <ele>118.4</ele>
        <time>2015-02-17T20:15:41Z</time>
      </trkpt>
      <trkpt lat="59.167102958519" lon="17.8630945669">
        <ele>118.2</ele>
        <time>2015-02-17T20:15:42Z</time>
      </trkpt>
      <trkpt lat="59.167103461433" lon="17.863096075642">
        <ele>118</ele>
        <time>2015-02-17T20:15:44Z</time>
      </trkpt>
      <trkpt lat="59.167111927152" lon="17.863467980545">
        <ele>117</ele>
        <time>2015-02-17T20:17:08Z</time>
      </trkpt>
      <trkpt lat="59.167118465034" lon="17.863496311367">
        <ele>117</ele>
        <time>2015-02-17T20:17:09Z</time>
      </trkpt>
      <trkpt lat="59.167133552454" lon="17.863555739038">
        <ele>116.8</ele>
        <time>2015-02-17T20:17:14Z</time>
      </trkpt>
      <trkpt lat="59.167233213245" lon="17.863891266495">
        <ele>116.6</ele>
        <time>2015-02-17T20:18:08Z</time>
      </trkpt>
      <trkpt lat="59.167246456647" lon="17.863955974763">
        <ele>116.4</ele>
        <time>2015-02-17T20:18:09Z</time>
      </trkpt>
      <trkpt lat="59.167302699196" lon="17.864177424561">
        <ele>116</ele>
        <time>2015-02-17T20:18:12Z</time>
      </trkpt>
      <trkpt lat="59.167333041674" lon="17.864258142258">
        <ele>115.8</ele>
        <time>2015-02-17T20:18:13Z</time>
      </trkpt>
      <trkpt lat="59.167406802394" lon="17.864547317808">
        <ele>115</ele>
        <time>2015-02-17T20:18:16Z</time>
      </trkpt>
      <trkpt lat="59.167432367189" lon="17.864655947232">
        <ele>114.6</ele>
        <time>2015-02-17T20:18:17Z</time>
      </trkpt>
      <trkpt lat="59.16748257477" lon="17.865000527141">
        <ele>113.6</ele>
        <time>2015-02-17T20:18:20Z</time>
      </trkpt>
      <trkpt lat="59.167498081285" lon="17.865119382483">
        <ele>113</ele>
        <time>2015-02-17T20:18:21Z</time>
      </trkpt>
      <trkpt lat="59.16752029332" lon="17.865252235598">
        <ele>112.6</ele>
        <time>2015-02-17T20:18:22Z</time>
      </trkpt>
      <trkpt lat="59.167573602204" lon="17.865501513304">
        <ele>111.4</ele>
        <time>2015-02-17T20:18:24Z</time>
      </trkpt>
      <trkpt lat="59.167659935774" lon="17.865747186793">
        <ele>110.6</ele>
        <time>2015-02-17T20:18:26Z</time>
      </trkpt>
      <trkpt lat="59.167704443663" lon="17.865852882552">
        <ele>110.2</ele>
        <time>2015-02-17T20:18:27Z</time>
      </trkpt>
      <trkpt lat="59.167859676451" lon="17.86614893126">
        <ele>109.4</ele>
        <time>2015-02-17T20:18:30Z</time>
      </trkpt>
      <trkpt lat="59.167972999739" lon="17.866351354145">
        <ele>109</ele>
        <time>2015-02-17T20:18:32Z</time>
      </trkpt>
      <trkpt lat="59.168103338284" lon="17.8665982011">
        <ele>107.8</ele>
        <time>2015-02-17T20:18:35Z</time>
      </trkpt>
      <trkpt lat="59.16815815591" lon="17.866690653457">
        <ele>107.2</ele>
        <time>2015-02-17T20:18:36Z</time>
      </trkpt>
      <trkpt lat="59.168213644088" lon="17.866779836873">
        <ele>107</ele>
        <time>2015-02-17T20:18:37Z</time>
      </trkpt>
      <trkpt lat="59.168266869153" lon="17.866863823511">
        <ele>106.8</ele>
        <time>2015-02-17T20:18:38Z</time>
      </trkpt>
      <trkpt lat="59.168423610683" lon="17.867145790627">
        <ele>106.4</ele>
        <time>2015-02-17T20:18:41Z</time>
      </trkpt>
      <trkpt lat="59.168465017269" lon="17.867235728414">
        <ele>106.6</ele>
        <time>2015-02-17T20:18:42Z</time>
      </trkpt>
      <trkpt lat="59.168496365575" lon="17.86733916106">
        <ele>106.6</ele>
        <time>2015-02-17T20:18:43Z</time>
      </trkpt>
      <trkpt lat="59.168558391635" lon="17.867652308844">
        <ele>107.2</ele>
        <time>2015-02-17T20:18:46Z</time>
      </trkpt>
      <trkpt lat="59.168563253137" lon="17.867767979064">
        <ele>107.2</ele>
        <time>2015-02-17T20:18:47Z</time>
      </trkpt>
      <trkpt lat="59.168564929517" lon="17.86797031813">
        <ele>107</ele>
        <time>2015-02-17T20:18:49Z</time>
      </trkpt>
      <trkpt lat="59.168543388034" lon="17.86837348752">
        <ele>105.8</ele>
        <time>2015-02-17T20:18:53Z</time>
      </trkpt>
      <trkpt lat="59.168521259818" lon="17.868760647481">
        <ele>105.6</ele>
        <time>2015-02-17T20:18:57Z</time>
      </trkpt>
      <trkpt lat="59.168575239254" lon="17.868933146983">
        <ele>105.6</ele>
        <time>2015-02-17T20:18:59Z</time>
      </trkpt>
      <trkpt lat="59.168607761026" lon="17.869017301259">
        <ele>105.6</ele>
        <time>2015-02-17T20:19:00Z</time>
      </trkpt>
      <trkpt lat="59.168635253658" lon="17.869191477141">
        <ele>106</ele>
        <time>2015-02-17T20:19:02Z</time>
      </trkpt>
      <trkpt lat="59.168675738235" lon="17.869385601945">
        <ele>106</ele>
        <time>2015-02-17T20:19:04Z</time>
      </trkpt>
      <trkpt lat="59.168680515918" lon="17.869473276619">
        <ele>105.8</ele>
        <time>2015-02-17T20:19:05Z</time>
      </trkpt>
      <trkpt lat="59.168693424044" lon="17.869713250416">
        <ele>105.8</ele>
        <time>2015-02-17T20:19:08Z</time>
      </trkpt>
      <trkpt lat="59.168668278344" lon="17.869783742195">
        <ele>106</ele>
        <time>2015-02-17T20:19:09Z</time>
      </trkpt>
      <trkpt lat="59.168574401064" lon="17.869965126511">
        <ele>106.4</ele>
        <time>2015-02-17T20:19:13Z</time>
      </trkpt>
      <trkpt lat="59.168426795805" lon="17.869962611941">
        <ele>106.8</ele>
        <time>2015-02-17T20:19:17Z</time>
      </trkpt>
      <trkpt lat="59.168336103647" lon="17.86991827169">
        <ele>107.8</ele>
        <time>2015-02-17T20:19:20Z</time>
      </trkpt>
      <trkpt lat="59.168310287395" lon="17.869900753519">
        <ele>108.2</ele>
        <time>2015-02-17T20:19:21Z</time>
      </trkpt>
      <trkpt lat="59.168249183344" lon="17.869873931439">
        <ele>109.2</ele>
        <time>2015-02-17T20:19:23Z</time>
      </trkpt>
      <trkpt lat="59.168140721558" lon="17.869840487658">
        <ele>110.4</ele>
        <time>2015-02-17T20:19:26Z</time>
      </trkpt>
      <trkpt lat="59.168104092655" lon="17.869856161811">
        <ele>110.6</ele>
        <time>2015-02-17T20:19:27Z</time>
      </trkpt>
      <trkpt lat="59.168045922269" lon="17.869913326369">
        <ele>111</ele>
        <time>2015-02-17T20:19:29Z</time>
      </trkpt>
      <trkpt lat="59.167973837929" lon="17.870058500877">
        <ele>111.2</ele>
        <time>2015-02-17T20:19:32Z</time>
      </trkpt>
      <trkpt lat="59.167934694456" lon="17.870141062592">
        <ele>111.2</ele>
        <time>2015-02-17T20:19:34Z</time>
      </trkpt>
      <trkpt lat="59.167901334494" lon="17.870227312343">
        <ele>111.6</ele>
        <time>2015-02-17T20:19:36Z</time>
      </trkpt>
      <trkpt lat="59.167884822151" lon="17.870337701966">
        <ele>112</ele>
        <time>2015-02-17T20:19:38Z</time>
      </trkpt>
      <trkpt lat="59.167883313409" lon="17.870648838094">
        <ele>112.4</ele>
        <time>2015-02-17T20:19:42Z</time>
      </trkpt>
      <trkpt lat="59.167899574295" lon="17.870891661737">
        <ele>112</ele>
        <time>2015-02-17T20:19:45Z</time>
      </trkpt>
      <trkpt lat="59.167894796612" lon="17.871311175832">
        <ele>111.6</ele>
        <time>2015-02-17T20:19:50Z</time>
      </trkpt>
      <trkpt lat="59.167893036413" lon="17.871374626815">
        <ele>111.6</ele>
        <time>2015-02-17T20:19:51Z</time>
      </trkpt>
      <trkpt lat="59.16787820045" lon="17.871465989525">
        <ele>111.4</ele>
        <time>2015-02-17T20:19:52Z</time>
      </trkpt>
      <trkpt lat="59.167851713646" lon="17.871537235675">
        <ele>111.6</ele>
        <time>2015-02-17T20:19:54Z</time>
      </trkpt>
      <trkpt lat="59.167849618171" lon="17.871528350861">
        <ele>112</ele>
        <time>2015-02-17T20:19:56Z</time>
      </trkpt>
      <trkpt lat="59.167862358659" lon="17.871541929539">
        <ele>112.6</ele>
        <time>2015-02-17T20:19:58Z</time>
      </trkpt>
      <trkpt lat="59.167959672518" lon="17.871533296182">
        <ele>113.2</ele>
        <time>2015-02-17T20:20:01Z</time>
      </trkpt>
      <trkpt lat="59.168124795948" lon="17.871588449084">
        <ele>111.8</ele>
        <time>2015-02-17T20:20:05Z</time>
      </trkpt>
      <trkpt lat="59.168168800923" lon="17.871646284194">
        <ele>111.2</ele>
        <time>2015-02-17T20:20:06Z</time>
      </trkpt>
      <trkpt lat="59.168296205803" lon="17.871852143658">
        <ele>110.8</ele>
        <time>2015-02-17T20:20:09Z</time>
      </trkpt>
      <trkpt lat="59.168344820823" lon="17.871930262966">
        <ele>110.8</ele>
        <time>2015-02-17T20:20:10Z</time>
      </trkpt>
      <trkpt lat="59.168423359226" lon="17.872035371992">
        <ele>110.8</ele>
        <time>2015-02-17T20:20:12Z</time>
      </trkpt>
      <trkpt lat="59.168464765812" lon="17.87206403809">
        <ele>110.4</ele>
        <time>2015-02-17T20:20:13Z</time>
      </trkpt>
      <trkpt lat="59.16851438666" lon="17.872095805491">
        <ele>110.2</ele>
        <time>2015-02-17T20:20:14Z</time>
      </trkpt>
      <trkpt lat="59.1686367624" lon="17.872114748585">
        <ele>109.6</ele>
        <time>2015-02-17T20:20:17Z</time>
      </trkpt>
      <trkpt lat="59.16867029" lon="17.872120364458">
        <ele>109.6</ele>
        <time>2015-02-17T20:20:18Z</time>
      </trkpt>
      <trkpt lat="59.168753522267" lon="17.872175433541">
        <ele>109.8</ele>
        <time>2015-02-17T20:20:20Z</time>
      </trkpt>
      <trkpt lat="59.168784786754" lon="17.872209464055">
        <ele>110</ele>
        <time>2015-02-17T20:20:21Z</time>
      </trkpt>
      <trkpt lat="59.168816470336" lon="17.872254474858">
        <ele>110</ele>
        <time>2015-02-17T20:20:22Z</time>
      </trkpt>
      <trkpt lat="59.168948736718" lon="17.872409204732">
        <ele>111</ele>
        <time>2015-02-17T20:20:26Z</time>
      </trkpt>
      <trkpt lat="59.169003470525" lon="17.872429069835">
        <ele>111.2</ele>
        <time>2015-02-17T20:20:27Z</time>
      </trkpt>
      <trkpt lat="59.169118554012" lon="17.872427561093">
        <ele>110.6</ele>
        <time>2015-02-17T20:20:29Z</time>
      </trkpt>
      <trkpt lat="59.169223160124" lon="17.872369725983">
        <ele>110</ele>
        <time>2015-02-17T20:20:31Z</time>
      </trkpt>
      <trkpt lat="59.169342266923" lon="17.872307532285">
        <ele>109.2</ele>
        <time>2015-02-17T20:20:33Z</time>
      </trkpt>
      <trkpt lat="59.169424158086" lon="17.872292528684">
        <ele>108.8</ele>
        <time>2015-02-17T20:20:34Z</time>
      </trkpt>
      <trkpt lat="59.169566818024" lon="17.872409120913">
        <ele>107</ele>
        <time>2015-02-17T20:20:36Z</time>
      </trkpt>
      <trkpt lat="59.169667987557" lon="17.872574244343">
        <ele>106</ele>
        <time>2015-02-17T20:20:38Z</time>
      </trkpt>
      <trkpt lat="59.16977753899" lon="17.872729980045">
        <ele>104.8</ele>
        <time>2015-02-17T20:20:40Z</time>
      </trkpt>
      <trkpt lat="59.169983566092" lon="17.872887643584">
        <ele>104.2</ele>
        <time>2015-02-17T20:20:44Z</time>
      </trkpt>
      <trkpt lat="59.170027822524" lon="17.872941539201">
        <ele>104.4</ele>
        <time>2015-02-17T20:20:45Z</time>
      </trkpt>
      <trkpt lat="59.17010024214" lon="17.873045893856">
        <ele>104.4</ele>
        <time>2015-02-17T20:20:47Z</time>
      </trkpt>
      <trkpt lat="59.170227563201" lon="17.873150164692">
        <ele>104.8</ele>
        <time>2015-02-17T20:20:50Z</time>
      </trkpt>
      <trkpt lat="59.170268885968" lon="17.873187380328">
        <ele>104.8</ele>
        <time>2015-02-17T20:20:51Z</time>
      </trkpt>
      <trkpt lat="59.170452617216" lon="17.873327441877">
        <ele>104.2</ele>
        <time>2015-02-17T20:20:55Z</time>
      </trkpt>
      <trkpt lat="59.170495113449" lon="17.873376224535">
        <ele>104.2</ele>
        <time>2015-02-17T20:20:56Z</time>
      </trkpt>
      <trkpt lat="59.17062075813" lon="17.873545622734">
        <ele>104.6</ele>
        <time>2015-02-17T20:20:59Z</time>
      </trkpt>
      <trkpt lat="59.170705247682" lon="17.873557944127">
        <ele>104.4</ele>
        <time>2015-02-17T20:21:01Z</time>
      </trkpt>
      <trkpt lat="59.170746654268" lon="17.873500109017">
        <ele>103.4</ele>
        <time>2015-02-17T20:21:03Z</time>
      </trkpt>
      <trkpt lat="59.170770123588" lon="17.873434646378">
        <ele>103</ele>
        <time>2015-02-17T20:21:04Z</time>
      </trkpt>
      <trkpt lat="59.170808596509" lon="17.873296261209">
        <ele>102.6</ele>
        <time>2015-02-17T20:21:06Z</time>
      </trkpt>
      <trkpt lat="59.170833742209" lon="17.8732366659">
        <ele>102.2</ele>
        <time>2015-02-17T20:21:07Z</time>
      </trkpt>
      <trkpt lat="59.170858217357" lon="17.873169275424">
        <ele>102.2</ele>
        <time>2015-02-17T20:21:08Z</time>
      </trkpt>
      <trkpt lat="59.170913202621" lon="17.873101382034">
        <ele>102.2</ele>
        <time>2015-02-17T20:21:09Z</time>
      </trkpt>
      <trkpt lat="59.171032477058" lon="17.872943634676">
        <ele>102</ele>
        <time>2015-02-17T20:21:11Z</time>
      </trkpt>
      <trkpt lat="59.17113540679" lon="17.872802734937">
        <ele>100.8</ele>
        <time>2015-02-17T20:21:13Z</time>
      </trkpt>
      <trkpt lat="59.171226434224" lon="17.872660494094">
        <ele>100.4</ele>
        <time>2015-02-17T20:21:15Z</time>
      </trkpt>
      <trkpt lat="59.171276055072" lon="17.872602323708">
        <ele>100.4</ele>
        <time>2015-02-17T20:21:16Z</time>
      </trkpt>
      <trkpt lat="59.171401448296" lon="17.872387830887">
        <ele>100.8</ele>
        <time>2015-02-17T20:21:19Z</time>
      </trkpt>
      <trkpt lat="59.171439585941" lon="17.872312393787">
        <ele>100.8</ele>
        <time>2015-02-17T20:21:20Z</time>
      </trkpt>
      <trkpt lat="59.171473784093" lon="17.87226017455">
        <ele>100.6</ele>
        <time>2015-02-17T20:21:21Z</time>
      </trkpt>
      <trkpt lat="59.171590711598" lon="17.872116927879">
        <ele>100.2</ele>
        <time>2015-02-17T20:21:24Z</time>
      </trkpt>
      <trkpt lat="59.171631447632" lon="17.872048699213">
        <ele>100</ele>
        <time>2015-02-17T20:21:25Z</time>
      </trkpt>
      <trkpt lat="59.171681152299" lon="17.871936130296">
        <ele>100.2</ele>
        <time>2015-02-17T20:21:27Z</time>
      </trkpt>
      <trkpt lat="59.171688947466" lon="17.871904027619">
        <ele>100.4</ele>
        <time>2015-02-17T20:21:28Z</time>
      </trkpt>
      <trkpt lat="59.171736137563" lon="17.871808306321">
        <ele>100.6</ele>
        <time>2015-02-17T20:21:30Z</time>
      </trkpt>
      <trkpt lat="59.171744100368" lon="17.871785675191">
        <ele>101</ele>
        <time>2015-02-17T20:21:31Z</time>
      </trkpt>
      <trkpt lat="59.171811071749" lon="17.871674782654">
        <ele>102</ele>
        <time>2015-02-17T20:21:34Z</time>
      </trkpt>
      <trkpt lat="59.171833199965" lon="17.871638153751">
        <ele>102.4</ele>
        <time>2015-02-17T20:21:35Z</time>
      </trkpt>
      <trkpt lat="59.171972423324" lon="17.871356354273">
        <ele>102.4</ele>
        <time>2015-02-17T20:21:40Z</time>
      </trkpt>
      <trkpt lat="59.172053560116" lon="17.871129959154">
        <ele>102.6</ele>
        <time>2015-02-17T20:21:44Z</time>
      </trkpt>
      <trkpt lat="59.172069904821" lon="17.871098359391">
        <ele>103</ele>
        <time>2015-02-17T20:21:45Z</time>
      </trkpt>
      <trkpt lat="59.17215129307" lon="17.870966344466">
        <ele>103.2</ele>
        <time>2015-02-17T20:21:48Z</time>
      </trkpt>
      <trkpt lat="59.172269645498" lon="17.870827875478">
        <ele>102.6</ele>
        <time>2015-02-17T20:21:52Z</time>
      </trkpt>
      <trkpt lat="59.172371066488" lon="17.870720335701">
        <ele>104</ele>
        <time>2015-02-17T20:21:56Z</time>
      </trkpt>
      <trkpt lat="59.172389506668" lon="17.870704829186">
        <ele>104.4</ele>
        <time>2015-02-17T20:21:57Z</time>
      </trkpt>
      <trkpt lat="59.172440720077" lon="17.87065755527">
        <ele>105.6</ele>
        <time>2015-02-17T20:21:59Z</time>
      </trkpt>
      <trkpt lat="59.172491095296" lon="17.870600306893">
        <ele>106.4</ele>
        <time>2015-02-17T20:22:01Z</time>
      </trkpt>
      <trkpt lat="59.172519845213" lon="17.870564851456">
        <ele>106.8</ele>
        <time>2015-02-17T20:22:02Z</time>
      </trkpt>
      <trkpt lat="59.172610956466" lon="17.870435686377">
        <ele>107.2</ele>
        <time>2015-02-17T20:22:05Z</time>
      </trkpt>
      <trkpt lat="59.172703241185" lon="17.870199149159">
        <ele>107</ele>
        <time>2015-02-17T20:22:08Z</time>
      </trkpt>
      <trkpt lat="59.172799633035" lon="17.869956241697">
        <ele>105.6</ele>
        <time>2015-02-17T20:22:10Z</time>
      </trkpt>
      <trkpt lat="59.172838525051" lon="17.869862699693">
        <ele>104.8</ele>
        <time>2015-02-17T20:22:11Z</time>
      </trkpt>
      <trkpt lat="59.172884793139" lon="17.869764296187">
        <ele>104</ele>
        <time>2015-02-17T20:22:12Z</time>
      </trkpt>
      <trkpt lat="59.172978167505" lon="17.869565477519">
        <ele>102.6</ele>
        <time>2015-02-17T20:22:14Z</time>
      </trkpt>
      <trkpt lat="59.173080929599" lon="17.869380069891">
        <ele>102</ele>
        <time>2015-02-17T20:22:16Z</time>
      </trkpt>
      <trkpt lat="59.173149158265" lon="17.869320055487">
        <ele>101.6</ele>
        <time>2015-02-17T20:22:17Z</time>
      </trkpt>
      <trkpt lat="59.173287208158" lon="17.869280828195">
        <ele>101</ele>
        <time>2015-02-17T20:22:19Z</time>
      </trkpt>
      <trkpt lat="59.173349234218" lon="17.86926113073">
        <ele>100.8</ele>
        <time>2015-02-17T20:22:20Z</time>
      </trkpt>
      <trkpt lat="59.173459288565" lon="17.869209665864">
        <ele>100.4</ele>
        <time>2015-02-17T20:22:22Z</time>
      </trkpt>
      <trkpt lat="59.173498934952" lon="17.869172450228">
        <ele>100.2</ele>
        <time>2015-02-17T20:22:23Z</time>
      </trkpt>
      <trkpt lat="59.173593901879" lon="17.869103048096">
        <ele>100</ele>
        <time>2015-02-17T20:22:26Z</time>
      </trkpt>
      <trkpt lat="59.173619718131" lon="17.869070945419">
        <ele>100.6</ele>
        <time>2015-02-17T20:22:27Z</time>
      </trkpt>
      <trkpt lat="59.173744859898" lon="17.868969608248">
        <ele>101</ele>
        <time>2015-02-17T20:22:30Z</time>
      </trkpt>
      <trkpt lat="59.173829852364" lon="17.868858464254">
        <ele>101.2</ele>
        <time>2015-02-17T20:22:32Z</time>
      </trkpt>
      <trkpt lat="59.17386958257" lon="17.868837425685">
        <ele>101.2</ele>
        <time>2015-02-17T20:22:33Z</time>
      </trkpt>
      <trkpt lat="59.173926495671" lon="17.868795767642">
        <ele>101.2</ele>
        <time>2015-02-17T20:22:34Z</time>
      </trkpt>
      <trkpt lat="59.173983241134" lon="17.868776740729">
        <ele>101</ele>
        <time>2015-02-17T20:22:35Z</time>
      </trkpt>
      <trkpt lat="59.174158841939" lon="17.868706165131">
        <ele>100.4</ele>
        <time>2015-02-17T20:22:38Z</time>
      </trkpt>
      <trkpt lat="59.174374508226" lon="17.868594266766">
        <ele>100.4</ele>
        <time>2015-02-17T20:22:42Z</time>
      </trkpt>
      <trkpt lat="59.174428152386" lon="17.868561493537">
        <ele>100.6</ele>
        <time>2015-02-17T20:22:43Z</time>
      </trkpt>
      <trkpt lat="59.174498979441" lon="17.868539281502">
        <ele>100.6</ele>
        <time>2015-02-17T20:22:44Z</time>
      </trkpt>
      <trkpt lat="59.174624121208" lon="17.868523774987">
        <ele>100.8</ele>
        <time>2015-02-17T20:22:46Z</time>
      </trkpt>
      <trkpt lat="59.17469100877" lon="17.868534587638">
        <ele>100.8</ele>
        <time>2015-02-17T20:22:47Z</time>
      </trkpt>
      <trkpt lat="59.174895359492" lon="17.868562834641">
        <ele>100.6</ele>
        <time>2015-02-17T20:22:50Z</time>
      </trkpt>
      <trkpt lat="59.175104571716" lon="17.868534168543">
        <ele>99.4</ele>
        <time>2015-02-17T20:22:53Z</time>
      </trkpt>
      <trkpt lat="59.175292661552" lon="17.868537521303">
        <ele>98.2</ele>
        <time>2015-02-17T20:22:56Z</time>
      </trkpt>
      <trkpt lat="59.175341695667" lon="17.868565013935">
        <ele>98</ele>
        <time>2015-02-17T20:22:57Z</time>
      </trkpt>
      <trkpt lat="59.175442697562" lon="17.868629303108">
        <ele>98.4</ele>
        <time>2015-02-17T20:22:59Z</time>
      </trkpt>
      <trkpt lat="59.175597008341" lon="17.868795683823">
        <ele>99</ele>
        <time>2015-02-17T20:23:02Z</time>
      </trkpt>
      <trkpt lat="59.17563313433" lon="17.8688445503">
        <ele>99</ele>
        <time>2015-02-17T20:23:03Z</time>
      </trkpt>
      <trkpt lat="59.175779649942" lon="17.868993999577">
        <ele>98.6</ele>
        <time>2015-02-17T20:23:06Z</time>
      </trkpt>
      <trkpt lat="59.175827510591" lon="17.869035238525">
        <ele>98.6</ele>
        <time>2015-02-17T20:23:07Z</time>
      </trkpt>
      <trkpt lat="59.175871431747" lon="17.869050074488">
        <ele>98.6</ele>
        <time>2015-02-17T20:23:08Z</time>
      </trkpt>
      <trkpt lat="59.175963465009" lon="17.869142443026">
        <ele>98.8</ele>
        <time>2015-02-17T20:23:10Z</time>
      </trkpt>
      <trkpt lat="59.176049128027" lon="17.869186280363">
        <ele>99</ele>
        <time>2015-02-17T20:23:12Z</time>
      </trkpt>
      <trkpt lat="59.17614526842" lon="17.869227100216">
        <ele>98.8</ele>
        <time>2015-02-17T20:23:14Z</time>
      </trkpt>
      <trkpt lat="59.176186675006" lon="17.869225591474">
        <ele>99</ele>
        <time>2015-02-17T20:23:15Z</time>
      </trkpt>
      <trkpt lat="59.176271667472" lon="17.869211006968">
        <ele>98.4</ele>
        <time>2015-02-17T20:23:17Z</time>
      </trkpt>
      <trkpt lat="59.176316929732" lon="17.869205726371">
        <ele>98.6</ele>
        <time>2015-02-17T20:23:18Z</time>
      </trkpt>
      <trkpt lat="59.1764570751" lon="17.869187789105">
        <ele>98.6</ele>
        <time>2015-02-17T20:23:21Z</time>
      </trkpt>
      <trkpt lat="59.176554556597" lon="17.86918904639">
        <ele>98.6</ele>
        <time>2015-02-17T20:23:23Z</time>
      </trkpt>
      <trkpt lat="59.17672110495" lon="17.869016546888">
        <ele>99</ele>
        <time>2015-02-17T20:23:27Z</time>
      </trkpt>
      <trkpt lat="59.176858065196" lon="17.86886801962">
        <ele>98.6</ele>
        <time>2015-02-17T20:23:29Z</time>
      </trkpt>
      <trkpt lat="59.176915313573" lon="17.8687942589">
        <ele>98</ele>
        <time>2015-02-17T20:23:30Z</time>
      </trkpt>
      <trkpt lat="59.177033582182" lon="17.868648078564">
        <ele>96.8</ele>
        <time>2015-02-17T20:23:32Z</time>
      </trkpt>
      <trkpt lat="59.177141289597" lon="17.868525535186">
        <ele>95.6</ele>
        <time>2015-02-17T20:23:34Z</time>
      </trkpt>
      <trkpt lat="59.177237178533" lon="17.868401399247">
        <ele>95.2</ele>
        <time>2015-02-17T20:23:36Z</time>
      </trkpt>
      <trkpt lat="59.177309849606" lon="17.868296457859">
        <ele>95.8</ele>
        <time>2015-02-17T20:23:38Z</time>
      </trkpt>
      <trkpt lat="59.177385119068" lon="17.86820249676">
        <ele>96.4</ele>
        <time>2015-02-17T20:23:40Z</time>
      </trkpt>
      <trkpt lat="59.177413785166" lon="17.868162179821">
        <ele>96.6</ele>
        <time>2015-02-17T20:23:41Z</time>
      </trkpt>
      <trkpt lat="59.177582512813" lon="17.867981717514">
        <ele>96.4</ele>
        <time>2015-02-17T20:23:45Z</time>
      </trkpt>
      <trkpt lat="59.177621823924" lon="17.867928492449">
        <ele>96.4</ele>
        <time>2015-02-17T20:23:46Z</time>
      </trkpt>
      <trkpt lat="59.177796251263" lon="17.867781306285">
        <ele>96</ele>
        <time>2015-02-17T20:23:49Z</time>
      </trkpt>
      <trkpt lat="59.177856936219" lon="17.867775606593">
        <ele>95.6</ele>
        <time>2015-02-17T20:23:50Z</time>
      </trkpt>
      <trkpt lat="59.177957099924" lon="17.867831765323">
        <ele>95.4</ele>
        <time>2015-02-17T20:23:52Z</time>
      </trkpt>
      <trkpt lat="59.178078218379" lon="17.867948273733">
        <ele>95.4</ele>
        <time>2015-02-17T20:23:54Z</time>
      </trkpt>
      <trkpt lat="59.178140495896" lon="17.867980963143">
        <ele>95</ele>
        <time>2015-02-17T20:23:55Z</time>
      </trkpt>
      <trkpt lat="59.17819380478" lon="17.868016670037">
        <ele>94.8</ele>
        <time>2015-02-17T20:23:56Z</time>
      </trkpt>
      <trkpt lat="59.178255747021" lon="17.86806670998">
        <ele>94.4</ele>
        <time>2015-02-17T20:23:57Z</time>
      </trkpt>
      <trkpt lat="59.178429587627" lon="17.868262762621">
        <ele>93.4</ele>
        <time>2015-02-17T20:24:00Z</time>
      </trkpt>
      <trkpt lat="59.178484908167" lon="17.868312886383">
        <ele>93.2</ele>
        <time>2015-02-17T20:24:01Z</time>
      </trkpt>
      <trkpt lat="59.178588927546" lon="17.868422856911">
        <ele>92</ele>
        <time>2015-02-17T20:24:03Z</time>
      </trkpt>
      <trkpt lat="59.178706609422" lon="17.86855034561">
        <ele>91.2</ele>
        <time>2015-02-17T20:24:05Z</time>
      </trkpt>
      <trkpt lat="59.178879360381" lon="17.86873642379">
        <ele>91.2</ele>
        <time>2015-02-17T20:24:08Z</time>
      </trkpt>
      <trkpt lat="59.178936022025" lon="17.868786547552">
        <ele>91</ele>
        <time>2015-02-17T20:24:09Z</time>
      </trkpt>
      <trkpt lat="59.179143557869" lon="17.868983606021">
        <ele>90.6</ele>
        <time>2015-02-17T20:24:13Z</time>
      </trkpt>
      <trkpt lat="59.179196363839" lon="17.869027024263">
        <ele>90.2</ele>
        <time>2015-02-17T20:24:14Z</time>
      </trkpt>
      <trkpt lat="59.179392081204" lon="17.869198350299">
        <ele>90.2</ele>
        <time>2015-02-17T20:24:18Z</time>
      </trkpt>
      <trkpt lat="59.179453017617" lon="17.869233638098">
        <ele>90.4</ele>
        <time>2015-02-17T20:24:19Z</time>
      </trkpt>
      <trkpt lat="59.179500375352" lon="17.869263896757">
        <ele>90.4</ele>
        <time>2015-02-17T20:24:20Z</time>
      </trkpt>
      <trkpt lat="59.179697098545" lon="17.869395324949">
        <ele>90.4</ele>
        <time>2015-02-17T20:24:24Z</time>
      </trkpt>
      <trkpt lat="59.179800195915" lon="17.869498087043">
        <ele>89.8</ele>
        <time>2015-02-17T20:24:26Z</time>
      </trkpt>
      <trkpt lat="59.179969258838" lon="17.869657762238">
        <ele>89.4</ele>
        <time>2015-02-17T20:24:29Z</time>
      </trkpt>
      <trkpt lat="59.180032123088" lon="17.869690619286">
        <ele>89.2</ele>
        <time>2015-02-17T20:24:30Z</time>
      </trkpt>
      <trkpt lat="59.180096412261" lon="17.86970537143">
        <ele>89</ele>
        <time>2015-02-17T20:24:31Z</time>
      </trkpt>
      <trkpt lat="59.180156594303" lon="17.869711490217">
        <ele>88.6</ele>
        <time>2015-02-17T20:24:32Z</time>
      </trkpt>
      <trkpt lat="59.180270923419" lon="17.869653822745">
        <ele>88</ele>
        <time>2015-02-17T20:24:34Z</time>
      </trkpt>
      <trkpt lat="59.180383911431" lon="17.869556592705">
        <ele>87.4</ele>
        <time>2015-02-17T20:24:36Z</time>
      </trkpt>
      <trkpt lat="59.180600667365" lon="17.869367245584">
        <ele>87.2</ele>
        <time>2015-02-17T20:24:40Z</time>
      </trkpt>
      <trkpt lat="59.180811723607" lon="17.869200361955">
        <ele>87.4</ele>
        <time>2015-02-17T20:24:44Z</time>
      </trkpt>
      <trkpt lat="59.180861679731" lon="17.869167504907">
        <ele>87.2</ele>
        <time>2015-02-17T20:24:45Z</time>
      </trkpt>
      <trkpt lat="59.181044237513" lon="17.869044290977">
        <ele>87.8</ele>
        <time>2015-02-17T20:24:49Z</time>
      </trkpt>
      <trkpt lat="59.181082542796" lon="17.869010763377">
        <ele>87.8</ele>
        <time>2015-02-17T20:24:50Z</time>
      </trkpt>
      <trkpt lat="59.181209947676" lon="17.868966590764">
        <ele>87.8</ele>
        <time>2015-02-17T20:24:53Z</time>
      </trkpt>
      <trkpt lat="59.181257305411" lon="17.868994921586">
        <ele>87.4</ele>
        <time>2015-02-17T20:24:54Z</time>
      </trkpt>
      <trkpt lat="59.181352272338" lon="17.869193740254">
        <ele>87.4</ele>
        <time>2015-02-17T20:24:57Z</time>
      </trkpt>
      <trkpt lat="59.181400300625" lon="17.869361294435">
        <ele>87.8</ele>
        <time>2015-02-17T20:24:59Z</time>
      </trkpt>
      <trkpt lat="59.181432822397" lon="17.869516443404">
        <ele>87.8</ele>
        <time>2015-02-17T20:25:01Z</time>
      </trkpt>
      <trkpt lat="59.181454950613" lon="17.869584085337">
        <ele>88</ele>
        <time>2015-02-17T20:25:02Z</time>
      </trkpt>
      <trkpt lat="59.181516138483" lon="17.869779299788">
        <ele>88.2</ele>
        <time>2015-02-17T20:25:05Z</time>
      </trkpt>
      <trkpt lat="59.181585875891" lon="17.870040815068">
        <ele>87.8</ele>
        <time>2015-02-17T20:25:09Z</time>
      </trkpt>
      <trkpt lat="59.181605740994" lon="17.870103763137">
        <ele>87.8</ele>
        <time>2015-02-17T20:25:10Z</time>
      </trkpt>
      <trkpt lat="59.181680256085" lon="17.870407942288">
        <ele>88.4</ele>
        <time>2015-02-17T20:25:15Z</time>
      </trkpt>
      <trkpt lat="59.181695092048" lon="17.870461921724">
        <ele>88.6</ele>
        <time>2015-02-17T20:25:16Z</time>
      </trkpt>
      <trkpt lat="59.181784526921" lon="17.870741290451">
        <ele>89</ele>
        <time>2015-02-17T20:25:20Z</time>
      </trkpt>
      <trkpt lat="59.181871279586" lon="17.871065669981">
        <ele>88.8</ele>
        <time>2015-02-17T20:25:25Z</time>
      </trkpt>
      <trkpt lat="59.181960295364" lon="17.871402454723">
        <ele>89.4</ele>
        <time>2015-02-17T20:25:30Z</time>
      </trkpt>
      <trkpt lat="59.181980076648" lon="17.871473030321">
        <ele>89.6</ele>
        <time>2015-02-17T20:25:31Z</time>
      </trkpt>
      <trkpt lat="59.182039169043" lon="17.871663802365">
        <ele>90</ele>
        <time>2015-02-17T20:25:34Z</time>
      </trkpt>
      <trkpt lat="59.182104966958" lon="17.871894220796">
        <ele>90.6</ele>
        <time>2015-02-17T20:25:38Z</time>
      </trkpt>
      <trkpt lat="59.182124412966" lon="17.871950379526">
        <ele>90.6</ele>
        <time>2015-02-17T20:25:39Z</time>
      </trkpt>
      <trkpt lat="59.182213093468" lon="17.872180378862">
        <ele>90.4</ele>
        <time>2015-02-17T20:25:43Z</time>
      </trkpt>
      <trkpt lat="59.182259277737" lon="17.872517750337">
        <ele>90.2</ele>
        <time>2015-02-17T20:25:48Z</time>
      </trkpt>
      <trkpt lat="59.182266318533" lon="17.872857384925">
        <ele>90</ele>
        <time>2015-02-17T20:25:53Z</time>
      </trkpt>
      <trkpt lat="59.182271263854" lon="17.873199450264">
        <ele>91</ele>
        <time>2015-02-17T20:25:58Z</time>
      </trkpt>
      <trkpt lat="59.182323483091" lon="17.873523243061">
        <ele>91.6</ele>
        <time>2015-02-17T20:26:03Z</time>
      </trkpt>
      <trkpt lat="59.182328931326" lon="17.87359205846">
        <ele>91.8</ele>
        <time>2015-02-17T20:26:04Z</time>
      </trkpt>
      <trkpt lat="59.182350472809" lon="17.873779226287">
        <ele>93</ele>
        <time>2015-02-17T20:26:08Z</time>
      </trkpt>
      <trkpt lat="59.182357178329" lon="17.873917359999">
        <ele>94</ele>
        <time>2015-02-17T20:26:11Z</time>
      </trkpt>
      <trkpt lat="59.18237302012" lon="17.874074269167">
        <ele>94.8</ele>
        <time>2015-02-17T20:26:14Z</time>
      </trkpt>
      <trkpt lat="59.182368577713" lon="17.874180886935">
        <ele>95.4</ele>
        <time>2015-02-17T20:26:16Z</time>
      </trkpt>
      <trkpt lat="59.182356172501" lon="17.874327570185">
        <ele>96</ele>
        <time>2015-02-17T20:26:19Z</time>
      </trkpt>
      <trkpt lat="59.182335720665" lon="17.874431589564">
        <ele>96.4</ele>
        <time>2015-02-17T20:26:21Z</time>
      </trkpt>
      <trkpt lat="59.182322980177" lon="17.874595120433">
        <ele>97</ele>
        <time>2015-02-17T20:26:24Z</time>
      </trkpt>
      <trkpt lat="59.182279813392" lon="17.874797627137">
        <ele>97.4</ele>
        <time>2015-02-17T20:26:28Z</time>
      </trkpt>
      <trkpt lat="59.182265228886" lon="17.874913632633">
        <ele>97.6</ele>
        <time>2015-02-17T20:26:30Z</time>
      </trkpt>
      <trkpt lat="59.182241089014" lon="17.875076744407">
        <ele>98.2</ele>
        <time>2015-02-17T20:26:33Z</time>
      </trkpt>
      <trkpt lat="59.182205465939" lon="17.875245052959">
        <ele>98.8</ele>
        <time>2015-02-17T20:26:36Z</time>
      </trkpt>
      <trkpt lat="59.182192054899" lon="17.875291823961">
        <ele>99</ele>
        <time>2015-02-17T20:26:37Z</time>
      </trkpt>
      <trkpt lat="59.182191635804" lon="17.875351000175">
        <ele>99.2</ele>
        <time>2015-02-17T20:26:38Z</time>
      </trkpt>
      <trkpt lat="59.182175877832" lon="17.875537078355">
        <ele>99.4</ele>
        <time>2015-02-17T20:26:41Z</time>
      </trkpt>
      <trkpt lat="59.182182834809" lon="17.875738495412">
        <ele>99.4</ele>
        <time>2015-02-17T20:26:44Z</time>
      </trkpt>
      <trkpt lat="59.182232036562" lon="17.875960364305">
        <ele>99.4</ele>
        <time>2015-02-17T20:26:48Z</time>
      </trkpt>
      <trkpt lat="59.182259948289" lon="17.87619128565">
        <ele>99.4</ele>
        <time>2015-02-17T20:26:52Z</time>
      </trkpt>
      <trkpt lat="59.182232120381" lon="17.876455566957">
        <ele>100</ele>
        <time>2015-02-17T20:26:55Z</time>
      </trkpt>
      <trkpt lat="59.182273694605" lon="17.876735773874">
        <ele>100.2</ele>
        <time>2015-02-17T20:26:59Z</time>
      </trkpt>
      <trkpt lat="59.18232105234" lon="17.877101727628">
        <ele>100.4</ele>
        <time>2015-02-17T20:27:04Z</time>
      </trkpt>
      <trkpt lat="59.182362542745" lon="17.877464831536">
        <ele>100.8</ele>
        <time>2015-02-17T20:27:09Z</time>
      </trkpt>
      <trkpt lat="59.182421467502" lon="17.877832210213">
        <ele>100.8</ele>
        <time>2015-02-17T20:27:14Z</time>
      </trkpt>
      <trkpt lat="59.182448624858" lon="17.877988951743">
        <ele>101</ele>
        <time>2015-02-17T20:27:16Z</time>
      </trkpt>
      <trkpt lat="59.182450804152" lon="17.878088277258">
        <ele>101.4</ele>
        <time>2015-02-17T20:27:17Z</time>
      </trkpt>
      <trkpt lat="59.182450385057" lon="17.8782741878">
        <ele>101.2</ele>
        <time>2015-02-17T20:27:19Z</time>
      </trkpt>
      <trkpt lat="59.182465891572" lon="17.87836471232">
        <ele>101.4</ele>
        <time>2015-02-17T20:27:20Z</time>
      </trkpt>
      <trkpt lat="59.182525486881" lon="17.878619270623">
        <ele>101.4</ele>
        <time>2015-02-17T20:27:23Z</time>
      </trkpt>
      <trkpt lat="59.18261274246" lon="17.878944572162">
        <ele>100.4</ele>
        <time>2015-02-17T20:27:27Z</time>
      </trkpt>
      <trkpt lat="59.182633864848" lon="17.879029899904">
        <ele>100.4</ele>
        <time>2015-02-17T20:27:28Z</time>
      </trkpt>
      <trkpt lat="59.182658088539" lon="17.879107181022">
        <ele>100.2</ele>
        <time>2015-02-17T20:27:29Z</time>
      </trkpt>
      <trkpt lat="59.18273092725" lon="17.879319829825">
        <ele>100.4</ele>
        <time>2015-02-17T20:27:32Z</time>
      </trkpt>
      <trkpt lat="59.18275774933" lon="17.879375150365">
        <ele>100.6</ele>
        <time>2015-02-17T20:27:33Z</time>
      </trkpt>
      <trkpt lat="59.182887836418" lon="17.87962451189">
        <ele>100.4</ele>
        <time>2015-02-17T20:27:37Z</time>
      </trkpt>
      <trkpt lat="59.182996968756" lon="17.879741355576">
        <ele>100.8</ele>
        <time>2015-02-17T20:27:40Z</time>
      </trkpt>
      <trkpt lat="59.183061425567" lon="17.879795586469">
        <ele>101</ele>
        <time>2015-02-17T20:27:42Z</time>
      </trkpt>
      <trkpt lat="59.183222860961" lon="17.879931959982">
        <ele>101.8</ele>
        <time>2015-02-17T20:27:48Z</time>
      </trkpt>
      <trkpt lat="59.183282707727" lon="17.879986526151">
        <ele>102</ele>
        <time>2015-02-17T20:27:50Z</time>
      </trkpt>
      <trkpt lat="59.183369292754" lon="17.880073194997">
        <ele>102.6</ele>
        <time>2015-02-17T20:27:53Z</time>
      </trkpt>
      <trkpt lat="59.183481610214" lon="17.880217615134">
        <ele>102.6</ele>
        <time>2015-02-17T20:27:57Z</time>
      </trkpt>
      <trkpt lat="59.183565093938" lon="17.880395479052">
        <ele>103.2</ele>
        <time>2015-02-17T20:28:00Z</time>
      </trkpt>
      <trkpt lat="59.183583115023" lon="17.880462953347">
        <ele>103.6</ele>
        <time>2015-02-17T20:28:01Z</time>
      </trkpt>
      <trkpt lat="59.183662910711" lon="17.880703513877">
        <ele>103.6</ele>
        <time>2015-02-17T20:28:05Z</time>
      </trkpt>
      <trkpt lat="59.183680261244" lon="17.880745507196">
        <ele>103.4</ele>
        <time>2015-02-17T20:28:06Z</time>
      </trkpt>
      <trkpt lat="59.183717728337" lon="17.880906355857">
        <ele>103.4</ele>
        <time>2015-02-17T20:28:09Z</time>
      </trkpt>
      <trkpt lat="59.18375687181" lon="17.881023115724">
        <ele>103.8</ele>
        <time>2015-02-17T20:28:11Z</time>
      </trkpt>
      <trkpt lat="59.183813701092" lon="17.881168374051">
        <ele>103.8</ele>
        <time>2015-02-17T20:28:14Z</time>
      </trkpt>
      <trkpt lat="59.183886958898" lon="17.881348920177">
        <ele>104.2</ele>
        <time>2015-02-17T20:28:18Z</time>
      </trkpt>
      <trkpt lat="59.183895927531" lon="17.881401139414">
        <ele>104.6</ele>
        <time>2015-02-17T20:28:19Z</time>
      </trkpt>
      <trkpt lat="59.183930460959" lon="17.881535417452">
        <ele>105.4</ele>
        <time>2015-02-17T20:28:23Z</time>
      </trkpt>
      <trkpt lat="59.183966251672" lon="17.881626612524">
        <ele>106.6</ele>
        <time>2015-02-17T20:28:26Z</time>
      </trkpt>
      <trkpt lat="59.184003886403" lon="17.881678412666">
        <ele>107.4</ele>
        <time>2015-02-17T20:28:28Z</time>
      </trkpt>
      <trkpt lat="59.184030624664" lon="17.881700792339">
        <ele>107.8</ele>
        <time>2015-02-17T20:28:29Z</time>
      </trkpt>
      <trkpt lat="59.184071528336" lon="17.881739181441">
        <ele>107.8</ele>
        <time>2015-02-17T20:28:31Z</time>
      </trkpt>
      <trkpt lat="59.184129447265" lon="17.881763740408">
        <ele>108</ele>
        <time>2015-02-17T20:28:33Z</time>
      </trkpt>
      <trkpt lat="59.184301192396" lon="17.881777989638">
        <ele>108</ele>
        <time>2015-02-17T20:28:38Z</time>
      </trkpt>
      <trkpt lat="59.184449468207" lon="17.881718394329">
        <ele>108</ele>
        <time>2015-02-17T20:28:43Z</time>
      </trkpt>
      <trkpt lat="59.184601348235" lon="17.881710180067">
        <ele>108.2</ele>
        <time>2015-02-17T20:28:47Z</time>
      </trkpt>
      <trkpt lat="59.184775691755" lon="17.881775055973">
        <ele>108.2</ele>
        <time>2015-02-17T20:28:52Z</time>
      </trkpt>
      <trkpt lat="59.184938300615" lon="17.881943196887">
        <ele>108.6</ele>
        <time>2015-02-17T20:28:57Z</time>
      </trkpt>
      <trkpt lat="59.185084480951" lon="17.882164562866">
        <ele>108</ele>
        <time>2015-02-17T20:29:01Z</time>
      </trkpt>
      <trkpt lat="59.185118762922" lon="17.882216027732">
        <ele>108.2</ele>
        <time>2015-02-17T20:29:02Z</time>
      </trkpt>
      <trkpt lat="59.185186153398" lon="17.882333793427">
        <ele>108.2</ele>
        <time>2015-02-17T20:29:04Z</time>
      </trkpt>
      <trkpt lat="59.185275923547" lon="17.882522050901">
        <ele>108.2</ele>
        <time>2015-02-17T20:29:07Z</time>
      </trkpt>
      <trkpt lat="59.185305344016" lon="17.88257494069">
        <ele>108.4</ele>
        <time>2015-02-17T20:29:08Z</time>
      </trkpt>
      <trkpt lat="59.185335770313" lon="17.882648366134">
        <ele>108.4</ele>
        <time>2015-02-17T20:29:09Z</time>
      </trkpt>
      <trkpt lat="59.185395784717" lon="17.882885406266">
        <ele>108.4</ele>
        <time>2015-02-17T20:29:12Z</time>
      </trkpt>
      <trkpt lat="59.185414057259" lon="17.882944331023">
        <ele>108.4</ele>
        <time>2015-02-17T20:29:13Z</time>
      </trkpt>
      <trkpt lat="59.185474239301" lon="17.883122781674">
        <ele>109</ele>
        <time>2015-02-17T20:29:16Z</time>
      </trkpt>
      <trkpt lat="59.185500558467" lon="17.883170223228">
        <ele>109.2</ele>
        <time>2015-02-17T20:29:17Z</time>
      </trkpt>
      <trkpt lat="59.185524363063" lon="17.883200062792">
        <ele>109.4</ele>
        <time>2015-02-17T20:29:18Z</time>
      </trkpt>
      <trkpt lat="59.185632573392" lon="17.883253706952">
        <ele>109.8</ele>
        <time>2015-02-17T20:29:21Z</time>
      </trkpt>
      <trkpt lat="59.185681523688" lon="17.883294526805">
        <ele>109.8</ele>
        <time>2015-02-17T20:29:23Z</time>
      </trkpt>
      <trkpt lat="59.185784285782" lon="17.883355882313">
        <ele>110.2</ele>
        <time>2015-02-17T20:29:26Z</time>
      </trkpt>
      <trkpt lat="59.18589257993" lon="17.8834122925">
        <ele>110.4</ele>
        <time>2015-02-17T20:29:29Z</time>
      </trkpt>
      <trkpt lat="59.185962401157" lon="17.883472725999">
        <ele>110.4</ele>
        <time>2015-02-17T20:29:31Z</time>
      </trkpt>
      <trkpt lat="59.18606943802" lon="17.883516395698">
        <ele>110.8</ele>
        <time>2015-02-17T20:29:34Z</time>
      </trkpt>
      <trkpt lat="59.186143114921" lon="17.883527543625">
        <ele>111.4</ele>
        <time>2015-02-17T20:29:36Z</time>
      </trkpt>
      <trkpt lat="59.186244284454" lon="17.883517317707">
        <ele>111.8</ele>
        <time>2015-02-17T20:29:39Z</time>
      </trkpt>
      <trkpt lat="59.186375964103" lon="17.883463086814">
        <ele>112.2</ele>
        <time>2015-02-17T20:29:43Z</time>
      </trkpt>
      <trkpt lat="59.186563802482" lon="17.883390918655">
        <ele>112</ele>
        <time>2015-02-17T20:29:47Z</time>
      </trkpt>
      <trkpt lat="59.186734793242" lon="17.883439785132">
        <ele>112.2</ele>
        <time>2015-02-17T20:29:51Z</time>
      </trkpt>
      <trkpt lat="59.18677603219" lon="17.883466607212">
        <ele>112</ele>
        <time>2015-02-17T20:29:52Z</time>
      </trkpt>
      <trkpt lat="59.186810900894" lon="17.883500721545">
        <ele>112</ele>
        <time>2015-02-17T20:29:53Z</time>
      </trkpt>
      <trkpt lat="59.186940065973" lon="17.883647237157">
        <ele>112.4</ele>
        <time>2015-02-17T20:29:57Z</time>
      </trkpt>
      <trkpt lat="59.187124300135" lon="17.883809007827">
        <ele>113.4</ele>
        <time>2015-02-17T20:30:02Z</time>
      </trkpt>
      <trkpt lat="59.187233600111" lon="17.883857203752">
        <ele>113.4</ele>
        <time>2015-02-17T20:30:05Z</time>
      </trkpt>
      <trkpt lat="59.187268552634" lon="17.883871201525">
        <ele>113.6</ele>
        <time>2015-02-17T20:30:06Z</time>
      </trkpt>
      <trkpt lat="59.187452535339" lon="17.884065996881">
        <ele>113.6</ele>
        <time>2015-02-17T20:30:11Z</time>
      </trkpt>
      <trkpt lat="59.187505425128" lon="17.884264815549">
        <ele>113.8</ele>
        <time>2015-02-17T20:30:14Z</time>
      </trkpt>
      <trkpt lat="59.18755890165" lon="17.884625404887">
        <ele>114</ele>
        <time>2015-02-17T20:30:19Z</time>
      </trkpt>
      <trkpt lat="59.187577006554" lon="17.884688604413">
        <ele>113.8</ele>
        <time>2015-02-17T20:30:20Z</time>
      </trkpt>
      <trkpt lat="59.187650851093" lon="17.884914161342">
        <ele>113.4</ele>
        <time>2015-02-17T20:30:23Z</time>
      </trkpt>
      <trkpt lat="59.18766535178" lon="17.88500904445">
        <ele>113.4</ele>
        <time>2015-02-17T20:30:24Z</time>
      </trkpt>
      <trkpt lat="59.187685133064" lon="17.885281288562">
        <ele>113.4</ele>
        <time>2015-02-17T20:30:27Z</time>
      </trkpt>
      <trkpt lat="59.187689994566" lon="17.885377261317">
        <ele>113.4</ele>
        <time>2015-02-17T20:30:28Z</time>
      </trkpt>
      <trkpt lat="59.187696616267" lon="17.885468707846">
        <ele>113.4</ele>
        <time>2015-02-17T20:30:29Z</time>
      </trkpt>
      <trkpt lat="59.187749254599" lon="17.885687559255">
        <ele>113.6</ele>
        <time>2015-02-17T20:30:32Z</time>
      </trkpt>
      <trkpt lat="59.187813879048" lon="17.885854023789">
        <ele>113.4</ele>
        <time>2015-02-17T20:30:35Z</time>
      </trkpt>
      <trkpt lat="59.187858722213" lon="17.885957959349">
        <ele>113.4</ele>
        <time>2015-02-17T20:30:37Z</time>
      </trkpt>
      <trkpt lat="59.187877330031" lon="17.886013531346">
        <ele>113.6</ele>
        <time>2015-02-17T20:30:38Z</time>
      </trkpt>
      <trkpt lat="59.187925106861" lon="17.886299186498">
        <ele>113.8</ele>
        <time>2015-02-17T20:30:42Z</time>
      </trkpt>
      <trkpt lat="59.187902643369" lon="17.886680143853">
        <ele>113.8</ele>
        <time>2015-02-17T20:30:47Z</time>
      </trkpt>
      <trkpt lat="59.187879425506" lon="17.886907880076">
        <ele>113.4</ele>
        <time>2015-02-17T20:30:50Z</time>
      </trkpt>
      <trkpt lat="59.187864757181" lon="17.88697208543">
        <ele>113.4</ele>
        <time>2015-02-17T20:30:51Z</time>
      </trkpt>
      <trkpt lat="59.187731149695" lon="17.887266876853">
        <ele>113.8</ele>
        <time>2015-02-17T20:30:56Z</time>
      </trkpt>
      <trkpt lat="59.187634087293" lon="17.88749092504">
        <ele>114.2</ele>
        <time>2015-02-17T20:31:00Z</time>
      </trkpt>
      <trkpt lat="59.187592261612" lon="17.88778261516">
        <ele>114.8</ele>
        <time>2015-02-17T20:31:05Z</time>
      </trkpt>
      <trkpt lat="59.187538952728" lon="17.888067096846">
        <ele>115.4</ele>
        <time>2015-02-17T20:31:09Z</time>
      </trkpt>
      <trkpt lat="59.187477932496" lon="17.888371527454">
        <ele>115</ele>
        <time>2015-02-17T20:31:13Z</time>
      </trkpt>
      <trkpt lat="59.187478100134" lon="17.888679394641">
        <ele>115.6</ele>
        <time>2015-02-17T20:31:17Z</time>
      </trkpt>
      <trkpt lat="59.187501820911" lon="17.888814594688">
        <ele>115.4</ele>
        <time>2015-02-17T20:31:19Z</time>
      </trkpt>
      <trkpt lat="59.187544317144" lon="17.888924146121">
        <ele>115.4</ele>
        <time>2015-02-17T20:31:21Z</time>
      </trkpt>
      <trkpt lat="59.187589411766" lon="17.889067057516">
        <ele>115</ele>
        <time>2015-02-17T20:31:24Z</time>
      </trkpt>
      <trkpt lat="59.187604666824" lon="17.889118773839">
        <ele>114.8</ele>
        <time>2015-02-17T20:31:25Z</time>
      </trkpt>
      <trkpt lat="59.187684294874" lon="17.889303259458">
        <ele>115.2</ele>
        <time>2015-02-17T20:31:29Z</time>
      </trkpt>
      <trkpt lat="59.187731820247" lon="17.889459749531">
        <ele>116</ele>
        <time>2015-02-17T20:31:32Z</time>
      </trkpt>
      <trkpt lat="59.18774917078" lon="17.889574413923">
        <ele>116.4</ele>
        <time>2015-02-17T20:31:34Z</time>
      </trkpt>
      <trkpt lat="59.187803569311" lon="17.889913880873">
        <ele>116.6</ele>
        <time>2015-02-17T20:31:39Z</time>
      </trkpt>
      <trkpt lat="59.187834414703" lon="17.890147903521">
        <ele>117</ele>
        <time>2015-02-17T20:31:43Z</time>
      </trkpt>
      <trkpt lat="59.187854279806" lon="17.890418219796">
        <ele>118</ele>
        <time>2015-02-17T20:31:49Z</time>
      </trkpt>
      <trkpt lat="59.187898703876" lon="17.890603292148">
        <ele>119</ele>
        <time>2015-02-17T20:31:53Z</time>
      </trkpt>
      <trkpt lat="59.187904990301" lon="17.890659953792">
        <ele>119.2</ele>
        <time>2015-02-17T20:31:54Z</time>
      </trkpt>
      <trkpt lat="59.187928124345" lon="17.89084033228">
        <ele>119.8</ele>
        <time>2015-02-17T20:31:57Z</time>
      </trkpt>
      <trkpt lat="59.187939523729" lon="17.89094342965">
        <ele>120.4</ele>
        <time>2015-02-17T20:31:59Z</time>
      </trkpt>
      <trkpt lat="59.187918149884" lon="17.890996906172">
        <ele>120.6</ele>
        <time>2015-02-17T20:32:00Z</time>
      </trkpt>
      <trkpt lat="59.187828044459" lon="17.891231431734">
        <ele>121.4</ele>
        <time>2015-02-17T20:32:05Z</time>
      </trkpt>
      <trkpt lat="59.187770628444" lon="17.891437291198">
        <ele>121.8</ele>
        <time>2015-02-17T20:32:09Z</time>
      </trkpt>
      <trkpt lat="59.187754786653" lon="17.891713139527">
        <ele>122</ele>
        <time>2015-02-17T20:32:14Z</time>
      </trkpt>
      <trkpt lat="59.187751266255" lon="17.891831659593">
        <ele>122.4</ele>
        <time>2015-02-17T20:32:16Z</time>
      </trkpt>
      <trkpt lat="59.187759145241" lon="17.892033244288">
        <ele>123</ele>
        <time>2015-02-17T20:32:19Z</time>
      </trkpt>
      <trkpt lat="59.18779275666" lon="17.892337842534">
        <ele>123.6</ele>
        <time>2015-02-17T20:32:23Z</time>
      </trkpt>
      <trkpt lat="59.187805748605" lon="17.89243289328">
        <ele>123.6</ele>
        <time>2015-02-17T20:32:24Z</time>
      </trkpt>
      <trkpt lat="59.18786651738" lon="17.892809575866">
        <ele>122.6</ele>
        <time>2015-02-17T20:32:28Z</time>
      </trkpt>
      <trkpt lat="59.187877832945" lon="17.892907644096">
        <ele>122.2</ele>
        <time>2015-02-17T20:32:29Z</time>
      </trkpt>
      <trkpt lat="59.18789585403" lon="17.893012417846">
        <ele>121.8</ele>
        <time>2015-02-17T20:32:30Z</time>
      </trkpt>
      <trkpt lat="59.187947486534" lon="17.893246608132">
        <ele>121.2</ele>
        <time>2015-02-17T20:32:33Z</time>
      </trkpt>
      <trkpt lat="59.188054691035" lon="17.893379293609">
        <ele>121</ele>
        <time>2015-02-17T20:32:36Z</time>
      </trkpt>
      <trkpt lat="59.188086206979" lon="17.893419526729">
        <ele>121</ele>
        <time>2015-02-17T20:32:37Z</time>
      </trkpt>
      <trkpt lat="59.1881498256" lon="17.893480966056">
        <ele>121</ele>
        <time>2015-02-17T20:32:39Z</time>
      </trkpt>
      <trkpt lat="59.188207157796" lon="17.893539555537">
        <ele>121</ele>
        <time>2015-02-17T20:32:41Z</time>
      </trkpt>
      <trkpt lat="59.188324755853" lon="17.89362815222">
        <ele>121.4</ele>
        <time>2015-02-17T20:32:45Z</time>
      </trkpt>
      <trkpt lat="59.188525921453" lon="17.893821857929">
        <ele>121</ele>
        <time>2015-02-17T20:32:50Z</time>
      </trkpt>
      <trkpt lat="59.188694732919" lon="17.89394750261">
        <ele>120.6</ele>
        <time>2015-02-17T20:32:54Z</time>
      </trkpt>
      <trkpt lat="59.188742006835" lon="17.893941802918">
        <ele>120.8</ele>
        <time>2015-02-17T20:32:55Z</time>
      </trkpt>
      <trkpt lat="59.188824400912" lon="17.893918333598">
        <ele>120.6</ele>
        <time>2015-02-17T20:32:57Z</time>
      </trkpt>
      <trkpt lat="59.189033026403" lon="17.89396426641">
        <ele>120.4</ele>
        <time>2015-02-17T20:33:01Z</time>
      </trkpt>
      <trkpt lat="59.18909027478" lon="17.893995447078">
        <ele>120.6</ele>
        <time>2015-02-17T20:33:02Z</time>
      </trkpt>
      <trkpt lat="59.189244417921" lon="17.894082702657">
        <ele>120.4</ele>
        <time>2015-02-17T20:33:05Z</time>
      </trkpt>
      <trkpt lat="59.189295296054" lon="17.894129641297">
        <ele>120.4</ele>
        <time>2015-02-17T20:33:06Z</time>
      </trkpt>
      <trkpt lat="59.189347180015" lon="17.894190410072">
        <ele>119.8</ele>
        <time>2015-02-17T20:33:07Z</time>
      </trkpt>
      <trkpt lat="59.189507358124" lon="17.894371207655">
        <ele>119.2</ele>
        <time>2015-02-17T20:33:10Z</time>
      </trkpt>
      <trkpt lat="59.189556811334" lon="17.894442956719">
        <ele>118.8</ele>
        <time>2015-02-17T20:33:11Z</time>
      </trkpt>
      <trkpt lat="59.189695364141" lon="17.894676224996">
        <ele>118.4</ele>
        <time>2015-02-17T20:33:14Z</time>
      </trkpt>
      <trkpt lat="59.189809274162" lon="17.894944361977">
        <ele>118.8</ele>
        <time>2015-02-17T20:33:17Z</time>
      </trkpt>
      <trkpt lat="59.189919747604" lon="17.895233788984">
        <ele>118</ele>
        <time>2015-02-17T20:33:20Z</time>
      </trkpt>
      <trkpt lat="59.189991664306" lon="17.895427578512">
        <ele>118</ele>
        <time>2015-02-17T20:33:22Z</time>
      </trkpt>
      <trkpt lat="59.190073555469" lon="17.89558197311">
        <ele>118</ele>
        <time>2015-02-17T20:33:24Z</time>
      </trkpt>
      <trkpt lat="59.190146310361" lon="17.895739971925">
        <ele>118.2</ele>
        <time>2015-02-17T20:33:26Z</time>
      </trkpt>
      <trkpt lat="59.190301207873" lon="17.89602369924">
        <ele>117.8</ele>
        <time>2015-02-17T20:33:30Z</time>
      </trkpt>
      <trkpt lat="59.190385948882" lon="17.89616367697">
        <ele>117.8</ele>
        <time>2015-02-17T20:33:32Z</time>
      </trkpt>
      <trkpt lat="59.190458368498" lon="17.896287980547">
        <ele>117.4</ele>
        <time>2015-02-17T20:33:34Z</time>
      </trkpt>
      <trkpt lat="59.190532548313" lon="17.896435418168">
        <ele>117.6</ele>
        <time>2015-02-17T20:33:36Z</time>
      </trkpt>
      <trkpt lat="59.190599687332" lon="17.896599368132">
        <ele>117.6</ele>
        <time>2015-02-17T20:33:38Z</time>
      </trkpt>
      <trkpt lat="59.19065349913" lon="17.896737334206">
        <ele>117.8</ele>
        <time>2015-02-17T20:33:40Z</time>
      </trkpt>
      <trkpt lat="59.190736731397" lon="17.897092978223">
        <ele>116.8</ele>
        <time>2015-02-17T20:33:44Z</time>
      </trkpt>
      <trkpt lat="59.190757937604" lon="17.897200685638">
        <ele>116.6</ele>
        <time>2015-02-17T20:33:45Z</time>
      </trkpt>
      <trkpt lat="59.190775539594" lon="17.89754501409">
        <ele>116.2</ele>
        <time>2015-02-17T20:33:48Z</time>
      </trkpt>
      <trkpt lat="59.190773108843" lon="17.897656744817">
        <ele>116.2</ele>
        <time>2015-02-17T20:33:49Z</time>
      </trkpt>
      <trkpt lat="59.19076414021" lon="17.89776545806">
        <ele>116</ele>
        <time>2015-02-17T20:33:50Z</time>
      </trkpt>
      <trkpt lat="59.190751651179" lon="17.897994451568">
        <ele>115.6</ele>
        <time>2015-02-17T20:33:52Z</time>
      </trkpt>
      <trkpt lat="59.190741592899" lon="17.898097632757">
        <ele>115.6</ele>
        <time>2015-02-17T20:33:53Z</time>
      </trkpt>
      <trkpt lat="59.190768666436" lon="17.898463083597">
        <ele>116</ele>
        <time>2015-02-17T20:33:57Z</time>
      </trkpt>
      <trkpt lat="59.190892550918" lon="17.898635331642">
        <ele>115.6</ele>
        <time>2015-02-17T20:34:00Z</time>
      </trkpt>
      <trkpt lat="59.190920127369" lon="17.898681935006">
        <ele>115.6</ele>
        <time>2015-02-17T20:34:01Z</time>
      </trkpt>
      <trkpt lat="59.19102649368" lon="17.898813363198">
        <ele>115.4</ele>
        <time>2015-02-17T20:34:05Z</time>
      </trkpt>
      <trkpt lat="59.191100170581" lon="17.898869438109">
        <ele>115.4</ele>
        <time>2015-02-17T20:34:07Z</time>
      </trkpt>
      <trkpt lat="59.191233275153" lon="17.898976391153">
        <ele>115.8</ele>
        <time>2015-02-17T20:34:11Z</time>
      </trkpt>
      <trkpt lat="59.191298737792" lon="17.899041686154">
        <ele>115.8</ele>
        <time>2015-02-17T20:34:13Z</time>
      </trkpt>
      <trkpt lat="59.191475679701" lon="17.899145705533">
        <ele>116.2</ele>
        <time>2015-02-17T20:34:17Z</time>
      </trkpt>
      <trkpt lat="59.191683718459" lon="17.899254754052">
        <ele>116.2</ele>
        <time>2015-02-17T20:34:22Z</time>
      </trkpt>
      <trkpt lat="59.191830569347" lon="17.899353911929">
        <ele>115.8</ele>
        <time>2015-02-17T20:34:25Z</time>
      </trkpt>
      <trkpt lat="59.191936684201" lon="17.899378722353">
        <ele>116</ele>
        <time>2015-02-17T20:34:27Z</time>
      </trkpt>
      <trkpt lat="59.192031315852" lon="17.899448375942">
        <ele>115.6</ele>
        <time>2015-02-17T20:34:29Z</time>
      </trkpt>
      <trkpt lat="59.192122259467" lon="17.899542001765">
        <ele>115.6</ele>
        <time>2015-02-17T20:34:31Z</time>
      </trkpt>
      <trkpt lat="59.192168192279" lon="17.899585252369">
        <ele>115.6</ele>
        <time>2015-02-17T20:34:32Z</time>
      </trkpt>
      <trkpt lat="59.192354689554" lon="17.899728834316">
        <ele>115</ele>
        <time>2015-02-17T20:34:36Z</time>
      </trkpt>
      <trkpt lat="59.192526769961" lon="17.899826902546">
        <ele>114.6</ele>
        <time>2015-02-17T20:34:40Z</time>
      </trkpt>
      <trkpt lat="59.192569098556" lon="17.899847689658">
        <ele>114.6</ele>
        <time>2015-02-17T20:34:41Z</time>
      </trkpt>
      <trkpt lat="59.19269365359" lon="17.899943578594">
        <ele>114</ele>
        <time>2015-02-17T20:34:44Z</time>
      </trkpt>
      <trkpt lat="59.19281351476" lon="17.900009460328">
        <ele>113.8</ele>
        <time>2015-02-17T20:34:47Z</time>
      </trkpt>
      <trkpt lat="59.192856597726" lon="17.900022536092">
        <ele>113.4</ele>
        <time>2015-02-17T20:34:48Z</time>
      </trkpt>
      <trkpt lat="59.192871517508" lon="17.90008137703">
        <ele>113.6</ele>
        <time>2015-02-17T20:34:49Z</time>
      </trkpt>
      <trkpt lat="59.192889035679" lon="17.900152958456">
        <ele>113.2</ele>
        <time>2015-02-17T20:34:50Z</time>
      </trkpt>
      <trkpt lat="59.192939075622" lon="17.900455628865">
        <ele>113.2</ele>
        <time>2015-02-17T20:34:54Z</time>
      </trkpt>
      <trkpt lat="59.192988612651" lon="17.900585715953">
        <ele>113.8</ele>
        <time>2015-02-17T20:34:56Z</time>
      </trkpt>
      <trkpt lat="59.193022810803" lon="17.90072594514">
        <ele>113.6</ele>
        <time>2015-02-17T20:34:58Z</time>
      </trkpt>
      <trkpt lat="59.193068911253" lon="17.900851422183">
        <ele>113.4</ele>
        <time>2015-02-17T20:35:00Z</time>
      </trkpt>
      <trkpt lat="59.19321584596" lon="17.901055689086">
        <ele>113.2</ele>
        <time>2015-02-17T20:35:05Z</time>
      </trkpt>
      <trkpt lat="59.193230430466" lon="17.901263141111">
        <ele>113.2</ele>
        <time>2015-02-17T20:35:08Z</time>
      </trkpt>
      <trkpt lat="59.193231352475" lon="17.901375290933">
        <ele>113.2</ele>
        <time>2015-02-17T20:35:10Z</time>
      </trkpt>
    </trkseg>
  </trk>
</gpx>